[[{"header":{"parameterUnit":"m.s-1","parameterCategory":1,"la1":31.0,"la2":29.5877,"lo1":-88.7671,"lo2":-86.6584,"dy":0.0162,"dx":0.0185,"nx":115,"ny":88,"refTime":"2023-11-17T06:00:00:Z","depth":0,"parameterNumber":2,"parameterNumberName":"U-component_of_WINDS"},"data":[0.0,0.0,0.0,0.0,0.0,0.0,0.0,0.0,0.0,0.0,0.0,0.0,0.0,0.0,0.0,0.0,0.0,0.0,0.0,0.0,0.0,0.0,0.0,0.0,0.0,0.0,0.0,0.0,0.0,0.0,0.0,0.0,0.0,0.0,0.0,0.0,0.0,0.0,0.0,0.0,0.0,0.0,0.0,0.0,0.0,0.0,0.0,0.0,0.0,0.0,0.0,0.0,0.0,0.0,0.0,0.0,0.0,0.0,0.0,0.0,0.0,0.0,0.0,0.0,0.0,0.0,0.0,0.0,0.0,0.0,0.0,0.0,0.0,0.0,0.0,0.0,0.0,0.0,0.0,0.0,0.0,0.0,0.0,0.0,0.0,0.0,0.0,0.0,0.0,0.0,0.0,0.0,0.0,0.0,0.0,0.0,0.0,0.0,0.0,0.0,0.0,0.0,0.0,0.0,0.0,0.0,0.0,0.0,0.0,0.0,0.0,0.0,0.0,0.0,0.0,0.0,0.0,0.0,0.0,0.0,0.0,0.0,0.0,0.0,0.0,0.0,0.0,0.0,0.0,0.0,0.0,0.0,0.0,0.0,0.0,0.0,0.0,0.0,0.0,0.0,0.0,0.0,0.0,0.0,0.0,0.0,0.0,0.0,0.0,0.0,0.0,0.0,0.0,0.0,0.0,0.0,0.0,0.0,0.0,0.0,0.0,0.0,0.0,0.0,0.0,0.0,0.0,0.0,0.0,0.0,0.0,0.0,0.0,0.0,0.0,0.0,0.0,0.0,0.0,0.0,0.0,0.0,0.0,0.0,0.0,0.0,0.0,0.0,0.0,0.0,0.0,0.0,0.0,0.0,0.0,0.0,0.0,0.0,0.0,0.0,0.0,0.0,0.0,0.0,0.0,0.0,0.0,0.0,0.0,0.0,0.0,0.0,0.0,0.0,0.0,0.0,0.0,0.0,0.0,0.0,0.0,0.0,0.0,0.0,0.0,0.0,0.0,0.0,0.0,0.0,0.0,0.0,0.0,0.0,0.0,0.0,0.0,0.0,0.0,0.0,0.0,0.0,0.0,0.0,0.0,0.0,0.0,0.0,0.0,0.0,0.0,0.0,0.0,0.0,0.0,0.0,0.0,0.0,0.0,0.0,0.0,0.0,0.0,0.0,0.0,0.0,0.0,0.0,0.0,0.0,0.0,0.0,0.0,0.0,0.0,0.0,0.0,0.0,0.0,0.0,0.0,0.0,0.0,0.0,0.0,0.0,0.0,0.0,0.0,0.0,0.0,0.0,0.0,0.0,0.0,0.0,0.0,0.0,0.0,0.0,0.0,0.0,0.0,0.0,0.0,0.0,0.0,0.0,0.0,0.0,0.0,0.0,0.0,0.0,0.0,0.0,0.0,0.0,0.0,0.0,0.0,0.0,0.0,0.0,0.0,0.0,0.0,0.0,0.0,0.0,0.0,0.0,0.0,0.0,0.0,0.0,0.0,0.0,0.0,0.0,0.0,0.0,0.0,0.0,0.0,0.0,0.0,0.0,0.0,0.0,0.0,0.0,0.0,0.0,0.0,0.0,0.0,0.0,0.0,0.0,0.0,0.0,0.0,0.0,0.0,0.0,0.0,0.0,0.0,0.0,0.0,0.0,0.0,0.0,0.0,0.0,0.0,0.0,0.0,0.0,0.0,0.0,0.0,0.0,0.0,0.0,0.0,0.0,0.0,0.0,0.0,0.0,0.0,0.0,0.0,0.0,0.0,0.0,0.0,0.0,0.0,0.0,0.0,0.0,0.0,0.0,0.0,0.0,0.0,0.0,0.0,0.0,0.0,0.0,0.0,0.0,0.0,0.0,0.0,0.0,0.0,0.0,0.0,0.0,0.0,0.0,0.0,0.0,0.0,0.0,0.0,0.0,0.0,0.0,0.0,0.0,0.0,0.0,0.0,0.0,0.0,0.0,0.0,0.0,0.0,0.0,0.0,0.0,0.0,0.0,0.0,0.0,0.0,0.0,0.0,0.0,0.0,0.0,0.0,0.0,0.0,0.0,0.0,0.0,0.0,0.0,0.0,0.0,0.0,0.0,0.0,0.0,0.0,0.0,0.0,0.0,0.0,0.0,0.0,0.0,0.0,0.0,0.0,0.0,0.0,0.0,0.0,0.0,0.0,0.0,0.0,0.0,0.0,0.0,0.0,0.0,0.0,0.0,0.0,0.0,0.0,0.0,0.0,0.0,0.0,0.0,0.0,0.0,0.0,0.0,0.0,0.0,0.0,0.0,0.0,0.0,0.0,0.0,0.0,0.0,0.0,0.0,0.0,0.0,0.0,0.0,0.0,0.0,0.0,0.0,0.0,0.0,0.0,0.0,0.0,0.0,0.0,0.0,0.0,0.0,0.0,0.0,0.0,0.0,0.0,0.0,0.0,0.0,0.0,0.0,0.0,0.0,0.0,0.0,0.0,0.0,0.0,0.0,0.0,0.0,0.0,0.0,0.0,0.0,0.0,0.0,0.0,0.0,0.0,0.0,0.0,0.0,0.0,0.0,0.0,0.0,0.0,0.0,0.0,0.0,0.0,0.0,0.0,0.0,0.0,0.0,0.0,0.0,0.0,0.0,0.0,0.0,0.0,0.0,0.0,0.0,0.0,0.0,0.0,0.0,0.0,0.0,0.0,0.0,0.0,0.0,0.0,0.0,0.0,0.0,0.0,0.0,0.0,0.0,0.0,0.0,0.0,0.0,0.0,0.0,0.0,0.0,0.0,0.0,0.0,0.0,0.0,0.0,0.0,0.0,0.0,0.0,0.0,0.0,0.0,0.0,0.0,0.0,0.0,0.0,0.0,0.0,0.0,0.0,0.0,0.0,0.0,0.0,0.0,0.0,0.0,0.0,0.0,0.0,0.0,0.0,0.0,0.0,0.0,0.0,0.0,0.0,0.0,0.0,0.0,0.0,0.0,0.0,0.0,0.0,0.0,0.0,0.0,0.0,0.0,0.0,0.0,0.0,0.0,0.0,0.0,0.0,0.0,0.0,0.0,0.0,0.0,0.0,0.0,0.0,0.0,0.0,0.0,0.0,0.0,0.0,0.0,0.0,0.0,0.0,0.0,0.0,0.0,0.0,0.0,0.0,0.0,0.0,0.0,0.0,0.0,0.0,0.0,0.0,0.0,0.0,0.0,0.0,0.0,0.0,0.0,0.0,0.0,0.0,0.0,0.0,0.0,0.0,0.0,0.0,0.0,0.0,0.0,0.0,0.0,0.0,0.0,0.0,0.0,0.0,0.0,0.0,0.0,0.0,0.0,0.0,0.0,0.0,0.0,0.0,0.0,0.0,0.0,0.0,0.0,0.0,0.0,0.0,0.0,0.0,0.0,0.0,0.0,0.0,0.0,0.0,0.0,0.0,0.0,0.0,0.0,0.0,0.0,0.0,0.0,0.0,0.0,0.0,0.0,0.0,0.0,0.0,0.0,0.0,0.0,0.0,0.0,0.0,0.0,0.0,0.0,0.0,0.0,0.0,0.0,0.0,0.0,0.0,0.0,0.0,0.0,0.0,0.0,0.0,0.0,0.0,0.0,0.0,0.0,0.0,0.0,0.0,0.0,0.0,0.0,0.0,0.0,0.0,0.0,0.0,0.0,0.0,0.0,0.0,0.0,0.0,0.0,0.0,0.0,0.0,0.0,0.0,0.0,0.0,0.0,0.0,0.0,0.0,0.0,0.0,0.0,0.0,0.0,0.0,0.0,0.0,0.0,0.0,0.0,0.0,0.0,0.0,0.0,0.0,0.0,0.0,0.0,0.0,0.0,0.0,0.0,0.0,0.0,0.0,0.0,0.0,0.0,0.0,0.0,0.0,0.0,0.0,0.0,0.0,0.0,0.0,0.0,0.0,0.0,0.0,0.0,0.0,0.0,0.0,0.0,0.0,0.0,0.0,0.0,0.0,0.0,0.0,0.0,0.0,0.0,0.0,0.0,0.0,0.0,0.0,0.0,0.0,0.0,0.0,0.0,0.0,0.0,0.0,0.0,0.0,0.0,0.0,0.0,0.0,0.0,0.0,0.0,0.0,0.0,0.0,0.0,0.0,0.0,0.0,0.0,0.0,0.0,0.0,0.0,0.0,0.0,0.0,0.0,0.0,0.0,0.0,0.0,0.0,0.0,0.0,0.0,0.0,0.0,0.0,0.0,0.0,0.0,0.0,0.0,0.0,0.0,0.0,0.0,0.0,0.0,0.0,0.0,0.0,0.0,0.0,0.0,0.0,0.0,0.0,0.0,0.0,-1.9033,0.0,0.0,0.0,0.0,0.0,0.0,0.0,0.0,0.0,0.0,0.0,0.0,0.0,0.0,0.0,0.0,0.0,0.0,0.0,0.0,0.0,0.0,0.0,0.0,0.0,0.0,0.0,0.0,0.0,0.0,0.0,0.0,0.0,0.0,0.0,0.0,0.0,0.0,0.0,0.0,0.0,0.0,0.0,0.0,0.0,0.0,0.0,0.0,0.0,0.0,0.0,0.0,0.0,0.0,0.0,0.0,0.0,0.0,0.0,0.0,0.0,0.0,0.0,0.0,0.0,0.0,0.0,0.0,0.0,0.0,0.0,0.0,0.0,0.0,0.0,0.0,0.0,0.0,0.0,0.0,0.0,0.0,0.0,0.0,0.0,0.0,0.0,0.0,0.0,0.0,0.0,0.0,0.0,0.0,0.0,0.0,0.0,0.0,0.0,0.0,0.0,0.0,0.0,0.0,0.0,0.0,0.0,0.0,0.0,0.0,-1.6426,-1.7952,-1.8831,-1.9451,-1.9766,0.0,0.0,0.0,0.0,0.0,0.0,0.0,0.0,0.0,0.0,0.0,0.0,0.0,0.0,0.0,0.0,0.0,0.0,0.0,0.0,0.0,0.0,0.0,0.0,0.0,0.0,0.0,0.0,0.0,0.0,0.0,0.0,0.0,0.0,0.0,0.0,0.0,0.0,0.0,0.0,0.0,0.0,0.0,0.0,0.0,0.0,0.0,0.0,0.0,0.0,0.0,0.0,0.0,0.0,0.0,0.0,0.0,0.0,0.0,0.0,0.0,0.0,0.0,0.0,0.0,0.0,0.0,0.0,0.0,0.0,0.0,0.0,0.0,0.0,0.0,0.0,0.0,0.0,0.0,0.0,0.0,0.0,0.0,0.0,0.0,0.0,0.0,0.0,0.0,0.0,0.0,0.0,0.0,0.0,0.0,0.0,0.0,0.0,0.0,0.0,0.0,0.0,0.0,0.0,0.0,0.0,0.0,0.0,0.0,0.0,0.0,0.0,-1.9523,-2.0256,-2.0712,0.0,0.0,0.0,0.0,0.0,0.0,0.0,0.0,0.0,0.0,0.0,0.0,0.0,0.0,0.0,0.0,0.0,0.0,0.0,0.0,0.0,0.0,0.0,0.0,0.0,0.0,0.0,0.0,0.0,0.0,0.0,0.0,0.0,0.0,0.0,0.0,0.0,0.0,0.0,0.0,0.0,0.0,0.0,0.0,0.0,0.0,0.0,0.0,0.0,0.0,0.0,0.0,0.0,0.0,0.0,0.0,0.0,0.0,0.0,0.0,0.0,0.0,0.0,0.0,0.0,0.0,0.0,0.0,0.0,0.0,0.0,0.0,0.0,0.0,0.0,0.0,0.0,0.0,0.0,0.0,0.0,0.0,0.0,0.0,0.0,0.0,0.0,0.0,0.0,0.0,0.0,0.0,0.0,0.0,0.0,0.0,0.0,0.0,0.0,0.0,0.0,0.0,0.0,0.0,0.0,0.0,0.0,0.0,0.0,0.0,-1.6872,-1.8665,-2.0132,0.0,-2.1558,0.0,0.0,0.0,0.0,0.0,0.0,0.0,0.0,0.0,0.0,0.0,0.0,0.0,0.0,0.0,0.0,0.0,0.0,0.0,0.0,0.0,0.0,0.0,0.0,0.0,0.0,0.0,0.0,0.0,0.0,0.0,0.0,0.0,0.0,0.0,0.0,0.0,0.0,0.0,0.0,0.0,0.0,0.0,0.0,0.0,0.0,0.0,0.0,0.0,0.0,0.0,0.0,0.0,0.0,0.0,0.0,0.0,0.0,0.0,0.0,0.0,0.0,0.0,0.0,0.0,0.0,0.0,0.0,0.0,0.0,0.0,0.0,0.0,0.0,0.0,0.0,0.0,0.0,0.0,0.0,0.0,0.0,0.0,0.0,0.0,0.0,0.0,0.0,0.0,0.0,0.0,0.0,0.0,0.0,0.0,0.0,0.0,0.0,0.0,0.0,0.0,0.0,0.0,0.0,0.0,0.0,0.0,0.0,0.0,0.0,-1.7754,-1.9324,-2.0638,-2.1452,0.0,0.0,0.0,0.0,0.0,0.0,0.0,0.0,0.0,0.0,0.0,0.0,0.0,0.0,0.0,0.0,0.0,0.0,0.0,0.0,0.0,0.0,0.0,0.0,0.0,0.0,0.0,0.0,0.0,0.0,0.0,0.0,0.0,0.0,0.0,0.0,0.0,0.0,0.0,0.0,0.0,0.0,0.0,0.0,0.0,0.0,0.0,0.0,0.0,0.0,0.0,0.0,0.0,0.0,0.0,0.0,0.0,0.0,0.0,0.0,0.0,0.0,0.0,0.0,0.0,0.0,0.0,0.0,0.0,0.0,0.0,0.0,0.0,0.0,0.0,0.0,0.0,0.0,0.0,0.0,0.0,0.0,0.0,0.0,0.0,0.0,0.0,0.0,0.0,0.0,0.0,0.0,0.0,0.0,0.0,0.0,0.0,0.0,0.0,0.0,0.0,0.0,0.0,0.0,0.0,0.0,0.0,0.0,0.0,0.0,-1.7407,-1.8603,-2.0195,-2.1299,-2.1824,-2.1928,0.0,0.0,0.0,0.0,0.0,0.0,0.0,0.0,0.0,0.0,0.0,0.0,0.0,0.0,0.0,0.0,0.0,0.0,0.0,0.0,0.0,0.0,0.0,0.0,0.0,0.0,0.0,0.0,0.0,0.0,0.0,0.0,0.0,0.0,0.0,0.0,0.0,0.0,0.0,0.0,0.0,0.0,0.0,0.0,0.0,0.0,0.0,0.0,0.0,0.0,0.0,0.0,0.0,0.0,0.0,0.0,0.0,0.0,0.0,0.0,0.0,0.0,0.0,0.0,0.0,0.0,0.0,0.0,0.0,0.0,0.0,0.0,0.0,0.0,0.0,0.0,0.0,0.0,0.0,0.0,0.0,0.0,0.0,0.0,0.0,0.0,0.0,0.0,0.0,0.0,0.0,0.0,0.0,0.0,0.0,0.0,0.0,0.0,0.0,0.0,0.0,0.0,0.0,0.0,0.0,0.0,0.0,0.0,-1.7443,-1.8386,-1.9642,-2.1454,-2.1989,-2.2295,0.0,0.0,0.0,0.0,0.0,0.0,0.0,0.0,0.0,0.0,0.0,0.0,0.0,0.0,0.0,0.0,0.0,0.0,0.0,0.0,0.0,0.0,0.0,0.0,0.0,0.0,0.0,0.0,0.0,0.0,0.0,0.0,0.0,0.0,0.0,0.0,0.0,0.0,0.0,0.0,0.0,0.0,0.0,0.0,0.0,0.0,0.0,0.0,0.0,0.0,0.0,0.0,0.0,0.0,0.0,0.0,0.0,0.0,0.0,0.0,0.0,0.0,0.0,0.0,0.0,0.0,0.0,0.0,0.0,0.0,0.0,0.0,0.0,0.0,0.0,0.0,0.0,0.0,0.0,0.0,0.0,0.0,0.0,0.0,0.0,0.0,0.0,0.0,0.0,0.0,0.0,0.0,0.0,0.0,0.0,0.0,0.0,0.0,0.0,0.0,0.0,0.0,0.0,0.0,0.0,0.0,0.0,0.0,0.0,-1.759,-1.8888,-2.0193,-2.1465,-2.1952,-2.2383,0.0,0.0,0.0,0.0,0.0,0.0,0.0,0.0,0.0,0.0,0.0,0.0,0.0,0.0,0.0,0.0,0.0,0.0,0.0,0.0,0.0,0.0,0.0,0.0,0.0,0.0,0.0,0.0,0.0,0.0,0.0,0.0,0.0,0.0,0.0,0.0,0.0,0.0,0.0,0.0,0.0,0.0,0.0,0.0,0.0,0.0,0.0,0.0,0.0,0.0,0.0,0.0,0.0,0.0,0.0,0.0,0.0,0.0,0.0,0.0,0.0,0.0,0.0,0.0,0.0,0.0,0.0,0.0,0.0,0.0,0.0,0.0,0.0,0.0,0.0,0.0,0.0,0.0,0.0,0.0,0.0,0.0,0.0,0.0,0.0,0.0,0.0,0.0,0.0,0.0,0.0,0.0,0.0,0.0,0.0,0.0,0.0,0.0,0.0,0.0,0.0,0.0,0.0,0.0,0.0,0.0,0.0,0.0,0.0,-1.8265,0.0,-2.0909,-2.1538,-2.2241,-2.2809,0.0,0.0,0.0,0.0,0.0,0.0,0.0,0.0,0.0,0.0,0.0,0.0,0.0,0.0,0.0,0.0,0.0,0.0,0.0,0.0,0.0,0.0,0.0,0.0,0.0,0.0,0.0,0.0,0.0,0.0,0.0,0.0,0.0,0.0,0.0,0.0,0.0,0.0,0.0,0.0,0.0,0.0,0.0,0.0,0.0,0.0,0.0,0.0,0.0,0.0,0.0,0.0,0.0,0.0,0.0,0.0,0.0,0.0,0.0,0.0,0.0,0.0,0.0,0.0,0.0,0.0,0.0,0.0,0.0,0.0,0.0,0.0,0.0,0.0,0.0,0.0,0.0,0.0,0.0,0.0,0.0,0.0,0.0,0.0,0.0,0.0,0.0,0.0,0.0,0.0,0.0,0.0,0.0,0.0,0.0,0.0,0.0,0.0,0.0,0.0,0.0,0.0,0.0,0.0,0.0,0.0,0.0,0.0,-1.7843,-1.9771,-2.0861,-2.1569,-2.1796,-2.3039,-2.3618,0.0,0.0,0.0,0.0,0.0,0.0,0.0,0.0,0.0,0.0,0.0,0.0,0.0,0.0,0.0,0.0,0.0,0.0,0.0,0.0,0.0,0.0,0.0,0.0,0.0,0.0,0.0,0.0,0.0,0.0,0.0,0.0,0.0,0.0,0.0,0.0,0.0,0.0,0.0,0.0,0.0,0.0,0.0,0.0,0.0,0.0,0.0,0.0,0.0,0.0,0.0,0.0,0.0,0.0,0.0,0.0,0.0,0.0,0.0,0.0,0.0,0.0,0.0,0.0,0.0,0.0,0.0,0.0,0.0,0.0,0.0,0.0,0.0,0.0,0.0,0.0,0.0,0.0,0.0,0.0,0.0,0.0,0.0,0.0,0.0,0.0,0.0,0.0,0.0,0.0,0.0,0.0,0.0,0.0,0.0,0.0,0.0,0.0,0.0,0.0,0.0,0.0,0.0,0.0,0.0,0.0,0.0,0.0,0.0,-2.0656,-2.1215,-2.2129,-2.312,-2.3734,-2.4421,0.0,0.0,0.0,0.0,0.0,0.0,0.0,0.0,0.0,0.0,0.0,0.0,0.0,0.0,0.0,0.0,0.0,0.0,0.0,0.0,0.0,0.0,0.0,0.0,0.0,0.0,0.0,0.0,0.0,0.0,0.0,0.0,0.0,0.0,0.0,0.0,0.0,0.0,0.0,0.0,0.0,0.0,0.0,0.0,0.0,0.0,0.0,0.0,0.0,0.0,0.0,0.0,0.0,0.0,0.0,0.0,0.0,0.0,0.0,0.0,0.0,0.0,0.0,0.0,0.0,0.0,0.0,0.0,0.0,0.0,0.0,0.0,0.0,0.0,0.0,0.0,0.0,0.0,0.0,0.0,0.0,0.0,0.0,0.0,0.0,0.0,0.0,0.0,0.0,0.0,0.0,0.0,0.0,0.0,0.0,0.0,0.0,0.0,0.0,0.0,0.0,0.0,0.0,0.0,0.0,0.0,0.0,0.0,0.0,-2.1653,-2.1775,-2.2549,-2.3996,-2.4419,-2.5164,-2.6143,0.0,0.0,0.0,0.0,0.0,0.0,0.0,0.0,0.0,0.0,0.0,0.0,0.0,0.0,0.0,0.0,0.0,0.0,0.0,0.0,0.0,0.0,0.0,0.0,0.0,0.0,0.0,0.0,0.0,0.0,0.0,0.0,0.0,0.0,0.0,0.0,0.0,0.0,0.0,0.0,0.0,0.0,0.0,0.0,0.0,0.0,0.0,0.0,0.0,0.0,0.0,0.0,0.0,0.0,0.0,0.0,0.0,0.0,0.0,0.0,0.0,0.0,0.0,0.0,0.0,0.0,0.0,0.0,0.0,0.0,0.0,0.0,0.0,0.0,0.0,0.0,0.0,0.0,0.0,0.0,0.0,0.0,0.0,0.0,0.0,0.0,0.0,0.0,0.0,0.0,0.0,0.0,0.0,0.0,0.0,0.0,0.0,0.0,0.0,0.0,0.0,0.0,0.0,0.0,0.0,0.0,0.0,0.0,-2.2585,-2.2606,-2.317,-2.439,-2.5272,-2.5898,0.0,0.0,0.0,0.0,0.0,0.0,0.0,0.0,0.0,0.0,0.0,0.0,0.0,0.0,0.0,0.0,0.0,0.0,0.0,0.0,0.0,0.0,0.0,0.0,0.0,0.0,0.0,0.0,0.0,0.0,0.0,0.0,0.0,0.0,0.0,0.0,0.0,0.0,0.0,0.0,0.0,0.0,0.0,0.0,0.0,0.0,0.0,0.0,0.0,0.0,0.0,0.0,0.0,0.0,0.0,0.0,0.0,0.0,0.0,0.0,0.0,0.0,0.0,0.0,0.0,0.0,0.0,0.0,0.0,0.0,0.0,0.0,0.0,0.0,0.0,0.0,0.0,0.0,0.0,0.0,0.0,0.0,0.0,0.0,0.0,0.0,0.0,0.0,0.0,0.0,0.0,0.0,0.0,0.0,0.0,0.0,0.0,0.0,0.0,0.0,0.0,0.0,0.0,0.0,0.0,0.0,0.0,0.0,0.0,-2.3356,-2.4119,-2.4855,-2.5405,-2.6295,-2.6938,0.0,0.0,0.0,0.0,0.0,0.0,0.0,0.0,0.0,0.0,0.0,0.0,0.0,0.0,0.0,0.0,0.0,0.0,0.0,0.0,0.0,0.0,0.0,0.0,0.0,0.0,0.0,0.0,0.0,0.0,0.0,0.0,0.0,0.0,0.0,0.0,0.0,0.0,0.0,0.0,0.0,0.0,0.0,0.0,0.0,0.0,0.0,0.0,0.0,0.0,0.0,0.0,0.0,0.0,0.0,0.0,0.0,0.0,0.0,0.0,0.0,0.0,0.0,0.0,0.0,0.0,0.0,0.0,0.0,0.0,0.0,0.0,0.0,0.0,0.0,0.0,0.0,0.0,0.0,0.0,0.0,0.0,0.0,0.0,0.0,0.0,0.0,0.0,0.0,0.0,0.0,0.0,0.0,0.0,0.0,0.0,0.0,0.0,0.0,0.0,0.0,0.0,0.0,0.0,0.0,0.0,0.0,0.0,-2.2749,-2.3974,-2.5172,-2.6013,-2.6531,-2.7282,-2.7772,0.0,0.0,0.0,0.0,0.0,0.0,0.0,0.0,0.0,0.0,0.0,0.0,0.0,0.0,0.0,0.0,0.0,0.0,0.0,0.0,0.0,0.0,0.0,0.0,0.0,0.0,0.0,0.0,0.0,0.0,0.0,0.0,0.0,0.0,0.0,0.0,0.0,0.0,0.0,0.0,0.0,0.0,0.0,0.0,0.0,0.0,0.0,0.0,0.0,0.0,0.0,0.0,0.0,0.0,0.0,0.0,0.0,0.0,0.0,0.0,0.0,0.0,0.0,0.0,0.0,0.0,0.0,0.0,0.0,0.0,0.0,0.0,0.0,0.0,0.0,0.0,0.0,0.0,0.0,0.0,0.0,0.0,0.0,0.0,0.0,0.0,0.0,0.0,0.0,0.0,0.0,0.0,0.0,0.0,0.0,0.0,0.0,0.0,0.0,0.0,0.0,0.0,0.0,0.0,0.0,0.0,0.0,0.0,-2.326,-2.4565,-2.5806,-2.6865,-2.7587,-2.804,-2.8465,0.0,0.0,0.0,0.0,0.0,0.0,0.0,0.0,0.0,0.0,0.0,0.0,0.0,0.0,0.0,0.0,0.0,0.0,0.0,0.0,0.0,0.0,0.0,0.0,0.0,0.0,0.0,0.0,0.0,0.0,0.0,0.0,0.0,0.0,0.0,0.0,0.0,0.0,0.0,0.0,0.0,0.0,0.0,0.0,0.0,0.0,0.0,0.0,0.0,0.0,0.0,0.0,0.0,0.0,0.0,0.0,0.0,0.0,0.0,0.0,0.0,0.0,0.0,0.0,0.0,0.0,0.0,0.0,0.0,0.0,0.0,0.0,0.0,0.0,0.0,0.0,0.0,0.0,0.0,0.0,0.0,0.0,0.0,0.0,0.0,0.0,0.0,0.0,0.0,0.0,0.0,0.0,0.0,0.0,0.0,0.0,0.0,0.0,0.0,0.0,0.0,0.0,0.0,0.0,0.0,0.0,0.0,0.0,-2.4069,-2.5308,-2.6555,-2.7488,-2.7878,-2.8695,-2.8861,0.0,0.0,0.0,0.0,0.0,0.0,0.0,0.0,0.0,0.0,0.0,0.0,0.0,0.0,0.0,0.0,0.0,0.0,0.0,0.0,0.0,0.0,0.0,0.0,0.0,0.0,0.0,0.0,0.0,0.0,0.0,0.0,0.0,0.0,0.0,0.0,0.0,0.0,0.0,0.0,0.0,0.0,0.0,0.0,0.0,0.0,0.0,0.0,-5.6726,0.0,0.0,0.0,0.0,0.0,0.0,0.0,0.0,0.0,0.0,0.0,0.0,0.0,0.0,0.0,0.0,0.0,0.0,0.0,0.0,0.0,0.0,0.0,0.0,0.0,0.0,0.0,0.0,0.0,0.0,0.0,0.0,0.0,0.0,0.0,0.0,0.0,0.0,0.0,0.0,0.0,0.0,0.0,0.0,0.0,0.0,0.0,0.0,0.0,0.0,0.0,0.0,0.0,0.0,0.0,0.0,0.0,0.0,0.0,-2.4274,-2.5777,-2.6745,-2.7493,-2.7984,-2.8891,-2.9087,0.0,0.0,0.0,0.0,0.0,0.0,0.0,0.0,0.0,0.0,0.0,0.0,0.0,0.0,0.0,0.0,0.0,0.0,0.0,0.0,0.0,0.0,0.0,0.0,0.0,0.0,0.0,0.0,0.0,0.0,0.0,0.0,0.0,0.0,0.0,0.0,0.0,0.0,0.0,0.0,0.0,0.0,0.0,0.0,0.0,0.0,0.0,0.0,0.0,0.0,0.0,0.0,0.0,0.0,0.0,0.0,0.0,0.0,0.0,0.0,0.0,0.0,0.0,0.0,0.0,0.0,0.0,0.0,0.0,0.0,0.0,0.0,0.0,0.0,0.0,0.0,0.0,0.0,0.0,0.0,0.0,0.0,0.0,0.0,0.0,0.0,0.0,0.0,0.0,0.0,0.0,0.0,0.0,0.0,0.0,0.0,0.0,0.0,0.0,0.0,0.0,0.0,0.0,0.0,0.0,0.0,0.0,-2.3119,-2.4412,-2.5861,-2.6593,-2.7344,-2.8002,-2.8957,-2.9175,-2.8597,0.0,0.0,0.0,0.0,0.0,0.0,0.0,0.0,0.0,0.0,0.0,0.0,0.0,0.0,0.0,0.0,0.0,0.0,0.0,0.0,0.0,0.0,0.0,0.0,0.0,0.0,0.0,0.0,0.0,0.0,0.0,0.0,0.0,0.0,0.0,0.0,0.0,0.0,-5.0507,-5.2995,0.0,0.0,0.0,0.0,0.0,0.0,0.0,0.0,-5.8475,0.0,0.0,0.0,0.0,0.0,0.0,0.0,0.0,0.0,0.0,0.0,0.0,0.0,0.0,0.0,0.0,0.0,0.0,0.0,0.0,0.0,0.0,0.0,0.0,0.0,0.0,0.0,0.0,0.0,0.0,0.0,0.0,0.0,0.0,0.0,0.0,0.0,0.0,0.0,0.0,0.0,0.0,0.0,0.0,0.0,0.0,0.0,0.0,0.0,0.0,0.0,0.0,0.0,0.0,0.0,0.0,-2.1828,-2.3232,-2.4553,-2.5635,-2.6608,-2.7366,-2.802,-2.8957,-2.9058,-2.8389,0.0,0.0,0.0,0.0,0.0,0.0,0.0,0.0,0.0,0.0,0.0,0.0,0.0,0.0,0.0,0.0,0.0,0.0,0.0,0.0,0.0,0.0,0.0,0.0,0.0,0.0,0.0,0.0,0.0,0.0,0.0,0.0,0.0,0.0,0.0,0.0,0.0,0.0,0.0,-5.5222,-5.6315,0.0,0.0,0.0,0.0,0.0,0.0,0.0,0.0,-6.0281,0.0,0.0,0.0,0.0,0.0,0.0,0.0,0.0,0.0,0.0,0.0,0.0,0.0,0.0,0.0,0.0,0.0,0.0,0.0,0.0,0.0,0.0,0.0,0.0,0.0,0.0,0.0,0.0,0.0,0.0,0.0,0.0,0.0,0.0,0.0,0.0,0.0,0.0,0.0,0.0,0.0,0.0,0.0,0.0,0.0,0.0,0.0,0.0,0.0,0.0,0.0,0.0,0.0,0.0,0.0,-2.1661,-2.3125,-2.4316,-2.5349,-2.6344,-2.7073,-2.7539,-2.8498,-2.859,0.0,0.0,0.0,0.0,0.0,0.0,0.0,0.0,0.0,0.0,0.0,0.0,0.0,0.0,0.0,0.0,0.0,0.0,0.0,0.0,0.0,0.0,0.0,0.0,0.0,0.0,0.0,0.0,0.0,0.0,0.0,0.0,0.0,0.0,0.0,0.0,0.0,0.0,0.0,0.0,-5.5128,-5.6283,-5.6694,0.0,0.0,0.0,0.0,0.0,0.0,-6.1046,-6.1284,0.0,0.0,0.0,0.0,0.0,0.0,0.0,0.0,0.0,0.0,0.0,0.0,0.0,0.0,0.0,0.0,0.0,0.0,0.0,0.0,0.0,0.0,0.0,0.0,0.0,0.0,0.0,0.0,0.0,0.0,0.0,0.0,0.0,0.0,0.0,0.0,0.0,0.0,0.0,0.0,0.0,0.0,0.0,0.0,0.0,0.0,0.0,0.0,0.0,0.0,0.0,0.0,0.0,0.0,0.0,-2.1555,-2.2907,-2.3976,-2.498,-2.5839,-2.6571,-2.6952,-2.7779,-2.8002,0.0,0.0,0.0,0.0,0.0,0.0,0.0,0.0,0.0,0.0,0.0,0.0,0.0,0.0,0.0,0.0,0.0,0.0,0.0,0.0,0.0,0.0,0.0,0.0,0.0,0.0,0.0,0.0,0.0,0.0,0.0,0.0,0.0,0.0,0.0,0.0,0.0,0.0,0.0,0.0,0.0,-5.6473,-5.7864,-5.8306,0.0,0.0,0.0,0.0,-6.0422,-6.1312,0.0,0.0,0.0,0.0,0.0,0.0,0.0,0.0,0.0,0.0,0.0,0.0,0.0,0.0,0.0,0.0,0.0,0.0,0.0,0.0,0.0,0.0,0.0,0.0,0.0,0.0,0.0,0.0,0.0,0.0,0.0,0.0,0.0,0.0,0.0,0.0,0.0,0.0,0.0,0.0,0.0,0.0,0.0,0.0,0.0,0.0,0.0,0.0,0.0,0.0,0.0,0.0,0.0,0.0,0.0,0.0,-2.1194,-2.2537,-2.3604,-2.461,-2.5103,-2.5717,-2.6571,-2.7039,-2.6917,0.0,0.0,0.0,0.0,0.0,0.0,0.0,0.0,0.0,0.0,0.0,0.0,0.0,0.0,0.0,0.0,0.0,0.0,0.0,0.0,0.0,0.0,0.0,0.0,0.0,0.0,0.0,0.0,0.0,0.0,0.0,0.0,0.0,0.0,0.0,0.0,0.0,0.0,0.0,0.0,0.0,-5.8464,-5.7484,-5.8401,-5.9412,0.0,0.0,-6.0266,-6.2172,-6.2237,0.0,0.0,0.0,0.0,0.0,0.0,0.0,0.0,0.0,0.0,0.0,0.0,0.0,0.0,0.0,0.0,0.0,0.0,0.0,0.0,0.0,0.0,0.0,0.0,0.0,0.0,0.0,0.0,0.0,0.0,0.0,0.0,0.0,0.0,0.0,0.0,0.0,0.0,0.0,0.0,0.0,0.0,0.0,0.0,0.0,0.0,0.0,0.0,0.0,0.0,0.0,0.0,0.0,0.0,0.0,-1.9745,-2.0739,-2.2044,-2.3106,-2.3743,-2.4487,-2.498,-2.5472,-2.5945,-2.5961,0.0,0.0,0.0,0.0,0.0,0.0,0.0,0.0,0.0,0.0,0.0,0.0,0.0,0.0,0.0,0.0,0.0,0.0,0.0,0.0,0.0,0.0,0.0,0.0,0.0,0.0,0.0,0.0,0.0,0.0,0.0,0.0,0.0,0.0,0.0,0.0,0.0,0.0,0.0,0.0,0.0,0.0,-5.7295,-5.8748,0.0,0.0,0.0,-6.1245,-6.1946,0.0,0.0,0.0,0.0,0.0,0.0,0.0,0.0,0.0,0.0,0.0,0.0,0.0,0.0,0.0,0.0,0.0,0.0,0.0,0.0,0.0,0.0,0.0,0.0,0.0,0.0,0.0,0.0,0.0,0.0,0.0,0.0,0.0,0.0,0.0,0.0,0.0,0.0,0.0,0.0,0.0,0.0,0.0,0.0,0.0,0.0,0.0,0.0,0.0,0.0,0.0,0.0,0.0,0.0,0.0,0.0,0.0,-2.0254,-2.1672,-2.2606,-2.3106,-2.3867,-2.4363,-2.4487,-2.4964,0.0,0.0,0.0,0.0,0.0,0.0,0.0,0.0,0.0,0.0,0.0,0.0,0.0,0.0,0.0,0.0,0.0,0.0,0.0,0.0,0.0,0.0,0.0,0.0,0.0,0.0,0.0,-3.9411,0.0,0.0,0.0,0.0,0.0,0.0,0.0,0.0,0.0,0.0,0.0,0.0,0.0,0.0,-5.7737,-5.7737,-5.9349,-6.0581,0.0,0.0,-6.2035,-6.1719,-6.249,-6.2972,0.0,0.0,0.0,0.0,0.0,0.0,0.0,0.0,0.0,0.0,0.0,0.0,0.0,0.0,0.0,0.0,0.0,0.0,0.0,0.0,0.0,0.0,0.0,0.0,0.0,0.0,0.0,0.0,0.0,0.0,0.0,0.0,0.0,0.0,0.0,0.0,0.0,0.0,0.0,0.0,0.0,0.0,0.0,0.0,0.0,0.0,0.0,0.0,0.0,0.0,0.0,0.0,0.0,0.0,0.0,-2.0267,-2.1189,-2.2104,-2.3106,-2.3106,-2.3479,-2.41,-2.41,-2.4039,0.0,0.0,0.0,0.0,0.0,0.0,0.0,0.0,0.0,0.0,0.0,0.0,0.0,0.0,0.0,0.0,0.0,0.0,0.0,0.0,0.0,0.0,0.0,0.0,0.0,0.0,0.0,0.0,0.0,0.0,0.0,0.0,0.0,0.0,0.0,0.0,0.0,0.0,0.0,0.0,0.0,-5.9159,-5.9159,-6.0392,-6.1308,0.0,0.0,-6.1656,-6.2256,-6.2776,-6.2972,-6.2236,0.0,0.0,0.0,0.0,0.0,0.0,0.0,0.0,0.0,0.0,0.0,0.0,0.0,0.0,0.0,0.0,0.0,0.0,0.0,0.0,0.0,0.0,0.0,0.0,0.0,0.0,0.0,0.0,0.0,0.0,0.0,0.0,0.0,0.0,0.0,0.0,0.0,0.0,0.0,0.0,0.0,0.0,0.0,0.0,0.0,0.0,0.0,0.0,0.0,0.0,0.0,0.0,0.0,-1.9466,-1.9879,-2.102,-2.1727,-2.2244,-2.2509,-2.2885,-2.3106,-2.3384,-2.3424,0.0,0.0,0.0,0.0,0.0,0.0,0.0,0.0,0.0,0.0,0.0,0.0,0.0,0.0,0.0,0.0,0.0,0.0,0.0,0.0,0.0,0.0,0.0,0.0,0.0,0.0,0.0,0.0,-4.3075,-4.5053,-4.715,0.0,0.0,0.0,0.0,0.0,0.0,0.0,0.0,0.0,0.0,-5.9317,-5.9317,-6.0487,0.0,0.0,-6.1751,-6.213,-6.2383,-6.2741,-6.2907,-6.2844,-6.2862,0.0,0.0,0.0,0.0,0.0,0.0,0.0,0.0,0.0,0.0,0.0,0.0,0.0,0.0,0.0,0.0,0.0,0.0,0.0,0.0,0.0,0.0,0.0,0.0,0.0,0.0,0.0,0.0,0.0,0.0,0.0,0.0,0.0,0.0,0.0,0.0,0.0,0.0,0.0,0.0,0.0,0.0,0.0,0.0,0.0,0.0,0.0,0.0,0.0,0.0,0.0,0.0,-1.9394,-1.9661,-2.0823,-2.1475,-2.1614,-2.2006,-2.2397,-2.248,-2.2774,-2.2879,0.0,0.0,0.0,0.0,0.0,0.0,0.0,0.0,0.0,0.0,0.0,0.0,0.0,0.0,0.0,0.0,0.0,0.0,0.0,0.0,0.0,0.0,0.0,0.0,0.0,0.0,0.0,0.0,-4.4244,-4.6394,-4.7758,0.0,0.0,0.0,0.0,0.0,0.0,0.0,0.0,0.0,0.0,-5.9759,-5.9633,-6.0803,-6.1624,-6.1435,-6.1972,-6.2446,-6.2446,-6.2612,-6.2905,-6.3131,0.0,0.0,0.0,0.0,0.0,0.0,0.0,0.0,0.0,0.0,0.0,0.0,0.0,0.0,0.0,0.0,0.0,0.0,0.0,0.0,0.0,0.0,0.0,0.0,0.0,0.0,0.0,0.0,0.0,0.0,-0.3512,0.0,0.0,0.0,0.0,0.0,0.0,0.0,0.0,0.0,0.0,0.0,0.0,0.0,0.0,0.0,0.0,0.0,0.0,0.0,0.0,0.0,0.0,-1.9394,-1.9661,-2.0585,-2.1235,-2.1601,-2.1754,-2.188,-2.2104,-2.2397,-2.2381,-2.2148,0.0,0.0,0.0,0.0,0.0,0.0,0.0,0.0,0.0,0.0,0.0,0.0,0.0,0.0,0.0,0.0,0.0,0.0,0.0,0.0,0.0,0.0,0.0,0.0,0.0,0.0,-4.3659,-4.6095,-4.7529,0.0,0.0,0.0,0.0,0.0,0.0,0.0,0.0,0.0,0.0,-5.934,-6.0764,-6.0392,-6.1498,-6.213,-6.1529,-6.2003,-6.2446,-6.2446,-6.2612,-6.2905,0.0,0.0,0.0,0.0,0.0,0.0,0.0,0.0,0.0,0.0,0.0,0.0,0.0,0.0,0.0,0.0,0.0,0.0,0.0,0.0,0.0,0.0,0.0,0.0,0.0,0.0,0.0,-0.2917,-0.3245,0.0,0.0,0.0,0.0,0.0,0.0,0.0,0.0,0.0,0.0,0.0,-0.8586,-0.891,0.0,0.0,0.0,0.0,0.0,0.0,0.0,0.0,0.0,0.0,0.0,0.0,-1.9112,-1.9941,-2.0423,-2.0982,-2.1235,-2.1362,-2.1488,-2.174,-2.188,-2.2103,-2.2148,0.0,0.0,0.0,0.0,0.0,0.0,0.0,0.0,0.0,0.0,0.0,0.0,0.0,0.0,0.0,0.0,0.0,0.0,0.0,0.0,0.0,0.0,0.0,0.0,0.0,-4.3664,0.0,0.0,0.0,0.0,0.0,0.0,0.0,0.0,0.0,0.0,0.0,-5.722,-5.8938,-5.984,-6.0638,-6.1526,-6.1719,-6.1814,0.0,0.0,0.0,0.0,0.0,0.0,0.0,0.0,0.0,0.0,0.0,0.0,0.0,0.0,-6.62,-6.5593,-6.4462,-6.391,-6.491,0.0,0.0,0.0,0.0,0.0,0.0,0.0,0.0,0.0,0.0,0.0,0.0,0.0,0.0,-0.3351,0.0,-0.3729,0.0,0.0,0.0,0.0,0.0,0.0,0.0,0.0,-0.8027,-0.832,-0.8606,-0.8933,-0.9335,0.0,-0.9937,-1.0441,0.0,0.0,0.0,0.0,0.0,0.0,0.0,0.0,-1.8778,-1.9941,-2.0348,-2.0729,-2.0856,-2.1109,-2.1235,-2.1488,-2.1614,-2.1783,-2.1934,-2.2414,-2.2696,0.0,0.0,0.0,0.0,0.0,0.0,0.0,0.0,0.0,0.0,0.0,0.0,0.0,0.0,0.0,0.0,0.0,0.0,0.0,0.0,0.0,0.0,0.0,-4.5266,0.0,0.0,0.0,0.0,0.0,0.0,0.0,0.0,0.0,-5.4404,-5.596,-5.7565,-5.9215,-6.0035,-6.0913,-6.1775,0.0,0.0,0.0,0.0,0.0,0.0,0.0,-6.2513,-6.2905,-6.3389,-6.4114,-6.518,-6.6383,-6.7371,-6.8027,0.0,0.0,-6.704,-6.5807,-6.5083,-6.6083,-6.6048,-6.5876,-6.5876,-6.5876,-6.6014,0.0,0.0,0.0,0.0,0.0,0.0,0.0,0.0,-0.3298,-0.3505,0.0,-0.4205,0.0,0.0,0.0,0.0,0.0,-0.752,0.0,0.0,-0.7812,-0.8116,-0.836,-0.8732,-0.9098,-0.9335,-0.97,-1.0179,-1.0778,-1.139,0.0,0.0,0.0,0.0,0.0,0.0,-1.8653,-1.9559,-2.0221,-2.0602,-2.0602,-2.0856,-2.1109,-2.1109,-2.1362,-2.1601,-2.1614,-2.223,-2.2731,-2.312,-2.3074,0.0,0.0,0.0,0.0,0.0,0.0,0.0,0.0,0.0,0.0,0.0,0.0,0.0,0.0,0.0,0.0,0.0,0.0,0.0,0.0,-4.5216,0.0,0.0,0.0,0.0,0.0,0.0,0.0,0.0,0.0,0.0,-5.4895,-5.6279,-5.7421,-5.7971,0.0,0.0,0.0,0.0,-6.2414,-6.2446,-6.2446,-6.2446,-6.2446,-6.2446,-6.2643,-6.3131,0.0,0.0,-6.5834,-6.7045,-6.7658,-6.735,-6.7065,-6.725,-6.9015,-6.7945,-6.6945,-6.7014,-6.6497,-6.6014,-6.5979,-6.6117,-6.6083,0.243,0.0,0.0,0.0,0.0,-0.3475,-0.3592,-0.3353,-0.3831,-0.4178,-0.4516,-0.484,0.0,0.0,0.0,0.0,0.0,0.0,-0.7655,-0.7584,-0.778,-0.8071,-0.8233,-0.869,-0.9098,-0.9335,-0.9579,-1.0058,-1.0422,-1.0906,-1.1631,-1.2844,0.0,0.0,0.0,0.0,-1.8292,-1.9546,-1.9839,-1.9966,-2.0234,-2.0602,-2.0869,-2.1109,-2.1235,-2.1362,-2.1614,-2.174,-2.2216,-2.3062,-2.3149,0.0,0.0,0.0,0.0,0.0,0.0,0.0,0.0,0.0,0.0,0.0,0.0,0.0,0.0,0.0,0.0,0.0,0.0,0.0,-4.5135,-4.681,-4.7973,0.0,0.0,0.0,0.0,0.0,0.0,0.0,0.0,0.0,-5.5961,-5.674,-5.7713,0.0,0.0,-6.1237,-6.1433,-6.199,-6.2446,-6.2446,-6.2446,0.0,-6.2446,-6.2513,-6.271,-6.2905,-6.3738,-6.4761,-6.578,-6.6503,-6.7082,-6.781,-6.8042,-6.846,-6.946,-6.8314,-6.729,-6.7601,-6.7601,-6.7463,-6.7463,-6.7463,-6.7463,0.0859,0.1461,-0.0608,-0.2313,-0.3899,-0.3897,-0.388,-0.3738,-0.4096,-0.4545,-0.485,-0.5068,-0.5424,-0.5907,-0.6058,0.0,0.0,0.0,-0.766,-0.76,-0.7785,-0.7955,-0.8136,-0.8575,-0.8976,-0.9098,-0.9579,-0.9943,-1.0308,-1.0543,-1.1148,-1.2363,0.0,0.0,-1.5918,-1.6648,-1.7771,-1.9176,-1.9328,-1.9584,-1.9839,-2.0348,-2.0742,-2.0856,-2.1102,-2.141,-2.1538,-2.1774,-2.2181,-2.2863,-2.3092,-2.3359,0.0,0.0,0.0,0.0,0.0,0.0,0.0,0.0,0.0,0.0,0.0,-3.5082,-3.6633,0.0,0.0,0.0,-4.3127,-4.4607,-4.6238,-4.7508,0.0,0.0,0.0,0.0,0.0,0.0,0.0,-5.5103,-5.5699,-5.6268,-5.6723,-5.7196,-5.8001,-5.9225,-6.0333,-6.1196,-6.1512,0.0,-6.2446,-6.2446,-6.2446,-6.2446,-6.2446,-6.2612,-6.2905,-6.3357,-6.4374,-6.5403,-6.6213,-6.6799,-6.7517,-6.8353,-6.8795,-6.9184,-6.983,-6.8979,-6.8325,-6.8497,-6.829,-6.8083,-6.8083,-6.8083,-6.8083,-0.0864,-0.1973,-0.2096,-0.2837,-0.3828,-0.3951,-0.4041,-0.4346,-0.434,-0.4624,-0.5081,-0.5148,-0.5482,-0.5979,-0.6763,0.0,-0.7036,-0.752,-0.7703,-0.7703,-0.7818,-0.7872,-0.7994,-0.861,-0.8854,-0.8854,-0.9457,-0.9943,-1.0308,-1.0308,-1.0785,-1.1639,-1.2795,-1.4109,-1.5307,-1.6286,-1.7296,-1.8571,-1.8828,-1.92,-1.9584,-2.0221,-2.0488,-2.0641,-2.1288,-2.1563,-2.159,-2.2105,-2.2517,-2.2545,-2.3042,-2.3565,-2.397,0.0,0.0,0.0,0.0,0.0,0.0,0.0,0.0,0.0,0.0,0.0,0.0,0.0,0.0,0.0,-4.4872,0.0,-4.6876,-4.7658,0.0,0.0,0.0,-5.2143,-5.284,-5.3867,-5.4909,-5.548,0.0,0.0,-5.7245,-5.764,-5.8114,-5.8991,-6.0319,-6.132,-6.1543,-6.2016,-6.2315,-6.2446,-6.2446,-6.2446,-6.2446,-6.2612,-6.3196,-6.4085,-6.5139,-6.6087,-6.6968,-6.777,-6.845,-6.8958,-6.939,-6.973,-6.973,-6.9962,-7.0187,-6.9463,-6.8842,-6.8325,-6.8394,-6.8394,-6.8428,-0.1974,-0.2096,-0.2837,-0.3455,-0.3951,-0.3951,-0.4063,-0.441,-0.4603,-0.4917,-0.5234,-0.5428,-0.5594,-0.5627,-0.6415,-0.6652,-0.6584,-0.7364,-0.7703,-0.7709,-0.7818,-0.7872,-0.7994,-0.861,-0.8854,-0.8976,-0.9457,-0.9822,-0.9943,-1.0186,-1.0422,-1.0679,-1.1697,-1.3242,-1.5307,-1.6286,-1.7158,-1.8162,-1.8162,-1.8559,-1.92,-1.9328,-1.9939,-2.0928,-2.0993,-2.1397,-2.1871,-2.2082,-2.2349,-2.2832,-2.2759,-2.3126,-2.3894,-2.4348,0.0,0.0,0.0,0.0,0.0,0.0,0.0,0.0,0.0,-3.6499,-3.8937,0.0,-4.1736,0.0,-4.5739,-4.7029,-4.7543,-4.881,0.0,0.0,-5.2432,-5.3517,-5.4346,-5.5393,-5.6137,-5.6507,-5.6875,-5.7129,-5.7274,-5.7751,-5.8335,-5.8991,-5.9773,-6.0512,-6.1206,-6.1714,-6.2216,-6.2347,-6.2446,-6.2446,-6.2477,-6.2808,-6.3453,-6.4337,-6.539,-6.6403,-6.7268,-6.8059,-6.8695,-6.9079,-6.9424,-6.9646,-6.9764,-7.0065,-7.036,-7.0153,-6.998,-6.9842,-6.9842,-6.9842,-6.9808,-0.2483,-0.2467,-0.3207,-0.3702,-0.3951,-0.3951,-0.418,-0.4635,-0.4717,-0.504,-0.5475,-0.5506,-0.5557,-0.5512,-0.6253,-0.6527,-0.6574,-0.7401,-0.7725,-0.778,-0.7845,-0.7872,-0.7872,-0.8488,-0.8732,-0.8976,-0.9342,-0.97,-0.9822,-1.0257,-1.0285,-1.0292,-1.1351,-1.2656,-1.4332,-1.5297,-1.61,-1.713,-1.7518,-1.7916,-1.8431,-1.8816,-1.9591,-2.0488,-2.1019,-2.149,-2.2164,-2.2298,-2.2593,-2.2876,-2.313,-2.3384,-2.3955,-2.4613,-2.5302,0.0,0.0,0.0,0.0,0.0,0.0,0.0,0.0,0.0,0.0,0.0,-4.257,-4.496,-4.6478,-4.7588,-4.8133,-4.9286,-5.0487,-5.1471,-5.2834,-5.3954,-5.4699,-5.5729,-5.6509,-5.6652,-5.7078,-5.7303,-5.7303,-5.7863,-5.8415,-5.8991,-5.9636,-6.0241,-6.1206,-6.1714,-6.2116,-6.2347,-6.2446,-6.264,-6.3122,-6.3736,-6.4384,-6.5053,-6.5975,-6.7023,-6.8025,-6.8484,-6.885,-6.9485,-6.9934,-7.0379,-7.0653,-7.106,-7.1394,-7.1394,-7.1394,-7.1153,-7.0532,-7.0394,-7.0394,-0.2759,-0.3094,-0.3465,-0.371,-0.3951,-0.3951,-0.4285,-0.4834,-0.4824,-0.5134,-0.5639,-0.5573,-0.5537,-0.5529,-0.6125,-0.6574,-0.6861,-0.7355,-0.778,-0.7872,-0.7872,-0.7872,-0.7872,-0.8244,-0.8616,-0.8854,-0.9214,-0.9464,-0.9856,-1.0232,-1.0301,-1.0204,-1.1246,-1.2177,-1.283,-1.3648,-1.48,-1.5974,-1.6882,-1.7271,-1.74,-1.8466,-1.9253,-2.003,-2.0963,-2.1779,-2.2458,-2.2726,-2.2859,-2.2996,-2.3584,-2.4022,-2.4158,-2.5154,-2.6117,0.0,-2.7884,0.0,0.0,0.0,0.0,0.0,0.0,0.0,0.0,-4.1272,-4.3735,-4.609,-4.7098,-4.7918,-4.8576,-4.9615,-5.0614,-5.1471,-5.2861,-5.3861,-5.4607,-5.5729,-5.6423,-5.6423,-5.6964,-5.7303,-5.7303,-5.7863,-5.8445,-5.9021,-5.9787,-6.0591,-6.1535,-6.1972,-6.2205,-6.2473,-6.2635,-6.3246,-6.4119,-6.4892,-6.5413,-6.5964,-6.6889,-6.791,-6.93,-6.93,-6.9377,-7.0161,-7.0682,-7.1234,-7.1883,-7.2382,-7.2636,-7.2567,-7.2533,-7.2188,-7.1153,-7.0808,-7.067,-0.3058,-0.3269,-0.3768,-0.3867,-0.3951,-0.3951,-0.4312,-0.4909,-0.4848,-0.5134,-0.5651,-0.5704,-0.5688,-0.5631,-0.6129,-0.6543,-0.6865,-0.7317,-0.7612,-0.7872,-0.7872,-0.7872,-0.7872,-0.8244,-0.8616,-0.8854,-0.9214,-0.9516,-0.9751,-1.0032,-1.0114,-1.0369,-1.067,-1.1012,-1.1408,0.0,0.0,0.0,-1.6094,-1.6494,-1.7141,-1.7718,-1.8851,-2.0302,-2.1124,0.0,-2.2766,-2.2832,-2.2996,-2.3283,-2.3639,0.0,0.0,0.0,0.0,0.0,0.0,0.0,0.0,0.0,0.0,0.0,-3.7352,-3.8856,-4.0244,-4.2787,-4.4823,-4.5866,-4.7098,-4.8026,-4.8576,-4.9719,-5.0842,-5.1596,-5.2834,-5.3861,-5.4607,-5.5613,-5.6423,-5.6394,-5.6964,-5.7303,-5.7303,-5.7863,-5.8445,-5.905,-6.0334,-6.1489,-6.2353,-6.2558,-6.2794,-6.323,-6.371,-6.4323,-6.4984,-6.5244,-6.5799,-6.6776,-6.7772,-6.8925,-7.018,-7.0704,-7.0749,-7.1075,-7.1464,-7.178,-7.1985,-7.2416,-7.2671,-7.2671,-7.2671,-7.2602,-7.2291,-7.2222,-7.2222,-0.3362,0.0,-0.3825,-0.4046,0.0,-0.3992,-0.4224,-0.4684,-0.477,-0.5192,-0.5716,-0.5761,-0.5753,-0.5716,-0.6168,-0.6575,-0.6822,-0.724,-0.7627,-0.7872,-0.7872,-0.7872,-0.7872,-0.8116,-0.8395,-0.8946,-0.9075,-0.9392,-0.9771,-1.0102,-1.031,-1.052,-1.0534,-1.0733,-1.1133,-1.2258,-1.3481,-1.4931,-1.5574,-1.6155,-1.6661,-1.7434,-1.8593,-2.0038,-2.0601,0.0,0.0,0.0,0.0,0.0,0.0,0.0,0.0,-2.6489,0.0,-2.8766,-2.9322,-3.0321,-3.1966,-3.3116,-3.4519,-3.6305,-3.8624,-4.0368,-4.155,-4.341,-4.4937,-4.589,-4.7098,-4.8026,-4.8576,-4.9847,-5.0842,-5.1596,-5.2834,-5.3833,-5.458,-5.5613,-5.6394,-5.6394,-5.6964,-5.7303,-5.7303,-5.7863,-5.8563,-5.9439,-6.0499,-6.1721,-6.2903,-6.3277,-6.3586,-6.3924,-6.4595,-6.5243,-6.5751,-6.614,-6.6635,-6.7851,-6.8723,-6.9622,-7.0649,-7.1108,-7.1312,-7.1312,-7.1668,-7.1985,-7.1985,-7.2331,-7.2671,-7.2671,-7.2671,-7.2671,-7.2671,-7.2671,-7.2671,-0.367,-0.3622,-0.4013,-0.4106,-0.4052,-0.4041,-0.4253,-0.4561,0.0,0.0,0.0,-0.5823,-0.5818,-0.5806,-0.6181,-0.6467,-0.6898,-0.7266,-0.751,-0.7872,-0.7872,-0.7872,-0.7872,-0.7894,-0.8324,-0.9044,-0.9081,-0.9412,-0.9921,-1.0303,-1.0637,-1.0678,-1.0663,-1.085,-1.138,-1.2561,-1.363,-1.4322,-1.5371,-1.5984,-1.6308,-1.7321,-1.834,-1.9562,-2.0042,-2.0997,-2.2022,-2.2362,-2.2908,-2.3844,-2.4372,-2.5114,-2.6372,-2.6994,-2.7975,-2.9385,-2.9905,-3.0932,-3.265,-3.387,-3.5238,-3.6995,-3.9827,-4.1732,-4.2398,-4.3558,-4.4663,-4.5754,-4.6831,-4.7762,-4.86,-4.9847,-5.0842,-5.1596,-5.2834,-5.3861,-5.4607,-5.5613,-5.6423,-5.6423,-5.6964,-5.7303,-5.7303,-5.798,-5.877,-5.9967,-6.0983,-6.2105,-6.3649,-6.4267,-6.4547,-6.4871,-6.5448,-6.594,-6.6518,-6.694,-6.7733,-6.8634,-6.9316,-7.0021,-7.0556,-7.1074,-7.1222,-7.1312,-7.1634,-7.1898,-7.1985,-7.2416,-7.2671,-7.2671,-7.2671,-7.2671,-7.2671,-7.2671,-7.2671,-0.3725,-0.3677,-0.4071,-0.4169,-0.4109,-0.4057,-0.4377,-0.481,-0.5176,-0.554,-0.5904,-0.5982,-0.597,-0.5904,-0.6106,-0.6478,-0.6903,-0.7148,-0.751,0.0,-0.7872,-0.7872,-0.7877,-0.7981,-0.8415,-0.9068,-0.9172,-0.9678,-1.0317,-1.048,-1.0561,-1.0677,-1.0711,-1.0982,-1.1652,-1.2173,-1.3038,-1.4263,-1.493,-1.5604,-1.6318,-1.7235,-1.8139,-1.9175,-2.0209,-2.0894,-2.1358,-2.2267,-2.3121,-2.3872,-2.479,-2.5955,-2.7438,-2.811,-2.9012,-3.0233,-3.0943,-3.1878,-3.3198,-3.4251,-3.6067,-3.8567,-4.0771,-4.1954,-4.2138,-4.3419,-4.4663,-4.5324,-4.6674,-4.7786,-4.8576,-4.9847,-5.0842,-5.1596,-5.2861,-5.3861,-5.4488,-5.5613,-5.6423,-5.6394,-5.6964,-5.7303,-5.7503,-5.8332,-5.9273,-6.0236,-6.1819,-6.3749,-6.5076,-6.5586,-6.5732,-6.6143,-6.6396,-6.6669,-6.7093,-6.7292,-6.7797,-6.8765,-6.9382,-7.0021,-7.0556,-7.0983,-7.1345,-7.1345,-7.1668,-7.1985,-7.1985,-7.2416,-7.2671,-7.2671,-7.2671,-7.2671,-7.2671,-7.2671,-7.2671,-0.3887,-0.3998,-0.4131,-0.4232,-0.4169,-0.4074,-0.4395,-0.4988,-0.507,-0.5425,-0.5921,-0.5961,-0.5957,-0.5925,-0.5961,-0.6328,-0.6903,-0.7153,-0.7388,-0.7872,-0.7872,-0.7905,-0.797,-0.8024,-0.85,-0.9276,-0.9331,-0.9818,-1.0471,-1.0616,-1.0656,-1.0717,-1.0717,-1.1115,-1.1784,-1.2265,-1.3019,-1.4174,-1.4842,-1.574,-1.6661,-1.7275,-1.8132,-1.937,-1.9912,-2.0587,-2.171,-2.2256,-2.3166,-2.462,-2.5327,-2.6415,-2.7757,-2.8629,-2.9505,-3.0706,-3.1337,-3.2244,-3.3588,-3.5532,-3.7383,-3.9229,-4.1022,-4.2018,-4.2018,-4.3419,-4.4526,-4.5324,-4.6697,-4.7786,-4.8576,-4.9847,-5.0842,-5.1596,-5.2834,-5.3861,-5.458,-5.5613,-5.6423,-5.6394,-5.6964,-5.7448,-5.7797,-5.8654,-5.9747,-6.1014,-6.3122,-6.4925,-6.5777,-6.6016,-6.6238,-6.6554,-6.6586,-6.6796,-6.7317,-6.7388,-6.7899,-6.8797,-6.9382,-7.0154,-7.0857,-7.1253,-7.1424,-7.1785,-7.194,-7.2019,-7.1985,-7.2416,-7.2671,-7.2671,-7.2671,-7.2671,-7.2671,-7.2671,-7.2671,-0.3902,-0.4171,-0.4171,-0.4139,-0.4207,-0.4117,-0.4449,-0.5059,-0.4991,-0.5328,-0.5822,-0.5929,-0.5916,-0.5916,-0.5916,-0.6285,-0.6903,-0.7276,-0.7526,-0.791,-0.791,-0.7981,-0.8089,-0.8117,-0.862,-0.9441,-0.949,-0.9952,-1.0578,-1.0717,-1.0717,-1.0717,-1.0717,-1.1136,-1.1836,-1.2224,-1.2998,-1.4162,-1.4837,-1.5672,-1.6945,-1.7292,-1.8101,-1.939,-1.9541,-2.0355,-2.1873,-2.223,-2.3209,-2.5152,-2.5696,-2.672,-2.797,-2.9073,-2.997,-3.0953,-3.1588,-3.2715,-3.4394,-3.6739,-3.8655,-3.9674,-4.1004,-4.1877,-4.2159,-4.328,-4.4526,-4.5324,-4.6563,-4.763,-4.8576,-4.9719,-5.0715,-5.1596,-5.2711,-5.374,-5.458,-5.5613,-5.6308,-5.6394,-5.708,-5.7739,-5.8317,-5.9123,-6.0452,-6.2401,-6.4377,-6.5561,-6.5808,-6.6268,-6.6586,-6.6586,-6.6586,-6.6796,-6.7317,-6.7388,-6.7899,-6.8797,-6.958,-7.0258,-7.1125,-7.1354,-7.1559,-7.1954,-7.2008,-7.2053,-7.1985,-7.2331,-7.2671,-7.2671,-7.2671,-7.2671,-7.2671,-7.2671,-7.2671,-0.3497,-0.3768,-0.3902,-0.4003,-0.4218,-0.4202,-0.4553,-0.5137,-0.5063,-0.5408,-0.5906,-0.5953,-0.5921,-0.5916,-0.5916,-0.6285,-0.6908,-0.7526,-0.7948,-0.803,-0.8035,-0.81,-0.822,-0.8329,-0.8785,-0.9478,-0.9582,-1.0035,-1.0585,-1.0717,-1.0724,-1.0717,-1.0717,-1.1192,-1.1843,-1.2008,-1.271,-1.4128,-1.4562,-1.5542,-1.6975,-1.7177,-1.7851,-1.8982,-1.9413,-2.0075,-2.1205,-2.2137,-2.3262,-2.4747,-2.5894,-2.6939,-2.8015,-2.9439,-3.0502,-3.1003,-3.2335,-3.3918,-3.5888,-3.762,-3.8806,-3.9694,-4.0882,-4.1756,-4.2018,-4.3141,-4.425,-4.5187,-4.6429,-4.7497,-4.8445,-4.9615,-5.0614,-5.1471,-5.2615,-5.3498,-5.4488,-5.5407,-5.6077,-5.6394,-5.7513,-5.8232,-5.8608,-5.9885,-6.1749,-6.3403,-6.4703,-6.57,-6.57,-6.6268,-6.6586,-6.6586,-6.6586,-6.6796,-6.7181,-6.7388,-6.7931,-6.8863,-6.9747,-7.0527,-7.0964,-7.1472,-7.1917,-7.1819,-7.1804,-7.2019,-7.2072,-7.2331,-7.2671,-7.2671,-7.2671,-7.2671,-7.2671,-7.2671,-7.2671,-0.3096,-0.3497,-0.3497,-0.3622,-0.4001,-0.41,-0.4595,-0.5216,-0.5137,-0.5365,-0.5739,-0.5784,-0.5842,-0.5921,-0.5916,-0.6315,-0.6988,-0.7371,-0.7681,-0.7775,-0.7653,-0.7581,-0.7687,-0.7992,-0.8448,-0.891,-0.9232,-0.9655,-1.006,-1.0326,-1.0498,-1.0846,-1.0853,-1.1333,-1.2157,-1.2261,-1.2936,-1.4187,-1.4727,-1.5493,-1.6477,-1.6977,-1.7861,-1.8865,-1.9549,-2.045,-2.1852,-2.2832,-2.3839,-2.5285,-2.6459,-2.7509,-2.8435,-2.9888,-3.1022,-3.1745,-3.3289,-3.4847,-3.6201,-3.7677,-3.8865,-3.9714,-4.074,-4.1615,-4.2018,-4.3001,-4.4112,-4.5187,-4.6294,-4.7388,-4.8445,-4.9486,-5.0487,-5.1471,-5.2492,-5.3498,-5.4488,-5.5715,-5.6645,-5.7023,-5.8119,-5.9045,-5.9568,-6.1114,-6.269,-6.3932,-6.4936,-6.57,-6.57,-6.6268,-6.6586,-6.6586,-6.6586,-6.6796,-6.7317,-6.7388,-6.806,-6.9253,-7.0075,-7.0629,-7.1599,-7.1774,-7.1984,-7.1864,-7.194,-7.2019,-7.1985,-7.2331,-7.2671,-7.2671,-7.2671,-7.2671,-7.2671,-7.2671,-7.2671,-0.2692,-0.2959,-0.323,-0.3497,-0.3763,-0.4126,-0.4504,-0.5023,-0.5089,-0.5185,-0.5436,-0.5489,-0.5549,-0.5741,-0.5842,-0.6239,-0.6795,-0.7088,-0.7414,-0.7503,-0.7379,-0.7307,-0.7403,-0.7802,-0.8239,-0.8573,-0.8984,-0.9273,-0.9704,-1.0111,-1.0456,-1.071,-1.0873,-1.1488,-1.219,-1.247,-1.3099,-1.3999,-1.4699,-1.5328,-1.5904,-1.6945,-1.7955,-1.8964,-1.9685,-2.0781,-2.2557,-2.3339,-2.4302,-2.5772,-2.7042,-2.8097,-2.8633,-3.029,-3.1712,-3.2759,-3.4116,-3.5456,-3.6349,-3.7843,-3.8865,-3.9714,-4.074,-4.1452,-4.2018,-4.3001,-4.409,-4.5187,-4.6271,-4.7232,-4.8445,-4.9486,-5.0359,-5.1346,-5.2342,-5.3403,-5.4589,-5.5961,-5.6835,-5.7651,-5.8665,-5.9771,-6.0706,-6.1996,-6.3219,-6.3963,-6.4936,-6.57,-6.5808,-6.6161,-6.6586,-6.6586,-6.6586,-6.6796,-6.7317,-6.7644,-6.8447,-6.9512,-7.0404,-7.1127,-7.22,-7.1982,-7.1825,-7.1695,-7.1872,-7.2053,-7.2072,-7.2331,-7.2671,-7.2671,-7.2671,-7.2671,-7.2671,-7.2671,-7.2671,-0.229,-0.2423,-0.3365,-0.3768,-0.3765,-0.4166,-0.4434,-0.4824,-0.4766,-0.487,-0.5122,-0.5182,-0.5144,-0.5134,-0.5582,-0.5922,-0.6189,-0.6914,-0.7269,-0.7224,-0.7229,-0.7285,-0.7517,-0.7917,-0.8184,-0.8467,-0.8867,-0.9192,-0.9703,-1.0115,-1.0457,-1.0593,-1.1013,-1.165,-1.2344,-1.2522,-1.302,-1.3863,-1.4608,-1.5052,-1.5364,-1.6797,-1.8185,-1.9206,-1.9787,-2.0899,-2.2772,-2.3443,-2.4315,-2.5786,-2.7261,-2.8339,-2.8872,-3.0756,-3.2643,-3.4035,-3.4689,-3.5605,-3.6645,-3.7843,-3.8846,-3.9714,-4.0433,-4.131,-4.2018,-4.27,-4.3791,-4.5187,-4.6001,-4.7098,-4.8445,-4.9227,-5.0129,-5.1172,-5.1996,-5.3374,-5.4868,-5.5788,-5.6704,-5.7957,-5.918,-6.0351,-6.1704,-6.2525,-6.3279,-6.3963,-6.4936,-6.57,-6.5808,-6.6268,-6.6512,-6.6617,-6.6649,-6.6828,-6.7381,-6.7836,-6.8769,-6.9968,-7.0896,-7.1293,-7.1512,-7.1553,-7.1531,-7.1559,-7.1804,-7.2019,-7.2072,-7.2245,-7.2586,-7.2671,-7.2671,-7.2671,-7.2671,-7.2671,-7.2671,-0.1616,-0.229,-0.2828,-0.3098,-0.3096,-0.3499,-0.3768,-0.4168,-0.415,-0.4139,-0.4262,-0.4473,-0.4444,-0.418,-0.468,-0.5314,-0.6094,-0.6126,-0.6321,-0.6664,-0.6269,-0.6152,-0.6443,-0.6853,-0.7291,-0.7612,-0.8028,-0.8491,-0.9148,-0.9572,-1.0191,-1.0728,-1.0888,-1.1523,-1.2499,-1.2663,-1.3128,-1.3896,-1.4617,-1.5105,-1.5372,-1.6874,-1.8341,-1.9344,-2.0106,-2.1219,-2.3019,-2.3771,-2.4877,-2.608,-2.7703,-2.8699,-2.9425,-3.1237,-3.3062,-3.4273,-3.4724,-3.5605,-3.6664,-3.799,-3.8865,-3.9714,-4.0433,-4.1167,-4.1997,-4.27,-4.3653,-4.5051,-4.6001,-4.6965,-4.8313,-4.9227,-5.0128,-5.1459,-5.2549,-5.3788,-5.532,-5.647,-5.7566,-5.8817,-5.9932,-6.1051,-6.188,-6.2672,-6.3279,-6.3993,-6.4936,-6.5592,-6.5808,-6.6268,-6.6617,-6.6681,-6.6965,-6.7462,-6.7988,-6.8252,-6.8917,-7.0485,-7.1552,-7.1755,-7.1941,-7.1593,-7.1505,-7.1458,-7.1668,-7.1985,-7.2159,-7.2416,-7.2671,-7.2671,-7.2671,-7.2671,-7.2671,-7.2671,-7.2671,-0.1212,-0.2155,-0.2425,-0.2559,-0.2558,-0.2959,-0.3362,-0.3631,-0.3631,-0.3631,-0.3624,-0.3996,-0.3845,-0.3581,-0.3848,-0.4507,-0.5433,-0.5304,-0.5597,-0.6046,-0.5651,-0.5527,-0.5818,-0.6227,-0.6541,-0.7026,-0.7452,-0.806,-0.8713,-0.9142,-0.9771,-1.0599,-1.0754,-1.1511,-1.2595,-1.2753,-1.3205,-1.3977,-1.4711,-1.5237,-1.5695,-1.7088,-1.8414,-1.9435,-2.0307,-2.1538,-2.3024,-2.4153,-2.5283,-2.6397,-2.8104,-2.9529,-3.0662,-3.1847,-3.3196,-3.4423,-3.5007,-3.5754,-3.696,-3.8136,-3.9011,-3.9714,-4.0433,-4.1167,-4.1997,-4.27,-4.3791,-4.5028,-4.6001,-4.6989,-4.8509,-4.9346,-5.0276,-5.1666,-5.2896,-5.4252,-5.5698,-5.6858,-5.8183,-5.9415,-6.0514,-6.1375,-6.1998,-6.2672,-6.3279,-6.3849,-6.4936,-6.57,-6.5808,-6.6161,-6.6744,-6.6902,-6.7281,-6.8139,-6.8946,-6.9372,-6.9607,-7.0913,-7.1552,-7.1821,-7.1941,-7.1565,-7.1438,-7.1391,-7.1634,-7.1985,-7.2245,-7.2501,-7.2586,-7.2671,-7.2671,-7.2671,-7.2671,-7.2671,-7.2671,-0.0808,-0.2021,-0.2155,-0.2155,-0.2289,-0.2827,-0.3228,-0.3228,-0.3228,-0.3094,-0.3228,-0.3629,-0.349,-0.336,-0.349,-0.3763,-0.4037,-0.4574,-0.5114,-0.5393,-0.5255,-0.5295,-0.5491,-0.5765,-0.6218,-0.6717,-0.7422,-0.8033,-0.8409,-0.8844,-0.961,-1.0431,-1.0731,-1.1592,-1.2753,-1.2775,-1.3282,-1.4123,-1.5035,-1.543,-1.5762,-1.726,-1.8704,-1.9521,-2.0463,-2.1786,-2.3302,-2.4442,-2.5487,-2.6495,-2.849,-3.0526,-3.2032,-3.2588,-3.3348,-3.4707,-3.5306,-3.6201,-3.7255,-3.8428,-3.9156,-3.9714,-4.0453,-4.131,-4.1997,-4.27,-4.3814,-4.5051,-4.6071,-4.7155,-4.8925,-4.9785,-5.0519,-5.1407,-5.306,-5.4586,-5.5961,-5.691,-5.8007,-5.9721,-6.0802,-6.1433,-6.1998,-6.2672,-6.3279,-6.3963,-6.4936,-6.57,-6.5839,-6.6331,-6.6965,-6.7376,-6.785,-6.8635,-6.9626,-7.0631,-7.0817,-7.1113,-7.1287,-7.149,-7.1575,-7.1352,-7.1262,-7.1188,-7.1634,-7.1985,-7.2416,-7.2671,-7.2671,-7.2671,-7.2671,-7.2671,-7.2671,-7.2671,-7.2671,0.0135,-0.0673,-0.1077,-0.1616,-0.2155,-0.2423,-0.2558,-0.2558,-0.2558,-0.2558,-0.2558,-0.2828,-0.2963,-0.2961,-0.323,-0.3382,-0.3411,-0.3684,-0.4093,-0.4638,-0.4504,-0.4672,-0.514,-0.5292,-0.5607,-0.61,-0.6876,-0.7347,-0.7657,-0.838,-0.9269,-1.0017,-1.0455,-1.1462,-1.2768,-1.2865,-1.3398,-1.418,-1.5027,-1.5632,-1.5949,-1.7365,-1.8669,-1.9714,-2.0564,-2.1881,-2.3568,-2.456,-2.5609,-2.6584,-2.8639,-3.0557,-3.2201,-3.2892,-3.3651,-3.4857,-3.5306,-3.6052,-3.7255,-3.8428,-3.9281,-3.9714,-4.074,-4.1452,-4.2018,-4.2979,-4.3974,-4.5256,-4.6304,-4.7718,-4.9145,-5.0185,-5.1205,-5.2506,-5.3687,-5.5043,-5.6685,-5.8216,-5.9475,-6.0108,-6.0802,-6.1433,-6.1998,-6.2672,-6.3279,-6.3963,-6.4967,-6.57,-6.587,-6.6645,-6.7281,-6.7597,-6.84,-6.9237,-7.0244,-7.0824,-7.1035,-7.1141,-7.1221,-7.1161,-7.1242,-7.1177,-7.1084,-7.1278,-7.1722,-7.2072,-7.2501,-7.2671,-7.2671,-7.2671,-7.2671,-7.2671,-7.2671,-7.2671,-7.2671,0.1212,0.0808,0.0135,-0.0539,-0.1212,-0.1481,-0.1616,-0.1616,-0.175,-0.1886,-0.2155,-0.2425,-0.2567,-0.2577,-0.2984,-0.3008,-0.2904,-0.2907,-0.3192,-0.3755,-0.3742,-0.3906,-0.4377,-0.4826,-0.5137,-0.5607,-0.6383,-0.699,-0.7425,-0.815,-0.9018,-1.0023,-1.0311,-1.1352,-1.2698,-1.2947,-1.3482,-1.4359,-1.5223,-1.5826,-1.6277,-1.7529,-1.8792,-1.9833,-2.0687,-2.2186,-2.3858,-2.4796,-2.5922,-2.7058,-2.8724,-3.0682,-3.2419,-3.2892,-3.3651,-3.4857,-3.5605,-3.6367,-3.7402,-3.8574,-3.9425,-3.9858,-4.074,-4.1615,-4.2159,-4.3001,-4.4157,-4.5485,-4.6561,-4.8004,-4.9707,-5.0629,-5.1829,-5.3299,-5.4233,-5.5575,-5.7322,-5.9052,-6.0043,-6.0316,-6.0831,-6.1404,-6.1998,-6.2672,-6.3249,-6.3963,-6.4936,-6.5887,-6.6152,-6.6991,-6.7584,-6.8197,-6.8956,-6.9886,-7.0767,-7.1092,-7.1219,-7.1266,-7.139,-7.1192,-7.1098,-7.101,-7.1007,-7.1457,-7.1932,-7.2159,-7.2501,-7.2671,-7.2671,-7.2671,-7.2671,-7.2671,-7.2671,-7.2671,-7.2671,0.2291,0.2021,0.1212,0.0808,0.0539,-0.0135,-0.0539,-0.0673,-0.0943,-0.1346,-0.1885,-0.2024,-0.2173,-0.2195,-0.2474,-0.2497,-0.2244,-0.2248,-0.2546,-0.2842,-0.3117,-0.34,-0.3723,-0.4333,-0.4788,-0.5235,-0.597,-0.6845,-0.7715,-0.8005,-0.8879,-1.0191,-1.0492,-1.1411,-1.27,-1.3029,-1.3644,-1.4619,-1.5453,-1.6019,-1.633,-1.7711,-1.8946,-1.9887,-2.0984,-2.2365,-2.3884,-2.5344,-2.6539,-2.7537,-2.9314,-3.087,-3.2283,-3.2588,-3.35,-3.4839,-3.5754,-3.6664,-3.7549,-3.8846,-3.9714,-3.9858,-4.0882,-4.1615,-4.2138,-4.3163,-4.443,-4.5944,-4.6794,-4.8315,-5.0318,-5.1308,-5.2216,-5.3843,-5.4782,-5.6156,-5.7916,-5.9329,-6.0071,-6.0316,-6.0802,-6.1433,-6.1998,-6.2672,-6.3279,-6.3993,-6.5029,-6.6059,-6.6652,-6.7417,-6.831,-6.9019,-6.962,-7.033,-7.1151,-7.0844,-7.0984,-7.1206,-7.1292,-7.1087,-7.0897,-7.0934,-7.1188,-7.1634,-7.1985,-7.2245,-7.2501,-7.2586,-7.2671,-7.2671,-7.2671,-7.2671,-7.2671,-7.2671,-7.2671,0.2718,0.2155,0.1885,0.175,0.175,0.1481,0.0808,-0.0135,-0.0269,-0.0404,-0.0675,-0.1089,-0.137,-0.1376,-0.1669,-0.1968,-0.2131,-0.2279,-0.2294,-0.2464,-0.2459,-0.3179,-0.3769,-0.4073,-0.4517,-0.4956,-0.5686,-0.6261,-0.6841,-0.7729,-0.878,-1.017,-1.0608,-1.1557,-1.2882,-1.329,-1.3845,-1.4716,-1.5607,-1.6142,-1.6348,-1.7578,-1.8866,-2.0091,-2.1272,-2.2733,-2.4443,-2.6208,-2.782,-2.9219,-3.0068,-3.1209,-3.2435,-3.3044,-3.3785,-3.4654,-3.5885,-3.7126,-3.8194,-3.9176,-3.9858,-4.0166,-4.1167,-4.2018,-4.2441,-4.3419,-4.4912,-4.6311,-4.7373,-4.8534,-5.019,-5.1255,-5.2703,-5.4433,-5.5683,-5.6861,-5.8043,-5.9301,-6.0194,-6.0316,-6.0831,-6.1404,-6.1998,-6.2672,-6.3279,-6.4084,-6.5368,-6.6605,-6.7152,-6.8218,-6.9177,-6.9525,-7.0141,-7.0711,-7.1169,-7.0799,-7.0791,-7.1048,-7.1062,-7.0822,-7.0857,-7.0983,-7.1367,-7.181,-7.1898,-7.2159,-7.2501,-7.2671,-7.2671,-7.2671,-7.2671,-7.2671,-7.2671,-7.2671,-7.2671,0.3023,0.258,0.2445,0.2437,0.2425,0.229,0.1616,0.0674,0.0542,0.0543,0.0272,-0.0276,-0.0695,-0.07,-0.0846,-0.1425,-0.2163,-0.2021,-0.1884,-0.1894,-0.2186,-0.2622,-0.3207,-0.3644,-0.408,-0.4522,-0.5421,-0.6166,-0.6763,-0.7815,-0.8907,-0.9991,-1.0601,-1.1709,-1.3192,-1.3439,-1.3983,-1.4822,-1.5701,-1.6239,-1.6617,-1.7846,-1.9193,-2.0472,-2.1699,-2.3057,-2.5309,-2.6751,-2.8403,-2.9664,-3.0438,-3.1209,-3.2435,-3.3196,-3.3919,-3.4636,-3.6034,-3.7274,-3.836,-3.934,-3.9858,-4.0453,-4.131,-4.2138,-4.2764,-4.3852,-4.5322,-4.6797,-4.7842,-4.9125,-5.0645,-5.1778,-5.3351,-5.502,-5.6236,-5.7275,-5.8071,-5.9205,-5.9948,-6.0316,-6.0681,-6.1313,-6.1998,-6.2672,-6.3429,-6.4357,-6.5707,-6.682,-6.7745,-6.891,-6.9841,-7.0125,-7.0394,-7.0902,-7.0977,-7.0684,-7.0542,-7.0823,-7.0927,-7.0676,-7.0943,-7.1098,-7.1457,-7.181,-7.1898,-7.2072,-7.2416,-7.2671,-7.2671,-7.2671,-7.2671,-7.2671,-7.2671,-7.2671,-7.2671,0.3484,0.3304,0.303,0.2736,0.2575,0.23,0.1899,0.1492,0.1371,0.124,0.1105,0.0559,0.0141,-0.0,-0.0,-0.0866,-0.2188,-0.1749,-0.1458,-0.1606,-0.1896,-0.2478,-0.2624,-0.3209,-0.3796,-0.4246,-0.5468,-0.6234,-0.6997,-0.7959,-0.906,-1.0127,-1.0733,-1.1861,-1.3181,-1.3528,-1.406,-1.5081,-1.5923,-1.6635,-1.7371,-1.8513,-1.974,-2.1045,-2.238,-2.3842,-2.5793,-2.7162,-2.8417,-2.9974,-3.0129,-3.1055,-3.2435,-3.3044,-3.3785,-3.4804,-3.6052,-3.744,-3.8526,-3.934,-3.9858,-4.0453,-4.1452,-4.2202,-4.2873,-4.414,-4.5685,-4.7586,-4.8357,-4.9578,-5.1223,-5.2779,-5.4055,-5.518,-5.6105,-5.7017,-5.8071,-5.908,-5.9825,-6.0194,-6.0438,-6.1164,-6.188,-6.2615,-6.3374,-6.4805,-6.6251,-6.7492,-6.8419,-6.9493,-7.0188,-7.0568,-7.0743,-7.0886,-7.0709,-7.0396,-7.0429,-7.0531,-7.0656,-7.059,-7.1084,-7.1312,-7.1546,-7.181,-7.1898,-7.2245,-7.2586,-7.2671,-7.2671,-7.2671,-7.2671,-7.2671,-7.2671,-7.2671,-7.2671,0.3954,0.3351,0.3351,0.2929,0.2365,0.2226,0.2086,0.1947,0.1953,0.1956,0.1962,0.1842,0.1142,-0.0,-0.0,-0.0874,-0.2043,-0.2043,-0.1752,-0.1314,-0.1898,-0.2334,-0.248,-0.3063,-0.3665,-0.4278,-0.5336,-0.6266,-0.6915,-0.7995,-0.9106,-1.0241,-1.0872,-1.1854,-1.3348,-1.3662,-1.4306,-1.53,-1.619,-1.6906,-1.7785,-1.9023,-2.0294,-2.1626,-2.3282,-2.5028,-2.6201,-2.7162,-2.8417,-2.9664,-3.0129,-3.0901,-3.2283,-3.3196,-3.4105,-3.5174,-3.6516,-3.7754,-3.8983,-3.9505,-4.0002,-4.074,-4.1452,-4.245,-4.3545,-4.448,-4.612,-4.7912,-4.8733,-4.9745,-5.1534,-5.3204,-5.4293,-5.4939,-5.5842,-5.6888,-5.7816,-5.8704,-5.9454,-6.0071,-6.0438,-6.1044,-6.1998,-6.2381,-6.3378,-6.5132,-6.6632,-6.8052,-6.9095,-6.9965,-7.0361,-7.0789,-7.0869,-7.0886,-7.0703,-7.0257,-7.022,-7.0338,-7.042,-7.0733,-7.1098,-7.1312,-7.158,-7.1722,-7.1985,-7.2245,-7.2586,-7.2671,-7.2671,-7.2671,-7.2671,-7.2671,-7.2671,-7.2671,-7.2671,0.4295,0.3824,0.3539,0.3104,0.2526,0.2245,0.2245,0.2249,0.2262,0.2267,0.2273,0.2011,0.1444,0.1012,0.0291,-0.0584,-0.1314,-0.2043,-0.1898,-0.146,-0.1898,-0.2334,-0.248,-0.3063,-0.3663,-0.4128,-0.5336,-0.6113,-0.6601,-0.7733,-0.9173,-1.0145,-1.0815,-1.2106,-1.3421,-1.3752,-1.44,-1.5562,-1.6277,-1.7024,-1.8327,-1.9243,-2.0697,-2.2157,-2.3927,-2.5435,-2.607,-2.7004,-2.8261,-2.9523,-2.9974,-3.0901,-3.2435,-3.3348,-3.4441,-3.5677,-3.6701,-3.8067,-3.9294,-3.967,-4.0002,-4.0882,-4.1594,-4.2578,-4.3796,-4.4887,-4.6512,-4.831,-4.9275,-5.0101,-5.1632,-5.3417,-5.4344,-5.4913,-5.571,-5.6758,-5.7816,-5.8578,-5.9329,-5.9948,-6.0287,-6.1247,-6.1906,-6.2499,-6.4093,-6.5955,-6.7384,-6.8776,-6.9534,-7.0312,-7.0487,-7.0789,-7.0789,-7.0696,-7.0588,-7.0325,-6.9971,-7.0107,-7.0282,-7.0733,-7.1131,-7.1312,-7.1491,-7.1722,-7.1985,-7.2245,-7.2501,-7.2586,-7.2671,-7.2671,-7.2671,-7.2671,-7.2671,-7.2671,-7.2671,0.464,0.4318,0.3734,0.328,0.283,0.2404,0.2263,0.2264,0.2285,0.2297,0.2157,0.1599,0.1456,0.1459,0.0584,-0.0,-0.0,-0.1606,-0.1898,-0.1606,-0.2042,-0.2333,-0.2478,-0.3063,-0.351,-0.3661,-0.5173,-0.5951,-0.6469,-0.7764,-0.9076,-0.9883,-1.0886,-1.2198,-1.3465,-1.3789,-1.4493,-1.5895,-1.6451,-1.752,-1.8896,-1.9644,-2.075,-2.2487,-2.4148,-2.5276,-2.5898,-2.7004,-2.8261,-2.9368,-2.9989,-3.1055,-3.2283,-3.3348,-3.4423,-3.6012,-3.6849,-3.8047,-3.9275,-3.9795,-4.0002,-4.0882,-4.1594,-4.2741,-4.4069,-4.5483,-4.6973,-4.8497,-4.9795,-5.0765,-5.182,-5.3229,-5.4319,-5.4913,-5.5578,-5.6628,-5.7816,-5.8451,-5.908,-5.9948,-6.0467,-6.1218,-6.2438,-6.3239,-6.5049,-6.6772,-6.8095,-6.9183,-7.0023,-7.0532,-7.0789,-7.0789,-7.0789,-7.0379,-7.016,-6.995,-6.9714,-6.9907,-7.0143,-7.0641,-7.1131,-7.1312,-7.1491,-7.181,-7.2072,-7.2331,-7.2501,-7.2671,-7.2671,-7.2671,-7.2671,-7.2671,-7.2671,-7.2671,-7.2671,0.4397,0.3988,0.3652,0.3066,0.2496,0.2328,0.2315,0.2319,0.232,0.2326,0.2183,0.1605,0.1022,-0.0,-0.0,-0.0,-0.0,-0.146,-0.2189,-0.2043,-0.2188,-0.2333,-0.2478,-0.307,-0.3522,-0.3992,-0.5206,-0.6002,-0.6543,-0.7842,-0.9121,-0.997,-1.0952,-1.2251,-1.344,-1.4102,-1.4806,-1.6406,-1.6836,-1.7938,-1.9183,-2.0128,-2.0867,-2.2567,-2.4172,-2.5276,-2.5898,-2.6847,-2.8104,-2.9368,-3.0299,-3.1363,-3.2435,-3.3348,-3.4423,-3.5623,-3.6831,-3.8028,-3.9195,-3.961,-4.031,-4.1188,-4.1778,-4.3034,-4.4617,-4.5849,-4.7321,-4.9062,-5.0551,-5.1541,-5.182,-5.3204,-5.4132,-5.4779,-5.5578,-5.6655,-5.756,-5.8198,-5.8927,-5.9948,-6.0495,-6.1212,-6.2702,-6.407,-6.5736,-6.7286,-6.8736,-6.9671,-7.0406,-7.0676,-7.0789,-7.0789,-7.0789,-7.0267,-6.9745,-6.9399,-6.9255,-6.9676,-7.0049,-7.0549,-7.0916,-7.1222,-7.1491,-7.181,-7.2072,-7.2245,-7.2416,-7.2671,-7.2671,-7.2671,-7.2671,-7.2671,-7.2671,-7.2671,-7.2671,0.4417,0.4273,0.3535,0.2944,0.2352,0.2339,0.2333,0.2333,0.2333,0.2334,0.2189,0.1898,0.1022,-0.0,-0.0,-0.0,-0.0,-0.1168,-0.1898,-0.2189,-0.2334,-0.2333,-0.2338,-0.3082,-0.3545,-0.4015,-0.5236,-0.6033,-0.626,-0.7829,-0.8987,-1.0008,-1.1017,-1.2377,-1.3756,-1.4109,-1.5154,-1.6595,-1.7342,-1.8248,-1.9796,-2.0737,-2.19,-2.2717,-2.4172,-2.5289,-2.5898,-2.7004,-2.8261,-2.9368,-3.0299,-3.1517,-3.274,-3.3651,-3.4707,-3.5754,-3.6812,-3.799,-3.9136,-3.9714,-4.0289,-4.1372,-4.2089,-4.3249,-4.4981,-4.6404,-4.7859,-4.97,-5.0954,-5.1796,-5.2074,-5.3316,-5.4267,-5.5046,-5.5842,-5.6758,-5.7688,-5.8325,-5.9205,-6.0128,-6.0933,-6.1948,-6.3381,-6.4905,-6.6456,-6.7917,-6.9317,-7.0047,-7.0676,-7.0789,-7.0757,-7.0584,-7.0426,-6.9804,-6.934,-6.9108,-6.8994,-6.9349,-6.9955,-7.0423,-7.0825,-7.1131,-7.1491,-7.1898,-7.2072,-7.2159,-7.2416,-7.2671,-7.2671,-7.2671,-7.2671,-7.2671,-7.2671,-7.2671,-7.2671,0.4285,0.4399,0.3405,0.2661,0.2343,0.2335,0.2333,0.2333,0.2333,0.2188,0.2043,0.2189,0.146,-0.0,-0.0,-0.0,-0.0438,-0.1168,-0.1606,-0.2189,-0.2334,-0.2334,-0.2496,-0.3106,-0.3586,-0.394,-0.5319,-0.6097,-0.6437,-0.7864,-0.9186,-1.0101,-1.116,-1.2529,-1.3924,-1.4281,-1.5514,-1.6742,-1.7602,-1.8503,-2.0079,-2.1588,-2.2728,-2.2889,-2.4332,-2.5289,-2.5898,-2.7162,-2.8275,-2.9523,-3.0593,-3.167,-3.3044,-3.4105,-3.5007,-3.6201,-3.7107,-3.8263,-3.9281,-3.9858,-4.0433,-4.1615,-4.2322,-4.363,-4.5279,-4.6939,-4.8777,-5.0458,-5.1401,-5.1935,-5.2327,-5.3427,-5.4537,-5.5472,-5.6263,-5.7044,-5.7944,-5.8704,-5.9329,-6.0299,-6.125,-6.2477,-6.4006,-6.5473,-6.6995,-6.8188,-6.9588,-7.0047,-7.0676,-7.0789,-7.0662,-7.0299,-6.9981,-6.9275,-6.8869,-6.8812,-6.8797,-6.9123,-6.9765,-7.0456,-7.0767,-7.1131,-7.1491,-7.1898,-7.1985,-7.2159,-7.2416,-7.2671,-7.2671,-7.2671,-7.2671,-7.2671,-7.2671,-7.2671,-7.2671,0.4307,0.371,0.3269,0.2673,0.2367,0.2343,0.2333,0.2333,0.2333,0.1896,0.146,0.1898,0.1314,-0.0,-0.0,-0.0,-0.146,-0.146,-0.1751,-0.2188,-0.2337,-0.2349,-0.2517,-0.3265,-0.3645,-0.4017,-0.545,-0.6091,-0.6729,-0.7994,-0.9336,-1.0445,-1.1468,-1.2681,-1.4268,-1.4607,-1.5512,-1.713,-1.7801,-1.8789,-2.0455,-2.1922,-2.2728,-2.3371,-2.4332,-2.5448,-2.6386,-2.749,-2.8588,-2.9679,-3.1071,-3.2283,-3.3196,-3.4255,-3.5456,-3.6497,-3.753,-3.8409,-3.957,-4.0002,-4.0596,-4.1678,-4.2771,-4.408,-4.5886,-4.7832,-4.9534,-5.0506,-5.1401,-5.1935,-5.2604,-5.3563,-5.4645,-5.5578,-5.6524,-5.7303,-5.8198,-5.9108,-5.9702,-6.0774,-6.1784,-6.3134,-6.4634,-6.5981,-6.7356,-6.8667,-6.9703,-7.0192,-7.0532,-7.0676,-7.0315,-6.9856,-6.9632,-6.8989,-6.8516,-6.8456,-6.873,-6.8928,-6.9637,-7.0363,-7.0675,-7.1041,-7.1491,-7.181,-7.1898,-7.2159,-7.2501,-7.2671,-7.2671,-7.2671,-7.2671,-7.2671,-7.2671,-7.2671,-7.2671,0.3994,0.3533,0.2963,0.2516,0.2352,0.2338,0.2333,0.2333,0.2334,0.1898,0.1168,0.1022,0.0584,-0.0,-0.0,-0.0,-0.1898,-0.1898,-0.1896,-0.2194,-0.235,-0.2367,-0.2687,-0.3188,-0.3729,-0.4236,-0.541,-0.6595,-0.724,-0.8189,-0.9517,-1.0768,-1.1788,-1.299,-1.4579,-1.5108,-1.6131,-1.7337,-1.8491,-1.9805,-2.0941,-2.1922,-2.2728,-2.3211,-2.4492,-2.5594,-2.6702,-2.7647,-2.89,-3.0144,-3.1379,-3.2588,-3.3802,-3.4857,-3.5903,-3.7107,-3.8117,-3.8991,-3.957,-4.0022,-4.0882,-4.1925,-4.3107,-4.487,-4.6978,-4.8608,-4.9938,-5.0954,-5.1541,-5.2074,-5.2879,-5.3835,-5.4779,-5.5868,-5.6785,-5.7431,-5.8325,-5.9329,-6.0214,-6.125,-6.2412,-6.3793,-6.5082,-6.6552,-6.781,-6.8876,-6.9703,-7.0161,-7.0532,-7.0789,-7.0094,-6.9177,-6.8984,-6.8829,-6.8388,-6.8028,-6.8566,-6.8961,-6.967,-7.027,-7.0582,-7.095,-7.1457,-7.1722,-7.1898,-7.2245,-7.2586,-7.2671,-7.2671,-7.2671,-7.2671,-7.2671,-7.2671,-7.2671,-7.2671,0.3822,0.336,0.2661,0.2361,0.2334,0.2333,0.2333,0.2333,0.2335,0.2043,0.1314,-0.0,-0.0,-0.0,-0.0,-0.073,-0.1898,-0.2189,-0.2341,-0.2352,-0.2373,-0.2399,-0.2741,-0.3267,-0.3794,-0.3976,-0.5662,-0.6714,-0.7741,-0.8725,-1.0024,-1.1253,-1.208,-1.3281,-1.4511,-1.553,-1.6534,-1.801,-1.9153,-2.0292,-2.1438,-2.2245,-2.2878,-2.368,-2.4639,-2.5911,-2.7004,-2.8118,-2.9368,-3.0608,-3.184,-3.3044,-3.4255,-3.5157,-3.6201,-3.7255,-3.8428,-3.9156,-3.9714,-4.0146,-4.1025,-4.2152,-4.3872,-4.5877,-4.8344,-4.9509,-5.008,-5.1071,-5.1516,-5.2352,-5.3316,-5.4106,-5.5046,-5.6105,-5.7044,-5.7688,-5.8325,-5.9329,-6.0299,-6.1365,-6.2558,-6.4301,-6.5651,-6.7095,-6.8295,-6.9209,-6.9818,-7.0161,-7.0356,-7.0694,-6.9904,-6.8956,-6.8464,-6.8373,-6.8028,-6.7829,-6.8301,-6.8863,-6.967,-7.0209,-7.0616,-7.095,-7.1401,-7.1668,-7.1898,-7.2159,-7.2416,-7.2586,-7.2671,-7.2671,-7.2671,-7.2671,-7.2671,-7.2671,-7.2671,0.3648,0.3066,0.2661,0.236,0.2333,0.2333,0.2333,0.2333,0.2189,0.2189,0.1752,-0.0,-0.0,-0.0,-0.0,-0.0438,-0.1314,-0.2043,-0.2207,-0.2379,-0.2408,-0.2451,-0.2805,-0.3331,-0.4035,-0.4422,-0.5775,-0.6973,-0.8027,-0.9179,-1.0356,-1.1386,-1.2516,-1.3535,-1.4713,-1.5875,-1.7355,-1.8664,-1.9805,-2.0617,-2.1599,-2.2406,-2.3199,-2.4308,-2.5263,-2.6215,-2.7476,-2.8744,-2.9834,-3.0901,-3.2283,-3.3348,-3.4406,-3.5605,-3.6516,-3.7402,-3.8574,-3.9281,-3.9714,-4.0453,-4.1188,-4.2557,-4.4441,-4.6848,-4.9081,-4.9795,-5.0388,-5.1071,-5.1656,-5.2352,-5.3291,-5.435,-5.5313,-5.6105,-5.7174,-5.7816,-5.8578,-5.9426,-6.0479,-6.1299,-6.2674,-6.4449,-6.5981,-6.7396,-6.8444,-6.9472,-6.9933,-7.0275,-7.0312,-7.0378,-6.9651,-6.8829,-6.8103,-6.7822,-6.7572,-6.7695,-6.8068,-6.8765,-6.9478,-7.0115,-7.0683,-7.1017,-7.1401,-7.1634,-7.1898,-7.2072,-7.2331,-7.2501,-7.2671,-7.2671,-7.2671,-7.2671,-7.2671,-7.2671,-7.2671,0.4371,0.3939,0.3079,0.249,0.2333,0.2333,0.2333,0.2187,0.1752,0.1314,-0.0,-0.0,-0.0,-0.0,-0.0,-0.0438,-0.1169,-0.2061,-0.223,-0.2416,-0.2455,-0.2656,-0.3022,-0.3557,-0.4267,-0.4967,-0.6158,-0.7187,-0.8215,-0.9564,-1.0904,-1.1902,-1.3065,-1.3887,-1.4878,-1.6361,-1.8001,-1.9316,-2.013,-2.0952,-2.1761,-2.2567,-2.352,-2.4455,-2.5581,-2.6702,-2.7961,-2.89,-3.0144,-3.1363,-3.2588,-3.3651,-3.4707,-3.5903,-3.6812,-3.7549,-3.872,-3.9425,-3.9858,-4.0638,-4.1662,-4.3565,-4.5288,-4.7133,-4.9224,-4.9938,-5.0672,-5.1236,-5.1935,-5.2466,-5.3725,-5.4645,-5.5578,-5.6236,-5.7044,-5.7944,-5.8704,-5.955,-6.0708,-6.1518,-6.3029,-6.4718,-6.6252,-6.7547,-6.8562,-6.9557,-7.0047,-7.0469,-7.0329,-7.003,-6.9304,-6.8608,-6.7881,-6.7525,-6.7445,-6.7625,-6.7797,-6.8567,-6.9382,-6.9988,-7.0556,-7.1017,-7.1401,-7.1546,-7.181,-7.2072,-7.2245,-7.2501,-7.2671,-7.2671,-7.2671,-7.2671,-7.2671,-7.2671,-7.2671,0.481,0.4665,0.3644,0.2917,0.2478,0.2333,0.2333,0.2188,0.1606,0.073,-0.0,-0.0,-0.0,-0.0,-0.0,-0.0,-0.1173,-0.1929,-0.2257,-0.2453,-0.2503,-0.2871,-0.3241,-0.3777,-0.4487,-0.5333,-0.6189,-0.7227,-0.839,-0.9564,-1.107,-1.2401,-1.3721,-1.4383,-1.5373,-1.7018,-1.8827,-1.9805,-2.0455,-2.1114,-2.2084,-2.2889,-2.3692,-2.4627,-2.5898,-2.7018,-2.8118,-2.9212,-3.0454,-3.167,-3.2892,-3.3954,-3.5007,-3.6201,-3.7107,-3.7843,-3.87,-3.9714,-4.0002,-4.0801,-4.228,-4.442,-4.5759,-4.7509,-4.9037,-4.9961,-5.0813,-5.1681,-5.2074,-5.2742,-5.3861,-5.4939,-5.571,-5.6394,-5.7431,-5.8198,-5.8704,-5.9482,-6.0745,-6.1862,-6.3386,-6.487,-6.6643,-6.7968,-6.9062,-6.9933,-7.0275,-7.0424,-6.9982,-6.9651,-6.8988,-6.8292,-6.7597,-6.7441,-6.7413,-6.7555,-6.7797,-6.86,-6.9382,-6.986,-7.0363,-7.0916,-7.1312,-7.1457,-7.1722,-7.1985,-7.2245,-7.2416,-7.2586,-7.2671,-7.2671,-7.2671,-7.2671,-7.2671,-7.2671,0.4956,0.4665,0.4226,0.3644,0.3063,0.2478,0.2334,0.2189,0.146,0.073,-0.0,-0.0,-0.0,-0.0,-0.0,-0.0,-0.1181,-0.2101,-0.2444,-0.2492,-0.2556,-0.2935,-0.33,-0.3836,-0.4523,-0.5376,-0.6392,-0.7562,-0.8725,-1.0065,-1.1403,-1.2899,-1.4217,-1.5208,-1.5546,-1.7527,-1.9163,-1.9967,-2.0455,-2.1438,-2.2245,-2.305,-2.4,-2.4958,-2.6373,-2.749,-2.8431,-2.9353,-3.0593,-3.1993,-3.3196,-3.4105,-3.5007,-3.6516,-3.7402,-3.7824,-3.8991,-3.9858,-4.031,-4.1452,-4.2956,-4.4838,-4.6178,-4.7697,-4.925,-5.0246,-5.0978,-5.1681,-5.2213,-5.2879,-5.3835,-5.4939,-5.5868,-5.6655,-5.7688,-5.8325,-5.8829,-5.968,-6.0916,-6.213,-6.3386,-6.484,-6.6794,-6.8386,-6.9441,-7.0161,-7.0532,-7.0441,-6.9904,-6.9304,-6.8703,-6.8039,-6.7376,-6.7314,-6.7245,-6.7317,-6.7695,-6.86,-6.9285,-6.9765,-7.0236,-7.0733,-7.1098,-7.1278,-7.1634,-7.1985,-7.2159,-7.2331,-7.2501,-7.2671,-7.2671,-7.2671,-7.2671,-7.2671,-7.2671,0.5829,0.4959,0.4665,0.4083,0.3354,0.2917,0.248,0.2043,0.1022,-0.0,-0.0,-0.0,-0.0,-0.0,-0.0,-0.0442,-0.1348,-0.2128,-0.248,-0.2557,-0.2609,-0.3139,-0.3673,-0.4023,-0.4875,-0.6053,-0.6892,-0.7729,-0.8896,-1.0398,-1.1742,-1.3238,-1.5051,-1.6205,-1.7026,-1.8346,-1.9479,-2.013,-2.0941,-2.1922,-2.2567,-2.352,-2.432,-2.513,-2.6531,-2.779,-2.8588,-2.9664,-3.0747,-3.213,-3.3348,-3.4105,-3.5157,-3.6516,-3.7402,-3.797,-3.8846,-4.0289,-4.1251,-4.2415,-4.3457,-4.5123,-4.6592,-4.8001,-4.9391,-5.0246,-5.0978,-5.1681,-5.2352,-5.3154,-5.4241,-5.5313,-5.6105,-5.6915,-5.7688,-5.8325,-5.8913,-6.0059,-6.1375,-6.2534,-6.3713,-6.5741,-6.7725,-6.8679,-6.9756,-7.0262,-7.0456,-7.022,-6.9746,-6.9146,-6.8513,-6.7818,-6.7293,-6.7155,-6.7213,-6.7285,-6.7797,-6.8699,-6.9285,-6.9765,-7.0143,-7.0641,-7.1007,-7.1312,-7.1634,-7.1985,-7.2245,-7.2416,-7.2586,-7.2671,-7.2671,-7.2671,-7.2671,-7.2671,-7.2671,0.6555,0.5829,0.5101,0.4374,0.3646,0.3063,0.248,0.1752,-0.0,-0.0,-0.0,-0.0,-0.0,-0.0,-0.0,-0.0,-0.1365,-0.2171,-0.2523,-0.2604,-0.2811,-0.3336,-0.3858,-0.4372,-0.5382,-0.656,-0.7394,-0.8232,-0.9235,-1.0737,-1.2401,-1.4225,-1.604,-1.7026,-1.801,-1.899,-1.9805,-2.0455,-2.1276,-2.2073,-2.2878,-2.368,-2.4798,-2.5594,-2.6702,-2.8118,-2.9042,-2.9974,-3.0901,-3.2283,-3.3348,-3.4105,-3.5157,-3.6349,-3.7402,-3.799,-3.8991,-4.0576,-4.182,-4.2964,-4.4068,-4.5399,-4.6894,-4.8233,-4.9391,-5.0246,-5.0978,-5.1656,-5.2491,-5.3427,-5.435,-5.5445,-5.6367,-5.7174,-5.7816,-5.8325,-5.922,-6.0489,-6.1557,-6.2745,-6.4282,-6.6372,-6.8352,-6.9054,-6.9953,-7.0136,-7.0346,-6.9904,-6.943,-6.8829,-6.8197,-6.7502,-6.7134,-6.706,-6.7109,-6.7285,-6.8,-6.8896,-6.9285,-6.9574,-7.0143,-7.0608,-7.0916,-7.1312,-7.1634,-7.1985,-7.2245,-7.2501,-7.2586,-7.2671,-7.2671,-7.2671,-7.2671,-7.2671,-7.2671,0.699,0.6845,0.5683,0.481,0.408,0.3209,0.2188,0.1168,0.0292,-0.0,-0.0,-0.0,-0.0,-0.0,-0.0,-0.0,-0.1376,-0.2206,-0.2574,-0.278,-0.2997,-0.3521,-0.4201,-0.4878,-0.5717,-0.6724,-0.7562,-0.8566,-0.9569,-1.1065,-1.3058,-1.4886,-1.6534,-1.7519,-1.85,-1.9316,-1.9967,-2.0627,-2.1438,-2.2245,-2.2878,-2.3988,-2.4945,-2.5898,-2.7004,-2.8275,-2.9056,-2.9989,-3.1055,-3.2283,-3.3348,-3.4105,-3.5157,-3.6516,-3.7402,-3.8263,-3.957,-4.0576,-4.2004,-4.3236,-4.4529,-4.5774,-4.7413,-4.8588,-4.9487,-5.0246,-5.1095,-5.1796,-5.2466,-5.3427,-5.4485,-5.5578,-5.6524,-5.7303,-5.7944,-5.8633,-5.9595,-6.0641,-6.1767,-6.308,-6.4617,-6.6553,-6.847,-6.941,-6.9797,-6.9839,-6.9809,-6.9272,-6.8766,-6.8292,-6.766,-6.706,-6.6818,-6.686,-6.7109,-6.7317,-6.7797,-6.86,-6.8994,-6.9382,-6.9955,-7.0515,-7.0825,-7.1188,-7.1634,-7.2072,-7.2416,-7.2586,-7.2671,-7.2671,-7.2671,-7.2671,-7.2671,-7.2671,-7.2671,0.7425,0.6845,0.5974,0.5098,0.3935,0.2917,0.2043,0.1168,-0.0,-0.0,-0.0,-0.0,-0.0,-0.0,-0.0,-0.0,-0.1405,-0.2078,-0.2617,-0.2823,-0.3184,-0.3696,-0.4206,-0.5046,-0.5888,-0.6892,-0.7897,-0.8901,-0.9903,-1.1397,-1.3224,-1.4878,-1.6534,-1.7519,-1.85,-1.9307,-2.013,-2.079,-2.1761,-2.2406,-2.3211,-2.416,-2.5276,-2.6228,-2.7004,-2.8275,-2.9212,-2.9834,-3.0901,-3.2435,-3.3044,-3.3802,-3.5007,-3.6201,-3.7402,-3.8991,-3.9858,-4.0453,-4.1862,-4.3565,-4.4826,-4.6172,-4.7882,-4.8941,-4.9771,-5.0364,-5.1236,-5.1935,-5.2742,-5.37,-5.4645,-5.571,-5.6758,-5.756,-5.8198,-5.8732,-5.968,-6.0926,-6.2208,-6.3895,-6.531,-6.7095,-6.8858,-6.9317,-6.964,-6.9556,-6.9209,-6.864,-6.8166,-6.7692,-6.7344,-6.6775,-6.6617,-6.6796,-6.7005,-6.7213,-6.7695,-6.8301,-6.8699,-6.9285,-6.9988,-7.0456,-7.0825,-7.1188,-7.1722,-7.2159,-7.2586,-7.2671,-7.2671,-7.2671,-7.2671,-7.2671,-7.2671,-7.2671,-7.2671,0.786,0.728,0.6261,0.5098,0.3794,0.2787,0.1908,0.1168,0.0292,-0.0,-0.0,-0.0,-0.0,-0.0,-0.0,-0.0464,-0.1267,-0.2269,-0.2811,-0.3178,-0.3365,-0.4038,-0.471,-0.5382,-0.6224,-0.7227,-0.8232,-0.9068,-1.007,-1.173,-1.3721,-1.5051,-1.6534,-1.7519,-1.8337,-1.9479,-2.0292,-2.1114,-2.1922,-2.2728,-2.3692,-2.4492,-2.5594,-2.6544,-2.7319,-2.8275,-2.9368,-2.9834,-3.0901,-3.2283,-3.274,-3.3802,-3.5007,-3.6349,-3.7824,-3.9281,-3.9714,-4.0576,-4.1841,-4.337,-4.4826,-4.6411,-4.8024,-4.9179,-4.9866,-5.0648,-5.1376,-5.205,-5.2879,-5.3835,-5.4779,-5.5842,-5.6888,-5.8043,-5.8325,-5.8704,-5.9865,-6.1269,-6.2832,-6.4676,-6.6311,-6.7966,-6.8945,-6.9224,-6.939,-6.9083,-6.8608,-6.7945,-6.7534,-6.7186,-6.6997,-6.6681,-6.6617,-6.6723,-6.6901,-6.7213,-6.7695,-6.8201,-6.8699,-6.9285,-6.9988,-7.0456,-7.0825,-7.1278,-7.1844,-7.2245,-7.2586,-7.2671,-7.2671,-7.2671,-7.2671,-7.2671,-7.2671,-7.2671,-7.2671,0.8155,0.786,0.641,0.481,0.3506,0.2658,0.1917,0.1169,0.0292,-0.0,-0.0,-0.0,-0.0,-0.0,-0.0,-0.0,-0.1282,-0.2296,-0.2997,-0.3365,-0.37,-0.4372,-0.5214,-0.6224,-0.6727,-0.7562,-0.8566,-0.9569,-1.0237,-1.1896,-1.3887,-1.5381,-1.6369,-1.7355,-1.85,-1.9479,-2.0455,-2.1438,-2.2245,-2.305,-2.384,-2.4798,-2.5753,-2.6847,-2.7476,-2.8118,-2.9212,-2.9989,-3.0763,-3.1824,-3.274,-3.3651,-3.5157,-3.6516,-3.8117,-3.9136,-3.957,-4.0576,-4.1841,-4.3262,-4.4627,-4.6207,-4.7888,-4.9062,-4.9912,-5.0906,-5.1656,-5.2327,-5.3154,-5.4106,-5.518,-5.6105,-5.7146,-5.7944,-5.8451,-5.8955,-5.9957,-6.1681,-6.3742,-6.5433,-6.6944,-6.8505,-6.89,-6.9257,-6.9001,-6.8689,-6.8166,-6.7502,-6.706,-6.6775,-6.6712,-6.6617,-6.6617,-6.6723,-6.6901,-6.7213,-6.7491,-6.8,-6.86,-6.9221,-6.9893,-7.0456,-7.0882,-7.1457,-7.1898,-7.2245,-7.2501,-7.2586,-7.2671,-7.2671,-7.2671,-7.2671,-7.2671,-7.2671,-7.2671,0.8155,0.786,0.5829,0.4374,0.3506,0.2662,0.192,0.1169,0.0295,-0.0,-0.0,-0.0,-0.0,-0.0,-0.0,-0.0476,-0.1298,-0.2482,-0.3017,-0.3532,-0.3868,-0.471,-0.5384,-0.6392,-0.7059,-0.7729,-0.8733,-1.007,-1.1237,-1.2561,-1.3721,-1.4886,-1.6205,-1.7519,-1.8337,-1.9316,-2.0455,-2.1599,-2.2406,-2.3199,-2.432,-2.4958,-2.5753,-2.6847,-2.779,-2.8261,-2.9212,-2.9989,-3.0763,-3.184,-3.2435,-3.3651,-3.5306,-3.6664,-3.799,-3.9011,-3.957,-4.0576,-4.182,-4.323,-4.4568,-4.6052,-4.7679,-4.8873,-5.0002,-5.1041,-5.1911,-5.2579,-5.3427,-5.4511,-5.5472,-5.6394,-5.7174,-5.7816,-5.8479,-5.9329,-6.0222,-6.2354,-6.4563,-6.6099,-6.7668,-6.8378,-6.8851,-6.8808,-6.8579,-6.8264,-6.7976,-6.7407,-6.6965,-6.6649,-6.6681,-6.6617,-6.6617,-6.6691,-6.6796,-6.7109,-6.7491,-6.7899,-6.8401,-6.9091,-6.9798,-7.0549,-7.1188,-7.1634,-7.2072,-7.2331,-7.2501,-7.2671,-7.2671,-7.2671,-7.2671,-7.2671,-7.2671,-7.2671,-7.2671,0.844,0.786,0.5825,0.4371,0.3512,0.2676,0.2084,0.1624,-0.0,-0.0,-0.0,-0.0,-0.0,-0.0,-0.0,-0.0481,-0.1476,-0.2669,-0.3358,-0.37,-0.4374,-0.5214,-0.5888,-0.6727,-0.7398,-0.8232,-0.9402,-1.0737,-1.2069,-1.2893,-1.3887,-1.4878,-1.6369,-1.7519,-1.8164,-1.9316,-2.0617,-2.1911,-2.2567,-2.352,-2.4639,-2.5117,-2.5911,-2.7004,-2.779,-2.8261,-2.9042,-2.9834,-3.0763,-3.1977,-3.3044,-3.4105,-3.5605,-3.6664,-3.7843,-3.8865,-3.9714,-4.0596,-4.1962,-4.3241,-4.4509,-4.6103,-4.7143,-4.8258,-5.0041,-5.1076,-5.1852,-5.2541,-5.3649,-5.4779,-5.5736,-5.6655,-5.7303,-5.7944,-5.8815,-5.9651,-6.1098,-6.31,-6.5014,-6.6853,-6.7757,-6.804,-6.8386,-6.8169,-6.7997,-6.79,-6.7534,-6.7218,-6.6807,-6.6586,-6.6586,-6.6586,-6.6586,-6.6617,-6.6691,-6.7005,-6.7388,-6.7797,-6.8301,-6.9188,-7.0049,-7.0733,-7.1401,-7.1722,-7.2072,-7.2245,-7.2416,-7.2671,-7.2671,-7.2671,-7.2671,-7.2671,-7.2671,-7.2671,-7.2671,0.8729,0.7715,0.597,0.4517,0.3514,0.2847,0.2405,0.2088,-0.0,-0.0,-0.0,-0.0,-0.0,-0.0,-0.0,-0.0,-0.1653,-0.3013,-0.37,-0.4206,-0.4878,-0.572,-0.6392,-0.723,-0.7901,-0.8733,-0.9903,-1.107,-1.2069,-1.3065,-1.4052,-1.4878,-1.6032,-1.7191,-1.8164,-1.9469,-2.0779,-2.1911,-2.2878,-2.384,-2.4652,-2.5289,-2.6228,-2.7162,-2.779,-2.8104,-2.8886,-2.9664,-3.0593,-3.1977,-3.35,-3.4857,-3.5754,-3.6793,-3.7843,-3.8865,-3.9878,-4.0882,-4.2039,-4.3184,-4.4542,-4.5737,-4.6677,-4.7946,-4.9721,-5.0847,-5.1619,-5.2664,-5.3792,-5.4887,-5.5973,-5.6915,-5.756,-5.8198,-5.9123,-6.0308,-6.2109,-6.3759,-6.5469,-6.7246,-6.7722,-6.7997,-6.7827,-6.7606,-6.7463,-6.7363,-6.7155,-6.6839,-6.6586,-6.6586,-6.6586,-6.6586,-6.6586,-6.6617,-6.6617,-6.7005,-6.7388,-6.7695,-6.8301,-6.9252,-7.0236,-7.0825,-7.1401,-7.181,-7.2072,-7.2245,-7.2416,-7.2671,-7.2671,-7.2671,-7.2671,-7.2671,-7.2671,-7.2671,-7.2671,0.8435,0.7135,0.5677,0.466,0.3951,0.3147,0.2707,0.2242,0.1522,0.0765,-0.0,-0.0,-0.0,-0.0,-0.0,-0.0,-0.1502,-0.3195,-0.3868,-0.4204,-0.5214,-0.5888,-0.6727,-0.7398,-0.8232,-0.9235,-1.0404,-1.1237,-1.2235,-1.339,-1.4217,-1.4878,-1.6534,-1.7682,-1.8654,-1.9795,-2.1103,-2.2234,-2.3199,-2.416,-2.4958,-2.5753,-2.6702,-2.7333,-2.7961,-2.8588,-2.9368,-2.9819,-3.0747,-3.213,-3.3802,-3.5157,-3.6052,-3.696,-3.799,-3.9011,-3.9878,-4.1025,-4.2159,-4.328,-4.459,-4.5826,-4.6693,-4.7702,-4.9349,-5.0678,-5.163,-5.2793,-5.3937,-5.5075,-5.6209,-5.7275,-5.8198,-5.8704,-5.9414,-6.1089,-6.2919,-6.4062,-6.5352,-6.6852,-6.7862,-6.7857,-6.7629,-6.7465,-6.7269,-6.7091,-6.687,-6.6586,-6.6586,-6.6586,-6.6586,-6.6586,-6.6586,-6.6586,-6.6586,-6.7005,-6.7388,-6.7797,-6.8301,-6.9382,-7.0236,-7.0916,-7.1401,-7.181,-7.2072,-7.2159,-7.2416,-7.2671,-7.2671,-7.2671,-7.2671,-7.2671,-7.2671,-7.2671,-7.2671]},{"header":{"parameterUnit":"m.s-1","parameterCategory":1,"la1":31.0,"la2":29.5877,"lo1":-88.7671,"lo2":-86.6584,"dy":0.0162,"dx":0.0185,"nx":115,"ny":88,"refTime":"2023-11-17T06:00:00:Z","depth":0,"parameterNumber":3,"parameterNumberName":"V-component_of_WINDS"},"data":[0.0,0.0,0.0,0.0,0.0,0.0,0.0,0.0,0.0,0.0,0.0,0.0,0.0,0.0,0.0,0.0,0.0,0.0,0.0,0.0,0.0,0.0,0.0,0.0,0.0,0.0,0.0,0.0,0.0,0.0,0.0,0.0,0.0,0.0,0.0,0.0,0.0,0.0,0.0,0.0,0.0,0.0,0.0,0.0,0.0,0.0,0.0,0.0,0.0,0.0,0.0,0.0,0.0,0.0,0.0,0.0,0.0,0.0,0.0,0.0,0.0,0.0,0.0,0.0,0.0,0.0,0.0,0.0,0.0,0.0,0.0,0.0,0.0,0.0,0.0,0.0,0.0,0.0,0.0,0.0,0.0,0.0,0.0,0.0,0.0,0.0,0.0,0.0,0.0,0.0,0.0,0.0,0.0,0.0,0.0,0.0,0.0,0.0,0.0,0.0,0.0,0.0,0.0,0.0,0.0,0.0,0.0,0.0,0.0,0.0,0.0,0.0,0.0,0.0,0.0,0.0,0.0,0.0,0.0,0.0,0.0,0.0,0.0,0.0,0.0,0.0,0.0,0.0,0.0,0.0,0.0,0.0,0.0,0.0,0.0,0.0,0.0,0.0,0.0,0.0,0.0,0.0,0.0,0.0,0.0,0.0,0.0,0.0,0.0,0.0,0.0,0.0,0.0,0.0,0.0,0.0,0.0,0.0,0.0,0.0,0.0,0.0,0.0,0.0,0.0,0.0,0.0,0.0,0.0,0.0,0.0,0.0,0.0,0.0,0.0,0.0,0.0,0.0,0.0,0.0,0.0,0.0,0.0,0.0,0.0,0.0,0.0,0.0,0.0,0.0,0.0,0.0,0.0,0.0,0.0,0.0,0.0,0.0,0.0,0.0,0.0,0.0,0.0,0.0,0.0,0.0,0.0,0.0,0.0,0.0,0.0,0.0,0.0,0.0,0.0,0.0,0.0,0.0,0.0,0.0,0.0,0.0,0.0,0.0,0.0,0.0,0.0,0.0,0.0,0.0,0.0,0.0,0.0,0.0,0.0,0.0,0.0,0.0,0.0,0.0,0.0,0.0,0.0,0.0,0.0,0.0,0.0,0.0,0.0,0.0,0.0,0.0,0.0,0.0,0.0,0.0,0.0,0.0,0.0,0.0,0.0,0.0,0.0,0.0,0.0,0.0,0.0,0.0,0.0,0.0,0.0,0.0,0.0,0.0,0.0,0.0,0.0,0.0,0.0,0.0,0.0,0.0,0.0,0.0,0.0,0.0,0.0,0.0,0.0,0.0,0.0,0.0,0.0,0.0,0.0,0.0,0.0,0.0,0.0,0.0,0.0,0.0,0.0,0.0,0.0,0.0,0.0,0.0,0.0,0.0,0.0,0.0,0.0,0.0,0.0,0.0,0.0,0.0,0.0,0.0,0.0,0.0,0.0,0.0,0.0,0.0,0.0,0.0,0.0,0.0,0.0,0.0,0.0,0.0,0.0,0.0,0.0,0.0,0.0,0.0,0.0,0.0,0.0,0.0,0.0,0.0,0.0,0.0,0.0,0.0,0.0,0.0,0.0,0.0,0.0,0.0,0.0,0.0,0.0,0.0,0.0,0.0,0.0,0.0,0.0,0.0,0.0,0.0,0.0,0.0,0.0,0.0,0.0,0.0,0.0,0.0,0.0,0.0,0.0,0.0,0.0,0.0,0.0,0.0,0.0,0.0,0.0,0.0,0.0,0.0,0.0,0.0,0.0,0.0,0.0,0.0,0.0,0.0,0.0,0.0,0.0,0.0,0.0,0.0,0.0,0.0,0.0,0.0,0.0,0.0,0.0,0.0,0.0,0.0,0.0,0.0,0.0,0.0,0.0,0.0,0.0,0.0,0.0,0.0,0.0,0.0,0.0,0.0,0.0,0.0,0.0,0.0,0.0,0.0,0.0,0.0,0.0,0.0,0.0,0.0,0.0,0.0,0.0,0.0,0.0,0.0,0.0,0.0,0.0,0.0,0.0,0.0,0.0,0.0,0.0,0.0,0.0,0.0,0.0,0.0,0.0,0.0,0.0,0.0,0.0,0.0,0.0,0.0,0.0,0.0,0.0,0.0,0.0,0.0,0.0,0.0,0.0,0.0,0.0,0.0,0.0,0.0,0.0,0.0,0.0,0.0,0.0,0.0,0.0,0.0,0.0,0.0,0.0,0.0,0.0,0.0,0.0,0.0,0.0,0.0,0.0,0.0,0.0,0.0,0.0,0.0,0.0,0.0,0.0,0.0,0.0,0.0,0.0,0.0,0.0,0.0,0.0,0.0,0.0,0.0,0.0,0.0,0.0,0.0,0.0,0.0,0.0,0.0,0.0,0.0,0.0,0.0,0.0,0.0,0.0,0.0,0.0,0.0,0.0,0.0,0.0,0.0,0.0,0.0,0.0,0.0,0.0,0.0,0.0,0.0,0.0,0.0,0.0,0.0,0.0,0.0,0.0,0.0,0.0,0.0,0.0,0.0,0.0,0.0,0.0,0.0,0.0,0.0,0.0,0.0,0.0,0.0,0.0,0.0,0.0,0.0,0.0,0.0,0.0,0.0,0.0,0.0,0.0,0.0,0.0,0.0,0.0,0.0,0.0,0.0,0.0,0.0,0.0,0.0,0.0,0.0,0.0,0.0,0.0,0.0,0.0,0.0,0.0,0.0,0.0,0.0,0.0,0.0,0.0,0.0,0.0,0.0,0.0,0.0,0.0,0.0,0.0,0.0,0.0,0.0,0.0,0.0,0.0,0.0,0.0,0.0,0.0,0.0,0.0,0.0,0.0,0.0,0.0,0.0,0.0,0.0,0.0,0.0,0.0,0.0,0.0,0.0,0.0,0.0,0.0,0.0,0.0,0.0,0.0,0.0,0.0,0.0,0.0,0.0,0.0,0.0,0.0,0.0,0.0,0.0,0.0,0.0,0.0,0.0,0.0,0.0,0.0,0.0,0.0,0.0,0.0,0.0,0.0,0.0,0.0,0.0,0.0,0.0,0.0,0.0,0.0,0.0,0.0,0.0,0.0,0.0,0.0,0.0,0.0,0.0,0.0,0.0,0.0,0.0,0.0,0.0,0.0,0.0,0.0,0.0,0.0,0.0,0.0,0.0,0.0,0.0,0.0,0.0,0.0,0.0,0.0,0.0,0.0,0.0,0.0,0.0,0.0,0.0,0.0,0.0,0.0,0.0,0.0,0.0,0.0,0.0,0.0,0.0,0.0,0.0,0.0,0.0,0.0,0.0,0.0,0.0,0.0,0.0,0.0,0.0,0.0,0.0,0.0,0.0,0.0,0.0,0.0,0.0,0.0,0.0,0.0,0.0,0.0,0.0,0.0,0.0,0.0,0.0,0.0,0.0,0.0,0.0,0.0,0.0,0.0,0.0,0.0,0.0,0.0,0.0,0.0,0.0,0.0,0.0,0.0,0.0,0.0,0.0,0.0,0.0,0.0,0.0,0.0,0.0,0.0,0.0,0.0,0.0,0.0,0.0,0.0,0.0,0.0,0.0,0.0,0.0,0.0,0.0,0.0,0.0,0.0,0.0,0.0,0.0,0.0,0.0,0.0,0.0,0.0,0.0,0.0,0.0,0.0,0.0,0.0,0.0,0.0,0.0,0.0,0.0,0.0,0.0,0.0,0.0,0.0,0.0,0.0,0.0,0.0,0.0,0.0,0.0,0.0,0.0,0.0,0.0,0.0,0.0,0.0,0.0,0.0,0.0,0.0,0.0,0.0,0.0,0.0,0.0,0.0,0.0,0.0,0.0,0.0,0.0,0.0,0.0,0.0,0.0,0.0,0.0,0.0,0.0,0.0,0.0,0.0,0.0,0.0,0.0,0.0,0.0,0.0,0.0,0.0,0.0,0.0,0.0,0.0,0.0,0.0,0.0,0.0,0.0,0.0,0.0,0.0,0.0,0.0,0.0,0.0,0.0,0.0,0.0,0.0,0.0,0.0,0.0,0.0,0.0,0.0,0.0,0.0,0.0,0.0,0.0,0.0,0.0,0.0,0.0,0.0,0.0,0.0,0.0,0.0,0.0,0.0,0.0,0.0,0.0,0.0,0.0,0.0,0.0,0.0,0.0,0.0,0.0,0.0,0.0,0.0,0.0,0.0,0.0,0.0,0.0,0.0,0.0,0.0,0.0,0.0,0.0,0.0,0.0,0.0,0.0,0.0,0.0,0.0,0.0,0.0,0.0,0.0,0.0,0.0,0.0,0.0,0.0,0.0,0.0,0.0,0.0,0.0,0.0,0.0,0.0,0.0,0.0,-4.4839,0.0,0.0,0.0,0.0,0.0,0.0,0.0,0.0,0.0,0.0,0.0,0.0,0.0,0.0,0.0,0.0,0.0,0.0,0.0,0.0,0.0,0.0,0.0,0.0,0.0,0.0,0.0,0.0,0.0,0.0,0.0,0.0,0.0,0.0,0.0,0.0,0.0,0.0,0.0,0.0,0.0,0.0,0.0,0.0,0.0,0.0,0.0,0.0,0.0,0.0,0.0,0.0,0.0,0.0,0.0,0.0,0.0,0.0,0.0,0.0,0.0,0.0,0.0,0.0,0.0,0.0,0.0,0.0,0.0,0.0,0.0,0.0,0.0,0.0,0.0,0.0,0.0,0.0,0.0,0.0,0.0,0.0,0.0,0.0,0.0,0.0,0.0,0.0,0.0,0.0,0.0,0.0,0.0,0.0,0.0,0.0,0.0,0.0,0.0,0.0,0.0,0.0,0.0,0.0,0.0,0.0,0.0,0.0,0.0,0.0,-4.6065,-4.6163,-4.6318,-4.6104,-4.5459,0.0,0.0,0.0,0.0,0.0,0.0,0.0,0.0,0.0,0.0,0.0,0.0,0.0,0.0,0.0,0.0,0.0,0.0,0.0,0.0,0.0,0.0,0.0,0.0,0.0,0.0,0.0,0.0,0.0,0.0,0.0,0.0,0.0,0.0,0.0,0.0,0.0,0.0,0.0,0.0,0.0,0.0,0.0,0.0,0.0,0.0,0.0,0.0,0.0,0.0,0.0,0.0,0.0,0.0,0.0,0.0,0.0,0.0,0.0,0.0,0.0,0.0,0.0,0.0,0.0,0.0,0.0,0.0,0.0,0.0,0.0,0.0,0.0,0.0,0.0,0.0,0.0,0.0,0.0,0.0,0.0,0.0,0.0,0.0,0.0,0.0,0.0,0.0,0.0,0.0,0.0,0.0,0.0,0.0,0.0,0.0,0.0,0.0,0.0,0.0,0.0,0.0,0.0,0.0,0.0,0.0,0.0,0.0,0.0,0.0,0.0,0.0,-4.7132,-4.6864,-4.598,0.0,0.0,0.0,0.0,0.0,0.0,0.0,0.0,0.0,0.0,0.0,0.0,0.0,0.0,0.0,0.0,0.0,0.0,0.0,0.0,0.0,0.0,0.0,0.0,0.0,0.0,0.0,0.0,0.0,0.0,0.0,0.0,0.0,0.0,0.0,0.0,0.0,0.0,0.0,0.0,0.0,0.0,0.0,0.0,0.0,0.0,0.0,0.0,0.0,0.0,0.0,0.0,0.0,0.0,0.0,0.0,0.0,0.0,0.0,0.0,0.0,0.0,0.0,0.0,0.0,0.0,0.0,0.0,0.0,0.0,0.0,0.0,0.0,0.0,0.0,0.0,0.0,0.0,0.0,0.0,0.0,0.0,0.0,0.0,0.0,0.0,0.0,0.0,0.0,0.0,0.0,0.0,0.0,0.0,0.0,0.0,0.0,0.0,0.0,0.0,0.0,0.0,0.0,0.0,0.0,0.0,0.0,0.0,0.0,0.0,-4.7316,-4.7688,-4.7427,0.0,-4.6495,0.0,0.0,0.0,0.0,0.0,0.0,0.0,0.0,0.0,0.0,0.0,0.0,0.0,0.0,0.0,0.0,0.0,0.0,0.0,0.0,0.0,0.0,0.0,0.0,0.0,0.0,0.0,0.0,0.0,0.0,0.0,0.0,0.0,0.0,0.0,0.0,0.0,0.0,0.0,0.0,0.0,0.0,0.0,0.0,0.0,0.0,0.0,0.0,0.0,0.0,0.0,0.0,0.0,0.0,0.0,0.0,0.0,0.0,0.0,0.0,0.0,0.0,0.0,0.0,0.0,0.0,0.0,0.0,0.0,0.0,0.0,0.0,0.0,0.0,0.0,0.0,0.0,0.0,0.0,0.0,0.0,0.0,0.0,0.0,0.0,0.0,0.0,0.0,0.0,0.0,0.0,0.0,0.0,0.0,0.0,0.0,0.0,0.0,0.0,0.0,0.0,0.0,0.0,0.0,0.0,0.0,0.0,0.0,0.0,0.0,-4.8451,-4.8436,-4.7465,-4.6802,0.0,0.0,0.0,0.0,0.0,0.0,0.0,0.0,0.0,0.0,0.0,0.0,0.0,0.0,0.0,0.0,0.0,0.0,0.0,0.0,0.0,0.0,0.0,0.0,0.0,0.0,0.0,0.0,0.0,0.0,0.0,0.0,0.0,0.0,0.0,0.0,0.0,0.0,0.0,0.0,0.0,0.0,0.0,0.0,0.0,0.0,0.0,0.0,0.0,0.0,0.0,0.0,0.0,0.0,0.0,0.0,0.0,0.0,0.0,0.0,0.0,0.0,0.0,0.0,0.0,0.0,0.0,0.0,0.0,0.0,0.0,0.0,0.0,0.0,0.0,0.0,0.0,0.0,0.0,0.0,0.0,0.0,0.0,0.0,0.0,0.0,0.0,0.0,0.0,0.0,0.0,0.0,0.0,0.0,0.0,0.0,0.0,0.0,0.0,0.0,0.0,0.0,0.0,0.0,0.0,0.0,0.0,0.0,0.0,0.0,-4.9157,-4.9427,-4.8756,-4.7558,-4.6802,-4.6495,0.0,0.0,0.0,0.0,0.0,0.0,0.0,0.0,0.0,0.0,0.0,0.0,0.0,0.0,0.0,0.0,0.0,0.0,0.0,0.0,0.0,0.0,0.0,0.0,0.0,0.0,0.0,0.0,0.0,0.0,0.0,0.0,0.0,0.0,0.0,0.0,0.0,0.0,0.0,0.0,0.0,0.0,0.0,0.0,0.0,0.0,0.0,0.0,0.0,0.0,0.0,0.0,0.0,0.0,0.0,0.0,0.0,0.0,0.0,0.0,0.0,0.0,0.0,0.0,0.0,0.0,0.0,0.0,0.0,0.0,0.0,0.0,0.0,0.0,0.0,0.0,0.0,0.0,0.0,0.0,0.0,0.0,0.0,0.0,0.0,0.0,0.0,0.0,0.0,0.0,0.0,0.0,0.0,0.0,0.0,0.0,0.0,0.0,0.0,0.0,0.0,0.0,0.0,0.0,0.0,0.0,0.0,0.0,-4.96,-5.0175,-4.9864,-4.8472,-4.7974,-4.7272,0.0,0.0,0.0,0.0,0.0,0.0,0.0,0.0,0.0,0.0,0.0,0.0,0.0,0.0,0.0,0.0,0.0,0.0,0.0,0.0,0.0,0.0,0.0,0.0,0.0,0.0,0.0,0.0,0.0,0.0,0.0,0.0,0.0,0.0,0.0,0.0,0.0,0.0,0.0,0.0,0.0,0.0,0.0,0.0,0.0,0.0,0.0,0.0,0.0,0.0,0.0,0.0,0.0,0.0,0.0,0.0,0.0,0.0,0.0,0.0,0.0,0.0,0.0,0.0,0.0,0.0,0.0,0.0,0.0,0.0,0.0,0.0,0.0,0.0,0.0,0.0,0.0,0.0,0.0,0.0,0.0,0.0,0.0,0.0,0.0,0.0,0.0,0.0,0.0,0.0,0.0,0.0,0.0,0.0,0.0,0.0,0.0,0.0,0.0,0.0,0.0,0.0,0.0,0.0,0.0,0.0,0.0,0.0,0.0,-4.9673,-4.9528,-4.9053,-4.8211,-4.7346,-4.6927,0.0,0.0,0.0,0.0,0.0,0.0,0.0,0.0,0.0,0.0,0.0,0.0,0.0,0.0,0.0,0.0,0.0,0.0,0.0,0.0,0.0,0.0,0.0,0.0,0.0,0.0,0.0,0.0,0.0,0.0,0.0,0.0,0.0,0.0,0.0,0.0,0.0,0.0,0.0,0.0,0.0,0.0,0.0,0.0,0.0,0.0,0.0,0.0,0.0,0.0,0.0,0.0,0.0,0.0,0.0,0.0,0.0,0.0,0.0,0.0,0.0,0.0,0.0,0.0,0.0,0.0,0.0,0.0,0.0,0.0,0.0,0.0,0.0,0.0,0.0,0.0,0.0,0.0,0.0,0.0,0.0,0.0,0.0,0.0,0.0,0.0,0.0,0.0,0.0,0.0,0.0,0.0,0.0,0.0,0.0,0.0,0.0,0.0,0.0,0.0,0.0,0.0,0.0,0.0,0.0,0.0,0.0,0.0,0.0,-4.9845,0.0,-4.8667,-4.8093,-4.7426,-4.7026,0.0,0.0,0.0,0.0,0.0,0.0,0.0,0.0,0.0,0.0,0.0,0.0,0.0,0.0,0.0,0.0,0.0,0.0,0.0,0.0,0.0,0.0,0.0,0.0,0.0,0.0,0.0,0.0,0.0,0.0,0.0,0.0,0.0,0.0,0.0,0.0,0.0,0.0,0.0,0.0,0.0,0.0,0.0,0.0,0.0,0.0,0.0,0.0,0.0,0.0,0.0,0.0,0.0,0.0,0.0,0.0,0.0,0.0,0.0,0.0,0.0,0.0,0.0,0.0,0.0,0.0,0.0,0.0,0.0,0.0,0.0,0.0,0.0,0.0,0.0,0.0,0.0,0.0,0.0,0.0,0.0,0.0,0.0,0.0,0.0,0.0,0.0,0.0,0.0,0.0,0.0,0.0,0.0,0.0,0.0,0.0,0.0,0.0,0.0,0.0,0.0,0.0,0.0,0.0,0.0,0.0,0.0,0.0,-5.0039,-5.0192,-4.9748,-4.9019,-4.8105,-4.8302,-4.763,0.0,0.0,0.0,0.0,0.0,0.0,0.0,0.0,0.0,0.0,0.0,0.0,0.0,0.0,0.0,0.0,0.0,0.0,0.0,0.0,0.0,0.0,0.0,0.0,0.0,0.0,0.0,0.0,0.0,0.0,0.0,0.0,0.0,0.0,0.0,0.0,0.0,0.0,0.0,0.0,0.0,0.0,0.0,0.0,0.0,0.0,0.0,0.0,0.0,0.0,0.0,0.0,0.0,0.0,0.0,0.0,0.0,0.0,0.0,0.0,0.0,0.0,0.0,0.0,0.0,0.0,0.0,0.0,0.0,0.0,0.0,0.0,0.0,0.0,0.0,0.0,0.0,0.0,0.0,0.0,0.0,0.0,0.0,0.0,0.0,0.0,0.0,0.0,0.0,0.0,0.0,0.0,0.0,0.0,0.0,0.0,0.0,0.0,0.0,0.0,0.0,0.0,0.0,0.0,0.0,0.0,0.0,0.0,0.0,-5.0805,-4.998,-4.9412,-4.9301,-4.8661,-4.8189,0.0,0.0,0.0,0.0,0.0,0.0,0.0,0.0,0.0,0.0,0.0,0.0,0.0,0.0,0.0,0.0,0.0,0.0,0.0,0.0,0.0,0.0,0.0,0.0,0.0,0.0,0.0,0.0,0.0,0.0,0.0,0.0,0.0,0.0,0.0,0.0,0.0,0.0,0.0,0.0,0.0,0.0,0.0,0.0,0.0,0.0,0.0,0.0,0.0,0.0,0.0,0.0,0.0,0.0,0.0,0.0,0.0,0.0,0.0,0.0,0.0,0.0,0.0,0.0,0.0,0.0,0.0,0.0,0.0,0.0,0.0,0.0,0.0,0.0,0.0,0.0,0.0,0.0,0.0,0.0,0.0,0.0,0.0,0.0,0.0,0.0,0.0,0.0,0.0,0.0,0.0,0.0,0.0,0.0,0.0,0.0,0.0,0.0,0.0,0.0,0.0,0.0,0.0,0.0,0.0,0.0,0.0,0.0,0.0,-5.1322,-5.008,-4.9479,-4.9749,-4.8977,-4.8598,-4.8655,0.0,0.0,0.0,0.0,0.0,0.0,0.0,0.0,0.0,0.0,0.0,0.0,0.0,0.0,0.0,0.0,0.0,0.0,0.0,0.0,0.0,0.0,0.0,0.0,0.0,0.0,0.0,0.0,0.0,0.0,0.0,0.0,0.0,0.0,0.0,0.0,0.0,0.0,0.0,0.0,0.0,0.0,0.0,0.0,0.0,0.0,0.0,0.0,0.0,0.0,0.0,0.0,0.0,0.0,0.0,0.0,0.0,0.0,0.0,0.0,0.0,0.0,0.0,0.0,0.0,0.0,0.0,0.0,0.0,0.0,0.0,0.0,0.0,0.0,0.0,0.0,0.0,0.0,0.0,0.0,0.0,0.0,0.0,0.0,0.0,0.0,0.0,0.0,0.0,0.0,0.0,0.0,0.0,0.0,0.0,0.0,0.0,0.0,0.0,0.0,0.0,0.0,0.0,0.0,0.0,0.0,0.0,0.0,-5.1943,-5.0182,-4.9407,-4.9732,-4.9333,-4.8964,0.0,0.0,0.0,0.0,0.0,0.0,0.0,0.0,0.0,0.0,0.0,0.0,0.0,0.0,0.0,0.0,0.0,0.0,0.0,0.0,0.0,0.0,0.0,0.0,0.0,0.0,0.0,0.0,0.0,0.0,0.0,0.0,0.0,0.0,0.0,0.0,0.0,0.0,0.0,0.0,0.0,0.0,0.0,0.0,0.0,0.0,0.0,0.0,0.0,0.0,0.0,0.0,0.0,0.0,0.0,0.0,0.0,0.0,0.0,0.0,0.0,0.0,0.0,0.0,0.0,0.0,0.0,0.0,0.0,0.0,0.0,0.0,0.0,0.0,0.0,0.0,0.0,0.0,0.0,0.0,0.0,0.0,0.0,0.0,0.0,0.0,0.0,0.0,0.0,0.0,0.0,0.0,0.0,0.0,0.0,0.0,0.0,0.0,0.0,0.0,0.0,0.0,0.0,0.0,0.0,0.0,0.0,0.0,0.0,-5.2457,-5.1723,-5.1243,-5.1234,-5.0783,-5.0135,0.0,0.0,0.0,0.0,0.0,0.0,0.0,0.0,0.0,0.0,0.0,0.0,0.0,0.0,0.0,0.0,0.0,0.0,0.0,0.0,0.0,0.0,0.0,0.0,0.0,0.0,0.0,0.0,0.0,0.0,0.0,0.0,0.0,0.0,0.0,0.0,0.0,0.0,0.0,0.0,0.0,0.0,0.0,0.0,0.0,0.0,0.0,0.0,0.0,0.0,0.0,0.0,0.0,0.0,0.0,0.0,0.0,0.0,0.0,0.0,0.0,0.0,0.0,0.0,0.0,0.0,0.0,0.0,0.0,0.0,0.0,0.0,0.0,0.0,0.0,0.0,0.0,0.0,0.0,0.0,0.0,0.0,0.0,0.0,0.0,0.0,0.0,0.0,0.0,0.0,0.0,0.0,0.0,0.0,0.0,0.0,0.0,0.0,0.0,0.0,0.0,0.0,0.0,0.0,0.0,0.0,0.0,0.0,-5.1701,-5.2607,-5.2478,-5.2459,-5.2637,-5.1855,-5.115,0.0,0.0,0.0,0.0,0.0,0.0,0.0,0.0,0.0,0.0,0.0,0.0,0.0,0.0,0.0,0.0,0.0,0.0,0.0,0.0,0.0,0.0,0.0,0.0,0.0,0.0,0.0,0.0,0.0,0.0,0.0,0.0,0.0,0.0,0.0,0.0,0.0,0.0,0.0,0.0,0.0,0.0,0.0,0.0,0.0,0.0,0.0,0.0,0.0,0.0,0.0,0.0,0.0,0.0,0.0,0.0,0.0,0.0,0.0,0.0,0.0,0.0,0.0,0.0,0.0,0.0,0.0,0.0,0.0,0.0,0.0,0.0,0.0,0.0,0.0,0.0,0.0,0.0,0.0,0.0,0.0,0.0,0.0,0.0,0.0,0.0,0.0,0.0,0.0,0.0,0.0,0.0,0.0,0.0,0.0,0.0,0.0,0.0,0.0,0.0,0.0,0.0,0.0,0.0,0.0,0.0,0.0,0.0,-5.2243,-5.2679,-5.2909,-5.33,-5.3853,-5.2735,-5.1884,0.0,0.0,0.0,0.0,0.0,0.0,0.0,0.0,0.0,0.0,0.0,0.0,0.0,0.0,0.0,0.0,0.0,0.0,0.0,0.0,0.0,0.0,0.0,0.0,0.0,0.0,0.0,0.0,0.0,0.0,0.0,0.0,0.0,0.0,0.0,0.0,0.0,0.0,0.0,0.0,0.0,0.0,0.0,0.0,0.0,0.0,0.0,0.0,0.0,0.0,0.0,0.0,0.0,0.0,0.0,0.0,0.0,0.0,0.0,0.0,0.0,0.0,0.0,0.0,0.0,0.0,0.0,0.0,0.0,0.0,0.0,0.0,0.0,0.0,0.0,0.0,0.0,0.0,0.0,0.0,0.0,0.0,0.0,0.0,0.0,0.0,0.0,0.0,0.0,0.0,0.0,0.0,0.0,0.0,0.0,0.0,0.0,0.0,0.0,0.0,0.0,0.0,0.0,0.0,0.0,0.0,0.0,0.0,-5.3122,-5.4272,-5.3847,-5.3948,-5.4713,-5.3404,-5.2067,0.0,0.0,0.0,0.0,0.0,0.0,0.0,0.0,0.0,0.0,0.0,0.0,0.0,0.0,0.0,0.0,0.0,0.0,0.0,0.0,0.0,0.0,0.0,0.0,0.0,0.0,0.0,0.0,0.0,0.0,0.0,0.0,0.0,0.0,0.0,0.0,0.0,0.0,0.0,0.0,0.0,0.0,0.0,0.0,0.0,0.0,0.0,0.0,-3.7724,0.0,0.0,0.0,0.0,0.0,0.0,0.0,0.0,0.0,0.0,0.0,0.0,0.0,0.0,0.0,0.0,0.0,0.0,0.0,0.0,0.0,0.0,0.0,0.0,0.0,0.0,0.0,0.0,0.0,0.0,0.0,0.0,0.0,0.0,0.0,0.0,0.0,0.0,0.0,0.0,0.0,0.0,0.0,0.0,0.0,0.0,0.0,0.0,0.0,0.0,0.0,0.0,0.0,0.0,0.0,0.0,0.0,0.0,0.0,-5.3886,-5.4656,-5.4233,-5.4251,-5.4922,-5.4052,-5.2746,0.0,0.0,0.0,0.0,0.0,0.0,0.0,0.0,0.0,0.0,0.0,0.0,0.0,0.0,0.0,0.0,0.0,0.0,0.0,0.0,0.0,0.0,0.0,0.0,0.0,0.0,0.0,0.0,0.0,0.0,0.0,0.0,0.0,0.0,0.0,0.0,0.0,0.0,0.0,0.0,0.0,0.0,0.0,0.0,0.0,0.0,0.0,0.0,0.0,0.0,0.0,0.0,0.0,0.0,0.0,0.0,0.0,0.0,0.0,0.0,0.0,0.0,0.0,0.0,0.0,0.0,0.0,0.0,0.0,0.0,0.0,0.0,0.0,0.0,0.0,0.0,0.0,0.0,0.0,0.0,0.0,0.0,0.0,0.0,0.0,0.0,0.0,0.0,0.0,0.0,0.0,0.0,0.0,0.0,0.0,0.0,0.0,0.0,0.0,0.0,0.0,0.0,0.0,0.0,0.0,0.0,0.0,-5.4137,-5.451,-5.4832,-5.4524,-5.4545,-5.4957,-5.446,-5.3455,-5.1856,0.0,0.0,0.0,0.0,0.0,0.0,0.0,0.0,0.0,0.0,0.0,0.0,0.0,0.0,0.0,0.0,0.0,0.0,0.0,0.0,0.0,0.0,0.0,0.0,0.0,0.0,0.0,0.0,0.0,0.0,0.0,0.0,0.0,0.0,0.0,0.0,0.0,0.0,-3.806,-3.9036,0.0,0.0,0.0,0.0,0.0,0.0,0.0,0.0,-3.9814,0.0,0.0,0.0,0.0,0.0,0.0,0.0,0.0,0.0,0.0,0.0,0.0,0.0,0.0,0.0,0.0,0.0,0.0,0.0,0.0,0.0,0.0,0.0,0.0,0.0,0.0,0.0,0.0,0.0,0.0,0.0,0.0,0.0,0.0,0.0,0.0,0.0,0.0,0.0,0.0,0.0,0.0,0.0,0.0,0.0,0.0,0.0,0.0,0.0,0.0,0.0,0.0,0.0,0.0,0.0,0.0,-5.4713,-5.5065,-5.5473,-5.5928,-5.5472,-5.5189,-5.4992,-5.446,-5.3518,-5.2015,0.0,0.0,0.0,0.0,0.0,0.0,0.0,0.0,0.0,0.0,0.0,0.0,0.0,0.0,0.0,0.0,0.0,0.0,0.0,0.0,0.0,0.0,0.0,0.0,0.0,0.0,0.0,0.0,0.0,0.0,0.0,0.0,0.0,0.0,0.0,0.0,0.0,0.0,0.0,-4.0491,-4.0915,0.0,0.0,0.0,0.0,0.0,0.0,0.0,0.0,-4.0279,0.0,0.0,0.0,0.0,0.0,0.0,0.0,0.0,0.0,0.0,0.0,0.0,0.0,0.0,0.0,0.0,0.0,0.0,0.0,0.0,0.0,0.0,0.0,0.0,0.0,0.0,0.0,0.0,0.0,0.0,0.0,0.0,0.0,0.0,0.0,0.0,0.0,0.0,0.0,0.0,0.0,0.0,0.0,0.0,0.0,0.0,0.0,0.0,0.0,0.0,0.0,0.0,0.0,0.0,0.0,-5.4989,-5.583,-5.6259,-5.6273,-5.5857,-5.5507,-5.5234,-5.4745,-5.377,0.0,0.0,0.0,0.0,0.0,0.0,0.0,0.0,0.0,0.0,0.0,0.0,0.0,0.0,0.0,0.0,0.0,0.0,0.0,0.0,0.0,0.0,0.0,0.0,0.0,0.0,0.0,0.0,0.0,0.0,0.0,0.0,0.0,0.0,0.0,0.0,0.0,0.0,0.0,0.0,-4.0421,-4.0892,-4.1191,0.0,0.0,0.0,0.0,0.0,0.0,-4.2349,-4.1727,0.0,0.0,0.0,0.0,0.0,0.0,0.0,0.0,0.0,0.0,0.0,0.0,0.0,0.0,0.0,0.0,0.0,0.0,0.0,0.0,0.0,0.0,0.0,0.0,0.0,0.0,0.0,0.0,0.0,0.0,0.0,0.0,0.0,0.0,0.0,0.0,0.0,0.0,0.0,0.0,0.0,0.0,0.0,0.0,0.0,0.0,0.0,0.0,0.0,0.0,0.0,0.0,0.0,0.0,0.0,-5.5073,-5.6342,-5.6829,-5.6437,-5.6049,-5.5706,-5.5566,-5.5113,-5.4079,0.0,0.0,0.0,0.0,0.0,0.0,0.0,0.0,0.0,0.0,0.0,0.0,0.0,0.0,0.0,0.0,0.0,0.0,0.0,0.0,0.0,0.0,0.0,0.0,0.0,0.0,0.0,0.0,0.0,0.0,0.0,0.0,0.0,0.0,0.0,0.0,0.0,0.0,0.0,0.0,0.0,-4.103,-4.204,-4.2362,0.0,0.0,0.0,0.0,-4.3099,-4.3331,0.0,0.0,0.0,0.0,0.0,0.0,0.0,0.0,0.0,0.0,0.0,0.0,0.0,0.0,0.0,0.0,0.0,0.0,0.0,0.0,0.0,0.0,0.0,0.0,0.0,0.0,0.0,0.0,0.0,0.0,0.0,0.0,0.0,0.0,0.0,0.0,0.0,0.0,0.0,0.0,0.0,0.0,0.0,0.0,0.0,0.0,0.0,0.0,0.0,0.0,0.0,0.0,0.0,0.0,0.0,0.0,-5.5212,-5.649,-5.6984,-5.66,-5.6383,-5.6106,-5.5706,-5.5437,-5.4583,0.0,0.0,0.0,0.0,0.0,0.0,0.0,0.0,0.0,0.0,0.0,0.0,0.0,0.0,0.0,0.0,0.0,0.0,0.0,0.0,0.0,0.0,0.0,0.0,0.0,0.0,0.0,0.0,0.0,0.0,0.0,0.0,0.0,0.0,0.0,0.0,0.0,0.0,0.0,0.0,0.0,-4.2477,-4.1765,-4.2431,-4.3165,0.0,0.0,-4.3585,-4.4347,-4.3985,0.0,0.0,0.0,0.0,0.0,0.0,0.0,0.0,0.0,0.0,0.0,0.0,0.0,0.0,0.0,0.0,0.0,0.0,0.0,0.0,0.0,0.0,0.0,0.0,0.0,0.0,0.0,0.0,0.0,0.0,0.0,0.0,0.0,0.0,0.0,0.0,0.0,0.0,0.0,0.0,0.0,0.0,0.0,0.0,0.0,0.0,0.0,0.0,0.0,0.0,0.0,0.0,0.0,0.0,0.0,-5.5374,-5.5468,-5.6685,-5.7188,-5.6969,-5.6653,-5.6437,-5.6217,-5.5957,-5.5044,0.0,0.0,0.0,0.0,0.0,0.0,0.0,0.0,0.0,0.0,0.0,0.0,0.0,0.0,0.0,0.0,0.0,0.0,0.0,0.0,0.0,0.0,0.0,0.0,0.0,0.0,0.0,0.0,0.0,0.0,0.0,0.0,0.0,0.0,0.0,0.0,0.0,0.0,0.0,0.0,0.0,0.0,-4.1627,-4.2683,0.0,0.0,0.0,-4.4497,-4.4595,0.0,0.0,0.0,0.0,0.0,0.0,0.0,0.0,0.0,0.0,0.0,0.0,0.0,0.0,0.0,0.0,0.0,0.0,0.0,0.0,0.0,0.0,0.0,0.0,0.0,0.0,0.0,0.0,0.0,0.0,0.0,0.0,0.0,0.0,0.0,0.0,0.0,0.0,0.0,0.0,0.0,0.0,0.0,0.0,0.0,0.0,0.0,0.0,0.0,0.0,0.0,0.0,0.0,0.0,0.0,0.0,0.0,-5.5647,-5.6828,-5.7388,-5.7188,-5.6917,-5.6707,-5.6653,-5.6402,0.0,0.0,0.0,0.0,0.0,0.0,0.0,0.0,0.0,0.0,0.0,0.0,0.0,0.0,0.0,0.0,0.0,0.0,0.0,0.0,0.0,0.0,0.0,0.0,0.0,0.0,0.0,-4.7598,0.0,0.0,0.0,0.0,0.0,0.0,0.0,0.0,0.0,0.0,0.0,0.0,0.0,0.0,-4.1948,-4.1948,-4.3119,-4.4015,0.0,0.0,-4.5071,-4.4841,-4.4573,-4.4094,0.0,0.0,0.0,0.0,0.0,0.0,0.0,0.0,0.0,0.0,0.0,0.0,0.0,0.0,0.0,0.0,0.0,0.0,0.0,0.0,0.0,0.0,0.0,0.0,0.0,0.0,0.0,0.0,0.0,0.0,0.0,0.0,0.0,0.0,0.0,0.0,0.0,0.0,0.0,0.0,0.0,0.0,0.0,0.0,0.0,0.0,0.0,0.0,0.0,0.0,0.0,0.0,0.0,0.0,0.0,-5.5684,-5.7052,-5.7583,-5.7188,-5.7188,-5.7036,-5.6776,-5.6776,-5.5953,0.0,0.0,0.0,0.0,0.0,0.0,0.0,0.0,0.0,0.0,0.0,0.0,0.0,0.0,0.0,0.0,0.0,0.0,0.0,0.0,0.0,0.0,0.0,0.0,0.0,0.0,0.0,0.0,0.0,0.0,0.0,0.0,0.0,0.0,0.0,0.0,0.0,0.0,0.0,0.0,0.0,-4.2982,-4.2982,-4.3877,-4.4543,0.0,0.0,-4.4796,-4.5232,-4.4778,-4.4094,-4.3578,0.0,0.0,0.0,0.0,0.0,0.0,0.0,0.0,0.0,0.0,0.0,0.0,0.0,0.0,0.0,0.0,0.0,0.0,0.0,0.0,0.0,0.0,0.0,0.0,0.0,0.0,0.0,0.0,0.0,0.0,0.0,0.0,0.0,0.0,0.0,0.0,0.0,0.0,0.0,0.0,0.0,0.0,0.0,0.0,0.0,0.0,0.0,0.0,0.0,0.0,0.0,0.0,0.0,-5.6135,-5.6528,-5.7363,-5.7726,-5.7571,-5.751,-5.7361,-5.7188,-5.7159,-5.6551,0.0,0.0,0.0,0.0,0.0,0.0,0.0,0.0,0.0,0.0,0.0,0.0,0.0,0.0,0.0,0.0,0.0,0.0,0.0,0.0,0.0,0.0,0.0,0.0,0.0,0.0,0.0,0.0,-5.1563,-5.1827,-5.0783,0.0,0.0,0.0,0.0,0.0,0.0,0.0,0.0,0.0,0.0,-4.3096,-4.3096,-4.3946,0.0,0.0,-4.4864,-4.514,-4.5324,-4.496,-4.4458,-4.4004,-4.2601,0.0,0.0,0.0,0.0,0.0,0.0,0.0,0.0,0.0,0.0,0.0,0.0,0.0,0.0,0.0,0.0,0.0,0.0,0.0,0.0,0.0,0.0,0.0,0.0,0.0,0.0,0.0,0.0,0.0,0.0,0.0,0.0,0.0,0.0,0.0,0.0,0.0,0.0,0.0,0.0,0.0,0.0,0.0,0.0,0.0,0.0,0.0,0.0,0.0,0.0,0.0,0.0,-5.6325,-5.71,-5.7602,-5.7821,-5.781,-5.7704,-5.7595,-5.7437,-5.7447,-5.6985,0.0,0.0,0.0,0.0,0.0,0.0,0.0,0.0,0.0,0.0,0.0,0.0,0.0,0.0,0.0,0.0,0.0,0.0,0.0,0.0,0.0,0.0,0.0,0.0,0.0,0.0,0.0,0.0,-5.2263,-5.2209,-4.9888,0.0,0.0,0.0,0.0,0.0,0.0,0.0,0.0,0.0,0.0,-4.3617,-4.3326,-4.4176,-4.4773,-4.4635,-4.5025,-4.537,-4.537,-4.5074,-4.4663,-4.4411,0.0,0.0,0.0,0.0,0.0,0.0,0.0,0.0,0.0,0.0,0.0,0.0,0.0,0.0,0.0,0.0,0.0,0.0,0.0,0.0,0.0,0.0,0.0,0.0,0.0,0.0,0.0,0.0,0.0,0.0,-4.8702,0.0,0.0,0.0,0.0,0.0,0.0,0.0,0.0,0.0,0.0,0.0,0.0,0.0,0.0,0.0,0.0,0.0,0.0,0.0,0.0,0.0,0.0,-5.6325,-5.71,-5.7729,-5.795,-5.7774,-5.7799,-5.7752,-5.7583,-5.7595,-5.7182,-5.6225,0.0,0.0,0.0,0.0,0.0,0.0,0.0,0.0,0.0,0.0,0.0,0.0,0.0,0.0,0.0,0.0,0.0,0.0,0.0,0.0,0.0,0.0,0.0,0.0,0.0,0.0,-5.3914,-5.3971,-5.2555,0.0,0.0,0.0,0.0,0.0,0.0,0.0,0.0,0.0,0.0,-4.4513,-4.4758,-4.3877,-4.4681,-4.514,-4.4704,-4.5048,-4.537,-4.537,-4.5074,-4.4663,0.0,0.0,0.0,0.0,0.0,0.0,0.0,0.0,0.0,0.0,0.0,0.0,0.0,0.0,0.0,0.0,0.0,0.0,0.0,0.0,0.0,0.0,0.0,0.0,0.0,0.0,0.0,-5.1362,-5.1225,0.0,0.0,0.0,0.0,0.0,0.0,0.0,0.0,0.0,0.0,0.0,-5.4207,-5.4709,0.0,0.0,0.0,0.0,0.0,0.0,0.0,0.0,0.0,0.0,0.0,0.0,-5.671,-5.7913,-5.8076,-5.8042,-5.795,-5.7904,-5.7857,-5.7763,-5.7752,-5.7207,-5.6225,0.0,0.0,0.0,0.0,0.0,0.0,0.0,0.0,0.0,0.0,0.0,0.0,0.0,0.0,0.0,0.0,0.0,0.0,0.0,0.0,0.0,0.0,0.0,0.0,0.0,-5.4162,0.0,0.0,0.0,0.0,0.0,0.0,0.0,0.0,0.0,0.0,0.0,-4.5719,-4.5429,-4.4888,-4.4665,-4.4907,-4.4841,-4.491,0.0,0.0,0.0,0.0,0.0,0.0,0.0,0.0,0.0,0.0,0.0,0.0,0.0,0.0,-3.6318,-3.506,-3.4275,-3.3982,-3.4513,0.0,0.0,0.0,0.0,0.0,0.0,0.0,0.0,0.0,0.0,0.0,0.0,0.0,0.0,-5.2902,0.0,-5.1702,0.0,0.0,0.0,0.0,0.0,0.0,0.0,0.0,-5.5358,-5.5671,-5.5113,-5.5615,-5.5787,0.0,-5.5643,-5.4994,0.0,0.0,0.0,0.0,0.0,0.0,0.0,0.0,-5.6945,-5.8326,-5.8268,-5.8133,-5.8088,-5.7997,-5.795,-5.7857,-5.781,-5.7496,-5.6769,-5.6539,-5.6174,0.0,0.0,0.0,0.0,0.0,0.0,0.0,0.0,0.0,0.0,0.0,0.0,0.0,0.0,0.0,0.0,0.0,0.0,0.0,0.0,0.0,0.0,0.0,-5.4669,0.0,0.0,0.0,0.0,0.0,0.0,0.0,0.0,0.0,-4.7921,-4.7374,-4.7033,-4.6472,-4.5859,-4.5279,-4.5295,0.0,0.0,0.0,0.0,0.0,0.0,0.0,-4.521,-4.4663,-4.3974,-4.284,-4.1126,-3.969,-3.8701,-3.8097,0.0,0.0,-3.5833,-3.499,-3.4605,-3.5137,-3.5119,-3.5027,-3.5027,-3.5027,-3.51,0.0,0.0,0.0,0.0,0.0,0.0,0.0,0.0,-5.3923,-5.3479,0.0,-5.3428,0.0,0.0,0.0,0.0,0.0,-5.4365,0.0,0.0,-5.5586,-5.5977,-5.5941,-5.5924,-5.5865,-5.5787,-5.5724,-5.5599,-5.5446,-5.5364,0.0,0.0,0.0,0.0,0.0,0.0,-5.6986,-5.8455,-5.8312,-5.8179,-5.8179,-5.8088,-5.7997,-5.7997,-5.7904,-5.7774,-5.781,-5.7534,-5.7338,-5.7224,-5.64,0.0,0.0,0.0,0.0,0.0,0.0,0.0,0.0,0.0,0.0,0.0,0.0,0.0,0.0,0.0,0.0,0.0,0.0,0.0,0.0,-5.4608,0.0,0.0,0.0,0.0,0.0,0.0,0.0,0.0,0.0,0.0,-4.8781,-4.8922,-4.8611,-4.7153,0.0,0.0,0.0,0.0,-4.5347,-4.537,-4.537,-4.537,-4.537,-4.537,-4.5097,-4.4411,0.0,0.0,-4.0146,-3.9493,-3.9062,-3.8105,-3.7175,-3.6514,-3.6696,-3.6127,-3.5595,-3.5632,-3.5357,-3.51,-3.5082,-3.5155,-3.5137,-5.565,0.0,0.0,0.0,0.0,-5.4851,-5.4804,-5.4819,-5.4788,-5.4606,-5.4344,-5.3963,0.0,0.0,0.0,0.0,0.0,0.0,-5.4465,-5.3962,-5.5354,-5.5668,-5.5091,-5.5654,-5.5865,-5.5787,-5.5745,-5.5621,-5.5554,-5.5461,-5.5314,-5.5085,0.0,0.0,0.0,0.0,-5.7144,-5.8418,-5.8443,-5.84,-5.8349,-5.8179,-5.8125,-5.7997,-5.795,-5.7904,-5.781,-5.7763,-5.7875,-5.8173,-5.7297,0.0,0.0,0.0,0.0,0.0,0.0,0.0,0.0,0.0,0.0,0.0,0.0,0.0,0.0,0.0,0.0,0.0,0.0,0.0,-5.6237,-5.6534,-5.6169,0.0,0.0,0.0,0.0,0.0,0.0,0.0,0.0,0.0,-5.0167,-4.976,-4.9292,0.0,0.0,-4.6989,-4.6083,-4.5661,-4.537,-4.537,-4.537,0.0,-4.537,-4.521,-4.4937,-4.4663,-4.3397,-4.1855,-4.031,-3.9565,-3.9121,-3.8561,-3.7911,-3.7558,-3.7518,-3.6515,-3.5779,-3.5944,-3.5944,-3.587,-3.587,-3.587,-3.587,-5.6243,-5.5801,-5.5778,-5.5772,-5.5762,-5.5723,-5.5489,-5.5186,-5.5121,-5.4694,-5.408,-5.3864,-5.3868,-5.3935,-5.3171,0.0,0.0,0.0,-5.4503,-5.4078,-5.5393,-5.5724,-5.5264,-5.5711,-5.5885,-5.5865,-5.5745,-5.5682,-5.5615,-5.5531,-5.5413,-5.5195,0.0,0.0,-5.6917,-5.7115,-5.7676,-5.8582,-5.8614,-5.8529,-5.8443,-5.8268,-5.817,-5.8088,-5.8373,-5.8427,-5.838,-5.8626,-5.8933,-5.9174,-5.8623,-5.8181,0.0,0.0,0.0,0.0,0.0,0.0,0.0,0.0,0.0,0.0,0.0,-5.4022,-5.4825,0.0,0.0,0.0,-5.6715,-5.7351,-5.7355,-5.7376,0.0,0.0,0.0,0.0,0.0,0.0,0.0,-5.0936,-5.1039,-5.111,-5.1073,-5.0602,-4.9977,-4.9257,-4.8206,-4.717,-4.6563,0.0,-4.537,-4.537,-4.537,-4.537,-4.537,-4.5074,-4.4663,-4.3952,-4.3013,-4.1867,-4.0575,-4.0137,-3.977,-3.9265,-3.8724,-3.8349,-3.831,-3.7258,-3.6329,-3.6421,-3.6311,-3.6201,-3.6201,-3.6201,-3.6201,-5.6556,-5.6489,-5.6484,-5.6491,-5.6511,-5.6503,-5.6026,-5.522,-5.5142,-5.4217,-5.2764,-5.3464,-5.3273,-5.2473,-5.3165,0.0,-5.3445,-5.4365,-5.4813,-5.4813,-5.5625,-5.6012,-5.5995,-5.5943,-5.5905,-5.5905,-5.5766,-5.5682,-5.5615,-5.5615,-5.5485,-5.5352,-5.5978,-5.6588,-5.7125,-5.7747,-5.839,-5.8899,-5.8818,-5.8656,-5.8529,-5.8312,-5.826,-5.8289,-5.8887,-5.9245,-5.9318,-5.992,-6.0225,-6.0298,-6.0026,-5.9823,-5.9704,0.0,0.0,0.0,0.0,0.0,0.0,0.0,0.0,0.0,0.0,0.0,0.0,0.0,0.0,0.0,-5.8479,0.0,-5.8145,-5.7557,0.0,0.0,0.0,-5.3527,-5.284,-5.1792,-5.1203,-5.1736,0.0,0.0,-5.1544,-5.122,-5.0741,-4.9719,-4.8411,-4.7265,-4.6587,-4.589,-4.5483,-4.537,-4.537,-4.537,-4.537,-4.5074,-4.425,-4.3023,-4.2707,-4.2102,-4.0837,-4.072,-4.0724,-4.0014,-3.9259,-3.8652,-3.8652,-3.7986,-3.7319,-3.6934,-3.6604,-3.6329,-3.6366,-3.6366,-3.6384,-5.6528,-5.6484,-5.6491,-5.6496,-5.6503,-5.6503,-5.6338,-5.6038,-5.5395,-5.4819,-5.4358,-5.3907,-5.3222,-5.2433,-5.3208,-5.3219,-5.2676,-5.411,-5.4813,-5.4851,-5.5625,-5.6012,-5.5995,-5.5943,-5.5905,-5.5885,-5.5766,-5.5703,-5.5682,-5.5638,-5.5554,-5.5585,-5.6856,-5.7358,-5.7125,-5.7747,-5.8391,-5.8945,-5.8945,-5.8862,-5.8656,-5.8614,-5.8739,-5.9099,-5.9283,-5.9595,-6.0089,-6.0261,-6.0579,-6.1066,-6.0468,-6.0245,-6.0659,-5.9888,0.0,0.0,0.0,0.0,0.0,0.0,0.0,0.0,0.0,-5.7291,-5.8828,0.0,-5.9329,0.0,-5.934,-5.9123,-5.8711,-5.8428,0.0,0.0,-5.5737,-5.4697,-5.3874,-5.2796,-5.212,-5.2006,-5.1662,-5.1439,-5.157,-5.1094,-5.0487,-4.9719,-4.8837,-4.7918,-4.6965,-4.6294,-4.5619,-4.5506,-4.537,-4.537,-4.5393,-4.48,-4.4019,-4.2786,-4.2465,-4.1897,-4.102,-4.0692,-4.0464,-3.9883,-3.9278,-3.8804,-3.8671,-3.8042,-3.7411,-3.7301,-3.7209,-3.7136,-3.7136,-3.7136,-3.7118,-5.686,-5.6509,-5.6471,-5.648,-5.6503,-5.6503,-5.6251,-5.5784,-5.5307,-5.4847,-5.4373,-5.3506,-5.2873,-5.2445,-5.2834,-5.3155,-5.3543,-5.4381,-5.4967,-5.5354,-5.5818,-5.6012,-5.6012,-5.5961,-5.5924,-5.5885,-5.5825,-5.5724,-5.5703,-5.6022,-5.6176,-5.6214,-5.7723,-5.829,-5.8022,-5.8623,-5.9055,-5.9253,-5.914,-5.9061,-5.8902,-5.8781,-5.898,-5.9501,-5.9771,-6.0267,-6.0896,-6.1263,-6.1655,-6.2008,-6.1455,-6.1317,-6.16,-6.0919,-6.0339,0.0,0.0,0.0,0.0,0.0,0.0,0.0,0.0,0.0,0.0,0.0,-6.0796,-6.076,-6.0299,-5.9827,-5.9439,-5.8997,-5.8335,-5.7416,-5.6164,-5.5144,-5.446,-5.3349,-5.2465,-5.2368,-5.1846,-5.1596,-5.1596,-5.0968,-5.0334,-4.9719,-4.8942,-4.8133,-4.6965,-4.6294,-4.5754,-4.5506,-4.537,-4.5302,-4.5233,-4.5044,-4.4457,-4.3262,-4.264,-4.2084,-4.1279,-4.0744,-4.0354,-4.0117,-3.9567,-3.9012,-3.9163,-3.8583,-3.7961,-3.7961,-3.7961,-3.7833,-3.7503,-3.7429,-3.7429,-5.7434,-5.6673,-5.6652,-5.6597,-5.6503,-5.6503,-5.6008,-5.5258,-5.5141,-5.4564,-5.365,-5.3028,-5.2678,-5.2601,-5.2731,-5.3543,-5.4885,-5.4939,-5.5354,-5.6012,-5.6012,-5.6012,-5.6012,-5.5998,-5.5981,-5.5905,-5.5807,-5.5805,-5.5895,-5.6582,-5.6967,-5.7143,-5.8539,-5.919,-5.9092,-5.971,-5.9918,-5.9616,-5.9365,-5.9253,-5.9215,-5.9014,-5.9255,-5.9863,-6.0453,-6.1077,-6.1704,-6.2438,-6.2805,-6.2755,-6.2662,-6.2579,-6.2526,-6.2259,-6.1903,0.0,-6.19,0.0,0.0,0.0,0.0,0.0,0.0,0.0,0.0,-6.2061,-6.246,-6.1721,-6.1103,-6.0512,-5.9986,-5.9129,-5.8225,-5.7416,-5.6193,-5.5289,-5.4607,-5.3349,-5.2615,-5.2615,-5.197,-5.1596,-5.1596,-5.0968,-5.0359,-4.9744,-4.9066,-4.8196,-4.6792,-4.6277,-4.6029,-4.5598,-4.5507,-4.553,-4.5315,-4.5438,-4.5168,-4.3868,-4.3024,-4.2435,-4.1434,-4.0821,-4.0459,-4.0508,-3.999,-3.9485,-3.9845,-3.9096,-3.8621,-3.8585,-3.8566,-3.8383,-3.7833,-3.7649,-3.7576,-5.8357,-5.7563,-5.7494,-5.7096,-5.6503,-5.6503,-5.6359,-5.6114,-5.5413,-5.4564,-5.3766,-5.4271,-5.4116,-5.3572,-5.4854,-5.5278,-5.4924,-5.5575,-5.593,-5.6012,-5.6012,-5.6012,-5.6012,-5.5998,-5.5981,-5.5905,-5.5807,-5.6113,-5.6746,-5.6896,-5.7357,-5.8066,-5.9004,-5.9418,-5.9383,0.0,0.0,0.0,-5.9543,-5.9474,-5.929,-5.9814,-6.0245,-6.0678,-6.1348,0.0,-6.2548,-6.2732,-6.2755,-6.2691,-6.3225,0.0,0.0,0.0,0.0,0.0,0.0,0.0,0.0,0.0,0.0,0.0,-6.341,-6.3097,-6.2267,-6.2547,-6.2551,-6.1985,-6.1103,-6.0377,-5.9986,-5.8991,-5.7974,-5.7303,-5.6164,-5.5289,-5.4607,-5.347,-5.2615,-5.2588,-5.197,-5.1596,-5.1596,-5.0968,-5.0359,-4.9769,-4.9076,-4.8257,-4.72,-4.6927,-4.6677,-4.6151,-4.6288,-4.6306,-4.5714,-4.5684,-4.5434,-4.4198,-4.3384,-4.2652,-4.2169,-4.144,-4.1053,-4.1035,-4.0432,-3.9788,-3.9902,-3.9114,-3.864,-3.864,-3.864,-3.8603,-3.8438,-3.8401,-3.8401,-5.9201,0.0,-5.8351,-5.7866,0.0,-5.7087,-5.6835,-5.6368,-5.593,-5.5186,-5.4388,-5.4815,-5.4737,-5.4388,-5.5203,-5.555,-5.5559,-5.5939,-5.6046,-5.6012,-5.6012,-5.6012,-5.6012,-5.5977,-5.6173,-5.6483,-5.6502,-5.6886,-5.7615,-5.8033,-5.8473,-5.8912,-5.9742,-6.0104,-6.0071,-6.025,-6.0188,-5.9885,-5.9681,-5.9769,-6.0076,-6.0304,-6.0815,-6.167,-6.2019,0.0,0.0,0.0,0.0,0.0,0.0,0.0,0.0,-6.395,0.0,-6.3859,-6.3605,-6.3569,-6.3764,-6.3615,-6.3577,-6.3521,-6.3651,-6.3672,-6.3375,-6.3161,-6.271,-6.2016,-6.1103,-6.0377,-5.9986,-5.8882,-5.7974,-5.7303,-5.6164,-5.5261,-5.458,-5.347,-5.2588,-5.2588,-5.197,-5.1596,-5.1596,-5.0968,-5.0461,-5.0096,-4.943,-4.8657,-4.7832,-4.7466,-4.7051,-4.6657,-4.6931,-4.6968,-4.6254,-4.6312,-4.6011,-4.4697,-4.3781,-4.3084,-4.245,-4.1677,-4.1172,-4.1172,-4.0548,-3.9902,-3.9902,-3.9272,-3.864,-3.864,-3.864,-3.864,-3.864,-3.864,-3.864,-6.0005,-5.9225,-5.9239,-5.8724,-5.7944,-5.7788,-5.7225,-5.6378,0.0,0.0,0.0,-5.5398,-5.5359,-5.5242,-5.532,-5.568,-5.618,-5.6133,-5.6101,-5.6012,-5.6012,-5.6012,-5.6012,-5.6167,-5.6539,-5.7101,-5.7332,-5.7793,-5.8501,-5.9188,-5.9565,-5.9796,-6.0473,-6.0757,-6.066,-6.0387,-6.0235,-6.0235,-5.9975,-6.0179,-6.0861,-6.0905,-6.1422,-6.2519,-6.2612,-6.2752,-6.3062,-6.3149,-6.3369,-6.3774,-6.3909,-6.4166,-6.4462,-6.4374,-6.4337,-6.4479,-6.4498,-6.4489,-6.4426,-6.4719,-6.4564,-6.3755,-6.3736,-6.3956,-6.436,-6.3675,-6.2905,-6.2116,-6.1308,-6.0586,-6.0016,-5.8882,-5.7974,-5.7303,-5.6164,-5.5289,-5.4607,-5.347,-5.2615,-5.2615,-5.197,-5.1596,-5.1596,-5.1071,-5.064,-5.0318,-4.9825,-4.9179,-4.84,-4.7773,-4.7328,-4.7348,-4.7551,-4.747,-4.6793,-4.6872,-4.6551,-4.4998,-4.4159,-4.333,-4.2604,-4.1657,-4.1327,-4.1172,-4.0529,-4.0059,-3.9902,-3.9114,-3.864,-3.864,-3.864,-3.864,-3.864,-3.864,-3.864,-6.0902,-6.0122,-6.0097,-5.962,-5.8763,-5.8022,-5.7215,-5.6397,-5.6325,-5.6251,-5.6175,-5.6913,-5.6796,-5.6175,-5.69,-5.6859,-5.6218,-5.6188,-5.6101,0.0,-5.6012,-5.6012,-5.6051,-5.6786,-5.7157,-5.7255,-5.7911,-5.862,-5.9265,-5.9435,-5.9896,-6.055,-6.0742,-6.0734,-6.0649,-6.0506,-6.0685,-6.1172,-6.1012,-6.0884,-6.0898,-6.2146,-6.2743,-6.272,-6.3133,-6.3363,-6.3373,-6.3763,-6.3957,-6.3847,-6.5004,-6.5472,-6.5035,-6.5428,-6.5546,-6.5207,-6.5608,-6.5724,-6.5155,-6.5446,-6.5402,-6.4825,-6.4619,-6.4604,-6.4577,-6.377,-6.2905,-6.2383,-6.1379,-6.0617,-5.9986,-5.8882,-5.7974,-5.7303,-5.6193,-5.5289,-5.4726,-5.347,-5.2615,-5.2588,-5.197,-5.1596,-5.1549,-5.1381,-5.1073,-5.0544,-5.0284,-4.9806,-4.9038,-4.809,-4.7757,-4.8056,-4.824,-4.7995,-4.7198,-4.7118,-4.6596,-4.5084,-4.4201,-4.333,-4.2604,-4.1812,-4.1191,-4.1191,-4.0548,-3.9902,-3.9902,-3.9114,-3.864,-3.864,-3.864,-3.864,-3.864,-3.864,-3.864,-6.1361,-6.1002,-6.0993,-6.0516,-5.962,-5.8256,-5.7449,-5.7009,-5.6531,-5.6341,-5.633,-5.6719,-5.668,-5.6369,-5.6719,-5.664,-5.6218,-5.6226,-5.6117,-5.6012,-5.6012,-5.6244,-5.6708,-5.7095,-5.7737,-5.8567,-5.8914,-5.9468,-6.015,-6.0204,-6.0435,-6.0781,-6.0781,-6.071,-6.0623,-6.0966,-6.1249,-6.1393,-6.1235,-6.1413,-6.2181,-6.2824,-6.3233,-6.3355,-6.3637,-6.3833,-6.3955,-6.418,-6.4522,-6.4984,-6.5551,-6.5794,-6.579,-6.5842,-6.5882,-6.5849,-6.607,-6.611,-6.592,-6.5783,-6.5739,-6.5612,-6.5015,-6.4702,-6.4702,-6.377,-6.3002,-6.2383,-6.141,-6.0617,-5.9986,-5.8882,-5.7974,-5.7303,-5.6164,-5.5289,-5.458,-5.347,-5.2615,-5.2588,-5.197,-5.1727,-5.204,-5.1665,-5.1481,-5.1197,-5.0661,-4.9818,-4.9342,-4.8627,-4.8125,-4.8354,-4.8377,-4.8086,-4.7355,-4.7186,-4.6448,-4.5106,-4.4201,-4.3413,-4.2786,-4.1971,-4.1445,-4.1445,-4.0702,-3.9921,-3.9902,-3.9114,-3.864,-3.864,-3.864,-3.864,-3.864,-3.864,-3.864,-6.1595,-6.1578,-6.1578,-6.111,-6.0165,-5.888,-5.815,-5.7826,-5.7048,-5.6625,-5.6576,-5.6408,-5.6291,-5.6291,-5.6291,-5.6251,-5.6218,-5.6211,-5.6217,-5.6283,-5.6283,-5.6786,-5.7559,-5.7753,-5.8548,-5.9608,-5.9917,-6.0278,-6.0766,-6.0781,-6.0781,-6.0781,-6.0781,-6.0825,-6.0891,-6.1452,-6.1812,-6.1957,-6.1799,-6.2277,-6.3238,-6.3427,-6.3648,-6.392,-6.3915,-6.4071,-6.4435,-6.4561,-6.5087,-6.5953,-6.6078,-6.6134,-6.6294,-6.6074,-6.6144,-6.638,-6.6599,-6.6706,-6.678,-6.628,-6.5952,-6.6029,-6.5303,-6.4793,-6.461,-6.3865,-6.3002,-6.2383,-6.1512,-6.069,-5.9986,-5.8991,-5.8085,-5.7303,-5.6279,-5.5407,-5.458,-5.347,-5.2738,-5.2588,-5.2075,-5.1988,-5.2279,-5.2078,-5.1859,-5.1668,-5.0524,-4.9628,-4.9365,-4.8812,-4.8377,-4.8377,-4.8377,-4.8086,-4.7355,-4.7186,-4.6448,-4.5106,-4.4327,-4.3689,-4.2948,-4.203,-4.1523,-4.1543,-4.074,-3.994,-3.9902,-3.9272,-3.864,-3.864,-3.864,-3.864,-3.864,-3.864,-3.864,-6.158,-6.1603,-6.1595,-6.108,-6.0321,-6.0088,-5.9513,-5.8721,-5.7865,-5.748,-5.7392,-5.6641,-5.633,-5.6291,-5.6291,-5.6251,-5.6257,-5.6217,-5.6553,-5.7134,-5.7172,-5.7637,-5.8488,-5.9261,-5.9669,-5.984,-6.0496,-6.0779,-6.0804,-6.0781,-6.0819,-6.0781,-6.0781,-6.1132,-6.1646,-6.1773,-6.247,-6.3726,-6.3708,-6.3517,-6.3351,-6.4106,-6.4367,-6.4083,-6.3995,-6.4159,-6.4782,-6.5212,-6.569,-6.6189,-6.6587,-6.6677,-6.6402,-6.651,-6.6545,-6.6486,-6.7412,-6.8029,-6.7851,-6.7175,-6.6542,-6.6062,-6.5425,-6.4918,-6.4702,-6.3959,-6.3196,-6.2481,-6.1613,-6.0794,-6.0092,-5.9129,-5.8225,-5.7416,-5.6423,-5.5641,-5.4726,-5.374,-5.2983,-5.2588,-5.247,-5.2433,-5.254,-5.275,-5.2506,-5.1803,-5.0551,-4.9509,-4.9509,-4.8812,-4.8377,-4.8377,-4.8377,-4.8086,-4.7479,-4.7186,-4.647,-4.5148,-4.4863,-4.407,-4.3062,-4.2521,-4.2151,-4.1465,-4.0625,-3.9921,-3.9745,-3.9272,-3.864,-3.864,-3.864,-3.864,-3.864,-3.864,-3.864,-6.1641,-6.158,-6.158,-6.1417,-6.1041,-6.0525,-6.0059,-5.9616,-5.8721,-5.8387,-5.8273,-5.7444,-5.677,-5.633,-5.6291,-5.6523,-5.6916,-5.6947,-5.7379,-5.8076,-5.8131,-5.8574,-5.9387,-5.9702,-6.0112,-6.0519,-6.0866,-6.0959,-6.0933,-6.0888,-6.1097,-6.1512,-6.155,-6.1901,-6.254,-6.3077,-6.358,-6.3993,-6.4432,-6.4533,-6.4289,-6.4482,-6.4405,-6.42,-6.4444,-6.486,-6.5308,-6.5841,-6.6397,-6.6738,-6.6743,-6.6825,-6.6988,-6.6738,-6.6908,-6.7691,-6.8252,-6.8392,-6.8083,-6.7277,-6.6643,-6.6095,-6.5514,-6.5008,-6.4702,-6.4053,-6.3293,-6.2481,-6.1714,-6.0928,-6.0092,-5.9237,-5.8335,-5.7416,-5.6537,-5.5641,-5.4726,-5.4039,-5.352,-5.3174,-5.3023,-5.3164,-5.34,-5.3125,-5.2603,-5.1771,-5.0506,-4.9509,-4.9509,-4.8812,-4.8377,-4.8377,-4.8377,-4.8086,-4.7355,-4.7186,-4.6558,-4.5621,-4.5074,-4.4349,-4.3447,-4.2701,-4.2191,-4.17,-4.0702,-3.9921,-3.9902,-3.9272,-3.864,-3.864,-3.864,-3.864,-3.864,-3.864,-3.864,-6.166,-6.1609,-6.1634,-6.158,-6.1526,-6.0915,-6.0614,-6.0456,-5.9666,-5.9266,-5.9165,-5.8336,-5.7624,-5.7016,-5.677,-5.6964,-5.7412,-5.773,-5.828,-5.8978,-5.9033,-5.9514,-6.0289,-6.0278,-6.0536,-6.1002,-6.1022,-6.1136,-6.1267,-6.1241,-6.1659,-6.2329,-6.2459,-6.2746,-6.3449,-6.4151,-6.4384,-6.4474,-6.4959,-6.5095,-6.4996,-6.4935,-6.4744,-6.4537,-6.4892,-6.5411,-6.5977,-6.6367,-6.6769,-6.7137,-6.6931,-6.7004,-6.7456,-6.7242,-6.7621,-6.8681,-6.8803,-6.8474,-6.8004,-6.7229,-6.6643,-6.6095,-6.5514,-6.5066,-6.4702,-6.4053,-6.326,-6.2481,-6.1683,-6.1,-6.0092,-5.9237,-5.8445,-5.7528,-5.6623,-5.5786,-5.5067,-5.4515,-5.4171,-5.3761,-5.3757,-5.3818,-5.3944,-5.3419,-5.2579,-5.1796,-5.0506,-4.9509,-4.9365,-4.8957,-4.8377,-4.8377,-4.8377,-4.8086,-4.7355,-4.7365,-4.6823,-4.6009,-4.5285,-4.4878,-4.3812,-4.3038,-4.2308,-4.1602,-4.0663,-3.994,-3.9745,-3.9272,-3.864,-3.864,-3.864,-3.864,-3.864,-3.864,-3.864,-6.1715,-6.1671,-6.1627,-6.1603,-6.1564,-6.15,-6.1481,-6.1295,-6.0555,-6.0194,-6.0055,-5.9227,-5.8799,-5.8682,-5.7974,-5.7548,-5.7677,-5.842,-5.9204,-5.9917,-5.9956,-6.0422,-6.122,-6.1169,-6.1134,-6.1214,-6.1157,-6.1504,-6.2138,-6.2111,-6.249,-6.3299,-6.3267,-6.363,-6.4254,-6.4419,-6.4719,-6.5222,-6.522,-6.5199,-6.5247,-6.5538,-6.5572,-6.5361,-6.5229,-6.5783,-6.6605,-6.6662,-6.6806,-6.7174,-6.7474,-6.758,-6.7609,-6.8275,-6.8823,-6.9017,-6.8822,-6.8397,-6.7845,-6.7229,-6.661,-6.6095,-6.5658,-6.5156,-6.4702,-6.4207,-6.342,-6.2481,-6.1885,-6.1103,-6.0092,-5.9452,-5.8694,-5.7839,-5.6993,-5.6245,-5.5834,-5.5304,-5.4758,-5.452,-5.4467,-5.4341,-5.4113,-5.3402,-5.2629,-5.1796,-5.0506,-4.9509,-4.9365,-4.8812,-4.8546,-4.84,-4.8423,-4.8109,-4.74,-4.7499,-4.7043,-4.6311,-4.5821,-4.5419,-4.4038,-4.2994,-4.2345,-4.1523,-4.0625,-3.9921,-3.9745,-3.943,-3.8798,-3.864,-3.864,-3.864,-3.864,-3.864,-3.864,-6.1697,-6.1715,-6.1693,-6.168,-6.1641,-6.1619,-6.1603,-6.1539,-6.1266,-6.111,-6.0945,-6.0185,-5.9796,-5.9776,-5.9464,-5.9254,-5.9218,-5.9529,-6.0137,-6.0847,-6.0928,-6.1097,-6.1303,-6.1337,-6.1601,-6.1995,-6.2022,-6.2393,-6.309,-6.3106,-6.3444,-6.4108,-6.42,-6.4526,-6.506,-6.5148,-6.5255,-6.5375,-6.5258,-6.5427,-6.5927,-6.5841,-6.6137,-6.6908,-6.6805,-6.6788,-6.6851,-6.7126,-6.7432,-6.794,-6.7716,-6.8022,-6.8902,-6.9344,-6.9316,-6.9118,-6.8892,-6.8397,-6.7879,-6.7146,-6.6643,-6.6095,-6.5658,-6.5246,-6.4669,-6.4207,-6.3516,-6.258,-6.1885,-6.1206,-6.0197,-5.9452,-5.8952,-5.842,-5.7599,-5.6929,-5.654,-5.6224,-5.5834,-5.5088,-5.4918,-5.473,-5.4029,-5.3291,-5.2629,-5.182,-5.0506,-4.9652,-4.9365,-4.8812,-4.84,-4.8446,-4.8653,-4.8566,-4.7827,-4.779,-4.7587,-4.6874,-4.6245,-4.5274,-4.4086,-4.323,-4.2541,-4.1464,-4.0548,-3.9902,-3.9588,-3.9114,-3.864,-3.864,-3.864,-3.864,-3.864,-3.864,-3.864,-6.1707,-6.172,-6.171,-6.1705,-6.1666,-6.1609,-6.1588,-6.1573,-6.1573,-6.1573,-6.1456,-6.0963,-6.0698,-6.0715,-6.0737,-6.0653,-6.0577,-6.0628,-6.0915,-6.1383,-6.1499,-6.1627,-6.1836,-6.1836,-6.2235,-6.289,-6.2959,-6.3356,-6.4019,-6.4038,-6.4419,-6.508,-6.5134,-6.5282,-6.5559,-6.5608,-6.5638,-6.5757,-6.5677,-6.5998,-6.6654,-6.6673,-6.6967,-6.7776,-6.8009,-6.7794,-6.7345,-6.7736,-6.8074,-6.832,-6.827,-6.873,-6.9685,-6.9882,-6.9598,-6.9043,-6.8705,-6.8319,-6.7719,-6.7063,-6.6558,-6.6095,-6.5658,-6.5246,-6.4669,-6.4207,-6.342,-6.2548,-6.1885,-6.1237,-6.0441,-5.9861,-5.9389,-5.8914,-5.8234,-5.7672,-5.7426,-5.7107,-5.6432,-5.5649,-5.5208,-5.4779,-5.4132,-5.3291,-5.2629,-5.1935,-5.0506,-4.9509,-4.9365,-4.8957,-4.8492,-4.8607,-4.8882,-4.8828,-4.8501,-4.8575,-4.7617,-4.6936,-4.6245,-4.5315,-4.4086,-4.3427,-4.2501,-4.1425,-4.0529,-3.9902,-3.943,-3.8956,-3.8798,-3.864,-3.864,-3.864,-3.864,-3.864,-3.864,-6.1713,-6.1725,-6.172,-6.172,-6.1676,-6.1654,-6.1595,-6.1595,-6.1595,-6.1602,-6.1595,-6.1534,-6.1463,-6.1549,-6.1463,-6.1526,-6.1586,-6.1549,-6.1546,-6.1639,-6.1612,-6.2079,-6.2768,-6.2743,-6.3132,-6.3906,-6.3906,-6.4265,-6.4966,-6.4987,-6.5273,-6.5859,-6.589,-6.5743,-6.5608,-6.5723,-6.6021,-6.6445,-6.6445,-6.6836,-6.7601,-6.796,-6.8022,-6.8077,-6.8533,-6.8575,-6.8158,-6.8546,-6.8623,-6.8575,-6.9209,-6.9788,-6.9883,-6.9885,-6.9525,-6.8857,-6.8551,-6.8083,-6.7557,-6.6896,-6.6473,-6.6095,-6.5692,-6.5156,-6.4669,-6.4207,-6.3452,-6.258,-6.1979,-6.1454,-6.0959,-6.0663,-6.0206,-5.9398,-5.8929,-5.8537,-5.8203,-5.766,-5.7004,-5.618,-5.5472,-5.4831,-5.4132,-5.3291,-5.2629,-5.1796,-5.0506,-4.9509,-4.9389,-4.8858,-4.8653,-4.8951,-4.9296,-4.941,-4.9435,-4.9227,-4.7992,-4.6846,-4.6294,-4.5544,-4.3861,-4.2873,-4.2186,-4.1308,-4.0529,-3.9902,-3.9114,-3.864,-3.864,-3.864,-3.864,-3.864,-3.864,-3.864,-3.864,-6.1718,-6.1715,-6.1709,-6.1697,-6.172,-6.1671,-6.1666,-6.1666,-6.1666,-6.1666,-6.1666,-6.1693,-6.1687,-6.1648,-6.1634,-6.1939,-6.2485,-6.2469,-6.2444,-6.2406,-6.2455,-6.2873,-6.3542,-6.3687,-6.4091,-6.4831,-6.5421,-6.5763,-6.5924,-6.5875,-6.5953,-6.6041,-6.6013,-6.5846,-6.5685,-6.6183,-6.6595,-6.6713,-6.7088,-6.7711,-6.8399,-6.8376,-6.8477,-6.8753,-6.887,-6.8873,-6.8934,-6.8877,-6.8953,-6.9253,-6.957,-6.9859,-6.9849,-6.9742,-6.9379,-6.8781,-6.8551,-6.8162,-6.7557,-6.6896,-6.6354,-6.6095,-6.5514,-6.5066,-6.4702,-6.402,-6.3389,-6.2576,-6.2292,-6.1908,-6.1233,-6.1698,-6.1567,-6.0668,-5.9888,-5.9285,-5.8699,-5.7459,-5.644,-5.6052,-5.5472,-5.4831,-5.4132,-5.3291,-5.2629,-5.1796,-5.053,-4.9509,-4.9412,-4.909,-4.8882,-4.9112,-4.9468,-4.9844,-4.9643,-4.9361,-4.8366,-4.7087,-4.6252,-4.5335,-4.3657,-4.2557,-4.1872,-4.1152,-4.0372,-3.9745,-3.8956,-3.864,-3.864,-3.864,-3.864,-3.864,-3.864,-3.864,-3.864,-6.1707,-6.1713,-6.1718,-6.1716,-6.1707,-6.1701,-6.1697,-6.1697,-6.1694,-6.1729,-6.172,-6.171,-6.19,-6.2134,-6.2116,-6.2623,-6.3332,-6.341,-6.3553,-6.3678,-6.3444,-6.3865,-6.4617,-6.4938,-6.5267,-6.5738,-6.6295,-6.6508,-6.6461,-6.6376,-6.6264,-6.608,-6.6036,-6.6063,-6.6096,-6.6605,-6.7016,-6.7553,-6.7964,-6.8548,-6.9125,-6.902,-6.8929,-6.9166,-6.9282,-6.9309,-6.9289,-6.9539,-6.9795,-7.0032,-7.0211,-7.0145,-6.992,-6.9742,-6.9379,-6.8781,-6.8397,-6.8039,-6.7475,-6.6812,-6.6268,-6.6009,-6.5514,-6.5008,-6.461,-6.4053,-6.3357,-6.2893,-6.2637,-6.2279,-6.1934,-6.2243,-6.2318,-6.1584,-6.0763,-5.9858,-5.8843,-5.7275,-5.6236,-5.6,-5.5498,-5.4805,-5.4132,-5.3291,-5.2604,-5.1796,-5.0506,-4.965,-4.9623,-4.9345,-4.9329,-4.9548,-5.0099,-5.0079,-4.9782,-4.9318,-4.8719,-4.7394,-4.5919,-4.4702,-4.3143,-4.2456,-4.1618,-4.0841,-4.0078,-3.9588,-3.8956,-3.864,-3.864,-3.864,-3.864,-3.864,-3.864,-3.864,-3.864,-6.1754,-6.1725,-6.1707,-6.1713,-6.1716,-6.1718,-6.1716,-6.1715,-6.1711,-6.1704,-6.169,-6.1842,-6.2228,-6.2852,-6.2959,-6.3545,-6.4258,-6.4375,-6.4794,-6.5094,-6.4886,-6.4872,-6.5558,-6.6108,-6.639,-6.6513,-6.6569,-6.6524,-6.6428,-6.6394,-6.6322,-6.6212,-6.6244,-6.6409,-6.6891,-6.7027,-6.7821,-6.8776,-6.8993,-6.9386,-7.0035,-6.9739,-6.9495,-6.9353,-6.9723,-6.9867,-6.9858,-7.0588,-7.0982,-7.0811,-7.077,-7.0575,-7.0026,-6.9885,-6.9452,-6.8746,-6.8319,-6.7879,-6.7394,-6.661,-6.6095,-6.6009,-6.5425,-6.5008,-6.4577,-6.3991,-6.3452,-6.3236,-6.295,-6.2681,-6.2695,-6.2798,-6.2505,-6.1939,-6.111,-5.9957,-5.8424,-5.7044,-5.6263,-5.6,-5.5472,-5.4831,-5.4132,-5.3291,-5.2629,-5.182,-5.0578,-5.0005,-4.9998,-4.9886,-4.9858,-5.0145,-5.0582,-5.0398,-5.0052,-4.9605,-4.8786,-4.713,-4.5637,-4.4205,-4.3022,-4.2202,-4.1308,-4.0529,-3.9902,-3.943,-3.8956,-3.8798,-3.864,-3.864,-3.864,-3.864,-3.864,-3.864,-3.864,-6.2245,-6.172,-6.169,-6.1694,-6.1694,-6.1701,-6.1713,-6.1718,-6.1718,-6.1756,-6.1832,-6.2373,-6.2797,-6.3071,-6.3728,-6.4423,-6.5082,-6.5273,-6.5702,-6.6399,-6.6282,-6.6174,-6.6377,-6.6594,-6.6683,-6.6691,-6.6672,-6.6542,-6.6485,-6.6545,-6.669,-6.7045,-6.6977,-6.7256,-6.785,-6.8369,-6.8816,-6.9234,-6.968,-6.9918,-7.0111,-6.9853,-6.98,-7.0067,-7.0126,-7.0487,-7.0988,-7.1521,-7.1539,-7.0979,-7.0836,-7.0511,-6.9956,-6.967,-6.927,-6.8752,-6.8206,-6.7672,-6.7165,-6.6507,-6.6009,-6.5867,-6.5246,-6.4702,-6.4426,-6.377,-6.3256,-6.3161,-6.3152,-6.3251,-6.3098,-6.3295,-6.281,-6.1525,-6.0502,-5.9397,-5.8297,-5.7017,-5.6132,-5.6,-5.5498,-5.4805,-5.4132,-5.3291,-5.2629,-5.1894,-5.0842,-5.019,-5.0373,-5.0248,-5.026,-5.0513,-5.0727,-5.0671,-5.0297,-4.9805,-4.8653,-4.6803,-4.5272,-4.404,-4.2786,-4.1812,-4.0997,-4.0216,-4.0059,-3.9588,-3.8956,-3.864,-3.864,-3.864,-3.864,-3.864,-3.864,-3.864,-3.864,-6.2935,-6.2212,-6.2217,-6.2022,-6.171,-6.1715,-6.1697,-6.1793,-6.2107,-6.2224,-6.2421,-6.3163,-6.3746,-6.4137,-6.4643,-6.5297,-6.6058,-6.6141,-6.6418,-6.677,-6.6761,-6.6745,-6.6759,-6.6736,-6.6711,-6.6761,-6.7008,-6.71,-6.716,-6.7282,-6.7658,-6.7862,-6.7888,-6.8142,-6.8666,-6.9136,-6.9506,-6.9731,-7.0099,-7.0337,-7.057,-7.0269,-7.0399,-7.0811,-7.0976,-7.1491,-7.1968,-7.2028,-7.1646,-7.1175,-7.0847,-7.0511,-6.9956,-6.9598,-6.9161,-6.8717,-6.8128,-6.7591,-6.7116,-6.6455,-6.6009,-6.5692,-6.5156,-6.4577,-6.4305,-6.3805,-6.3539,-6.3531,-6.3777,-6.3733,-6.3385,-6.3373,-6.2466,-6.1106,-6.0043,-5.9052,-5.8325,-5.7174,-5.6394,-5.6,-5.5604,-5.4965,-5.4132,-5.3291,-5.2754,-5.2115,-5.1106,-5.0811,-5.0818,-5.0758,-5.0742,-5.0949,-5.091,-5.0807,-5.0162,-4.9493,-4.8256,-4.6433,-4.4535,-4.331,-4.2416,-4.1463,-4.0841,-4.0216,-4.0059,-3.9745,-3.9114,-3.864,-3.864,-3.864,-3.864,-3.864,-3.864,-3.864,-3.864,-6.3811,-6.3038,-6.3091,-6.2675,-6.2095,-6.1988,-6.2158,-6.2169,-6.2836,-6.3152,-6.3311,-6.406,-6.4765,-6.5625,-6.5586,-6.6166,-6.6839,-6.6774,-6.682,-6.6895,-6.6848,-6.679,-6.6784,-6.6798,-6.6845,-6.7014,-6.7592,-6.7839,-6.8,-6.8524,-6.882,-6.879,-6.8737,-6.9027,-6.9424,-6.9596,-6.9889,-7.0195,-7.0369,-7.0646,-7.0991,-7.0945,-7.1181,-7.162,-7.2074,-7.2303,-7.2336,-7.2167,-7.1682,-7.1045,-7.0979,-7.0579,-6.9956,-6.967,-6.927,-6.8676,-6.8162,-6.7544,-6.7066,-6.6455,-6.6009,-6.5692,-6.5066,-6.4676,-6.4467,-6.4224,-6.4048,-6.4016,-6.4464,-6.4321,-6.3822,-6.2899,-6.191,-6.1015,-6.0165,-5.9301,-5.8325,-5.7303,-5.6524,-5.6132,-5.5868,-5.5072,-5.4267,-5.3478,-5.2942,-5.2245,-5.1297,-5.109,-5.1091,-5.0954,-5.0995,-5.127,-5.1162,-5.103,-5.0204,-4.9292,-4.7729,-4.6023,-4.3937,-4.2625,-4.1872,-4.1172,-4.0685,-4.0216,-4.0059,-3.943,-3.8798,-3.864,-3.864,-3.864,-3.864,-3.864,-3.864,-3.864,-3.864,-6.4645,-6.3936,-6.3936,-6.3878,-6.3745,-6.375,-6.3716,-6.372,-6.3915,-6.4032,-6.4228,-6.4935,-6.542,-6.5664,-6.625,-6.6752,-6.6883,-6.6883,-6.6891,-6.6901,-6.6887,-6.6834,-6.6829,-6.6805,-6.7126,-6.7521,-6.7798,-6.8189,-6.8676,-6.8834,-6.9169,-6.9563,-6.9625,-6.99,-7.0306,-7.0286,-7.0317,-7.0467,-7.0829,-7.1103,-7.1332,-7.1618,-7.1958,-7.2426,-7.2732,-7.2687,-7.248,-7.2167,-7.1682,-7.1175,-7.0979,-7.0647,-7.0026,-6.9598,-6.9157,-6.8663,-6.7959,-6.7414,-6.6846,-6.6402,-6.5922,-6.5514,-6.5066,-6.4747,-6.4864,-6.4417,-6.4361,-6.4455,-6.4671,-6.4537,-6.3923,-6.2847,-6.1909,-6.1284,-6.0409,-5.9426,-5.8578,-5.7688,-5.6915,-5.6263,-5.5868,-5.5206,-5.4132,-5.3751,-5.3181,-5.2274,-5.1825,-5.1514,-5.1361,-5.1301,-5.1355,-5.1431,-5.1254,-5.103,-4.9737,-4.8739,-4.692,-4.546,-4.3577,-4.2082,-4.1463,-4.1172,-4.0704,-4.0372,-3.9902,-3.943,-3.8798,-3.864,-3.864,-3.864,-3.864,-3.864,-3.864,-3.864,-3.864,-6.5523,-6.4848,-6.4825,-6.4613,-6.4286,-6.4297,-6.4297,-6.4414,-6.4765,-6.4921,-6.5077,-6.5829,-6.6195,-6.6242,-6.6679,-6.6872,-6.6901,-6.6883,-6.6887,-6.6898,-6.6887,-6.6834,-6.6829,-6.6805,-6.7087,-6.7491,-6.7798,-6.8164,-6.855,-6.9218,-6.9672,-6.9971,-7.0266,-7.0452,-7.069,-7.0746,-7.0776,-7.093,-7.121,-7.1597,-7.2162,-7.2449,-7.2778,-7.3041,-7.3097,-7.2835,-7.261,-7.2226,-7.1744,-7.1276,-7.1045,-7.0647,-6.9956,-6.9525,-6.9078,-6.8535,-6.7948,-6.7282,-6.6709,-6.635,-6.5922,-6.5425,-6.4976,-6.4943,-6.493,-6.4705,-6.4609,-6.4695,-6.4799,-6.4707,-6.4045,-6.282,-6.1968,-6.1255,-6.0531,-5.955,-5.8578,-5.7816,-5.7044,-5.6394,-5.5973,-5.5389,-5.477,-5.4091,-5.3543,-5.2934,-5.1939,-5.1592,-5.1688,-5.1555,-5.1447,-5.1431,-5.1431,-5.0894,-4.9426,-4.7882,-4.6094,-4.4663,-4.328,-4.2082,-4.1483,-4.1172,-4.086,-4.0372,-3.9902,-3.943,-3.8956,-3.8798,-3.864,-3.864,-3.864,-3.864,-3.864,-3.864,-3.864,-6.6361,-6.5874,-6.5753,-6.5308,-6.4821,-6.4799,-6.4804,-6.4843,-6.5429,-6.578,-6.5902,-6.6621,-6.6742,-6.6859,-6.6872,-6.6914,-6.6914,-6.6895,-6.6887,-6.6895,-6.6844,-6.6795,-6.679,-6.6805,-6.6978,-6.7048,-6.7615,-6.8021,-6.8759,-6.9489,-7.0118,-7.0324,-7.0729,-7.0991,-7.092,-7.0938,-7.1236,-7.1697,-7.1972,-7.2282,-7.3065,-7.3312,-7.3575,-7.3553,-7.3231,-7.289,-7.263,-7.2226,-7.1744,-7.134,-7.1081,-7.0579,-7.0026,-6.9525,-6.9043,-6.8448,-6.7868,-6.7248,-6.6675,-6.6229,-6.5922,-6.5425,-6.4976,-6.4882,-6.5029,-6.4956,-6.495,-6.4945,-6.4894,-6.4685,-6.3993,-6.2877,-6.1939,-6.1255,-6.0652,-5.9673,-5.8578,-5.7944,-5.7303,-5.6394,-5.5895,-5.5363,-5.4756,-5.425,-5.3861,-5.3351,-5.2488,-5.1897,-5.1815,-5.1716,-5.1431,-5.1431,-5.1431,-5.0665,-4.9355,-4.7182,-4.5273,-4.4322,-4.2984,-4.2236,-4.1483,-4.1172,-4.086,-4.0216,-3.9745,-3.9272,-3.8956,-3.864,-3.864,-3.864,-3.864,-3.864,-3.864,-3.864,-3.864,-6.7082,-6.7617,-6.6892,-6.6883,-6.7258,-6.6678,-6.6288,-6.6405,-6.6444,-6.66,-6.6683,-6.6856,-6.6906,-6.6914,-6.6914,-6.6914,-6.6914,-6.6898,-6.6878,-6.6883,-6.6839,-6.6795,-6.679,-6.6961,-6.7212,-6.7695,-6.8043,-6.8605,-6.9536,-7.0188,-7.0467,-7.0943,-7.1154,-7.1299,-7.1641,-7.1712,-7.1969,-7.2503,-7.2925,-7.3306,-7.3515,-7.3829,-7.3989,-7.3815,-7.3305,-7.289,-7.263,-7.2285,-7.1805,-7.134,-7.0949,-7.0443,-6.9956,-6.9525,-6.9043,-6.8431,-6.7834,-6.7214,-6.6541,-6.6249,-6.578,-6.5279,-6.495,-6.5017,-6.5223,-6.5176,-6.5132,-6.5107,-6.4703,-6.4218,-6.3993,-6.2847,-6.1998,-6.1375,-6.0652,-5.9702,-5.8829,-5.8198,-5.7404,-5.6394,-5.5921,-5.5601,-5.4988,-5.448,-5.3948,-5.3522,-5.2743,-5.2026,-5.1624,-5.1585,-5.1431,-5.1431,-5.1431,-5.0352,-4.9063,-4.681,-4.476,-4.4175,-4.3136,-4.239,-4.1773,-4.1327,-4.086,-4.0216,-3.9745,-3.943,-3.9114,-3.864,-3.864,-3.864,-3.864,-3.864,-3.864,-3.864,-3.864,-6.7394,-6.7443,-6.7446,-6.7436,-6.7342,-6.699,-6.6795,-6.6795,-6.6795,-6.6834,-6.6878,-6.6887,-6.6906,-6.6914,-6.6914,-6.6914,-6.6914,-6.6904,-6.6887,-6.6878,-6.6834,-6.6795,-6.6951,-6.7234,-6.7641,-6.8085,-6.8433,-6.8955,-6.9798,-7.0072,-7.0641,-7.1214,-7.1579,-7.203,-7.2456,-7.2587,-7.2855,-7.3341,-7.365,-7.3873,-7.3878,-7.4147,-7.3934,-7.3728,-7.3305,-7.2927,-7.263,-7.2226,-7.1744,-7.134,-7.0949,-7.0374,-6.9813,-6.9379,-6.8857,-6.8319,-6.7799,-6.7146,-6.644,-6.6095,-6.5746,-6.5255,-6.5122,-6.5343,-6.5447,-6.5358,-6.5271,-6.5064,-6.4635,-6.3963,-6.3736,-6.2701,-6.188,-6.1135,-6.0409,-5.955,-5.8704,-5.8071,-5.7174,-5.6316,-5.608,-5.5778,-5.5339,-5.4703,-5.4055,-5.3542,-5.2949,-5.2307,-5.1585,-5.1431,-5.1408,-5.1048,-5.0933,-4.9791,-4.8552,-4.6614,-4.4805,-4.418,-4.3289,-4.2524,-4.1927,-4.1483,-4.086,-4.0059,-3.9745,-3.9588,-3.9114,-3.864,-3.864,-3.864,-3.864,-3.864,-3.864,-3.864,-3.864,-6.7638,-6.7121,-6.7805,-6.7721,-6.7107,-6.6873,-6.6795,-6.6795,-6.6795,-6.6839,-6.6883,-6.6878,-6.6898,-6.6914,-6.6914,-6.6914,-6.6912,-6.6904,-6.6895,-6.6878,-6.6834,-6.6834,-6.7258,-6.7741,-6.8422,-6.938,-6.9523,-6.9695,-7.0056,-7.0382,-7.097,-7.1872,-7.2505,-7.2916,-7.3338,-7.3468,-7.3777,-7.3989,-7.403,-7.4212,-7.4287,-7.4066,-7.3765,-7.3715,-7.3252,-7.2927,-7.263,-7.2167,-7.178,-7.1276,-7.0781,-7.0305,-6.967,-6.9157,-6.8705,-6.8083,-6.7638,-6.6946,-6.6354,-6.6009,-6.5658,-6.5008,-6.5482,-6.5606,-6.5574,-6.5504,-6.5321,-6.4875,-6.4331,-6.3849,-6.3478,-6.2555,-6.1642,-6.0802,-6.0071,-5.9329,-5.8451,-5.7688,-5.7044,-5.6476,-5.6371,-5.6008,-5.5395,-5.4695,-5.401,-5.3514,-5.2916,-5.2307,-5.1585,-5.1431,-5.1339,-5.0842,-5.0148,-4.9186,-4.7999,-4.6633,-4.532,-4.4461,-4.3594,-4.2544,-4.2102,-4.1483,-4.086,-4.0059,-3.9902,-3.9588,-3.9114,-3.864,-3.864,-3.864,-3.864,-3.864,-3.864,-3.864,-3.864,-6.7989,-6.7946,-6.8046,-6.8033,-6.7771,-6.7107,-6.6795,-6.6795,-6.6795,-6.6848,-6.6898,-6.6887,-6.6901,-6.6914,-6.6914,-6.6914,-6.6898,-6.6898,-6.6852,-6.6839,-6.6912,-6.7264,-6.7844,-6.7968,-6.9553,-7.0745,-7.1237,-7.142,-7.152,-7.1547,-7.2133,-7.3164,-7.3446,-7.3801,-7.4267,-7.428,-7.4576,-7.4942,-7.4866,-7.4664,-7.4387,-7.4009,-7.3765,-7.3564,-7.3252,-7.2872,-7.2496,-7.2084,-7.1656,-7.1211,-7.0615,-7.0026,-6.9598,-6.9083,-6.8474,-6.7925,-6.736,-6.6862,-6.6182,-6.5922,-6.5603,-6.5107,-6.5237,-6.5351,-6.5532,-6.5533,-6.5436,-6.4936,-6.4331,-6.3849,-6.3249,-6.2438,-6.1494,-6.0652,-5.9825,-5.908,-5.8198,-5.733,-5.6655,-5.6425,-5.6367,-5.5857,-5.5203,-5.4633,-5.4059,-5.3408,-5.2764,-5.2177,-5.1716,-5.1585,-5.1087,-5.0521,-4.9897,-4.8982,-4.7753,-4.6392,-4.5492,-4.4762,-4.3725,-4.2697,-4.2256,-4.1638,-4.086,-4.0216,-4.0059,-3.9588,-3.8956,-3.864,-3.864,-3.864,-3.864,-3.864,-3.864,-3.864,-3.864,-6.7734,-6.7407,-6.7865,-6.7805,-6.7342,-6.6951,-6.6795,-6.6795,-6.6834,-6.6887,-6.6904,-6.6906,-6.6911,-6.6914,-6.6914,-6.6914,-6.6887,-6.6887,-6.6848,-6.7034,-6.7303,-6.7771,-6.8385,-6.9536,-7.1152,-7.1828,-7.2807,-7.3533,-7.3511,-7.3294,-7.3527,-7.4262,-7.4424,-7.462,-7.5002,-7.5097,-7.5083,-7.5095,-7.4859,-7.4563,-7.4252,-7.4009,-7.3765,-7.3615,-7.3199,-7.2779,-7.238,-7.2024,-7.1531,-7.1015,-7.0478,-6.9885,-6.9305,-6.8781,-6.8241,-6.7638,-6.7029,-6.6525,-6.6182,-6.5955,-6.5425,-6.518,-6.5437,-6.5901,-6.5861,-6.569,-6.5375,-6.4635,-6.4218,-6.3736,-6.3019,-6.2204,-6.1375,-6.0438,-5.9578,-5.8955,-5.8071,-5.7044,-5.6396,-5.6371,-5.6196,-5.5699,-5.534,-5.4862,-5.418,-5.333,-5.2764,-5.2154,-5.1716,-5.1431,-5.0926,-5.026,-4.9661,-4.8869,-4.7664,-4.6536,-4.5598,-4.4784,-4.3746,-4.2851,-4.241,-4.1793,-4.0841,-4.0372,-4.0059,-3.943,-3.8798,-3.864,-3.864,-3.864,-3.864,-3.864,-3.864,-3.864,-3.864,-6.7313,-6.6908,-6.7721,-6.7615,-6.6834,-6.6795,-6.6795,-6.6795,-6.6873,-6.6883,-6.6901,-6.6914,-6.6914,-6.6914,-6.6914,-6.691,-6.6887,-6.6878,-6.7029,-6.7342,-6.7966,-6.8708,-6.9751,-7.1253,-7.24,-7.2821,-7.4002,-7.4856,-7.5228,-7.512,-7.4879,-7.5296,-7.5208,-7.5322,-7.5533,-7.5489,-7.5356,-7.5017,-7.4733,-7.4432,-7.4151,-7.3912,-7.3678,-7.3424,-7.3108,-7.2667,-7.2226,-7.1842,-7.134,-7.0817,-7.0272,-6.967,-6.9083,-6.8628,-6.8083,-6.7557,-6.6896,-6.6473,-6.6095,-6.5834,-6.5336,-6.522,-6.535,-6.5824,-6.5933,-6.57,-6.5266,-6.4493,-6.4188,-6.3508,-6.2701,-6.1969,-6.1135,-6.0165,-5.9329,-5.8704,-5.8071,-5.7044,-5.6476,-5.6477,-5.6327,-5.565,-5.5333,-5.5063,-5.4324,-5.3346,-5.2612,-5.2154,-5.1824,-5.1362,-5.0788,-5.0099,-4.9514,-4.877,-4.7634,-4.6618,-4.5853,-4.4934,-4.3746,-4.3024,-4.243,-4.1793,-4.1016,-4.0548,-4.0059,-3.9588,-3.9114,-3.8798,-3.864,-3.864,-3.864,-3.864,-3.864,-3.864,-3.864,-6.6814,-6.6883,-6.7721,-6.7576,-6.6795,-6.6795,-6.6795,-6.6795,-6.6878,-6.6878,-6.6891,-6.6914,-6.6914,-6.6914,-6.6914,-6.6912,-6.6901,-6.6883,-6.7425,-6.8122,-6.8942,-7.0191,-7.139,-7.2658,-7.3913,-7.4987,-7.5482,-7.5891,-7.6376,-7.6128,-7.6095,-7.6185,-7.5809,-7.5793,-7.5692,-7.5497,-7.5171,-7.4857,-7.4563,-7.4342,-7.4104,-7.3864,-7.3578,-7.3178,-7.2853,-7.2516,-7.2048,-7.1593,-7.1146,-7.0647,-7.0026,-6.9525,-6.9008,-6.8397,-6.7959,-6.7475,-6.6812,-6.6354,-6.6095,-6.5692,-6.5279,-6.491,-6.4965,-6.5377,-6.5728,-6.5483,-6.5077,-6.4493,-6.4075,-6.3508,-6.2672,-6.1703,-6.0894,-6.0165,-5.9205,-5.8578,-5.7816,-5.6888,-5.6398,-5.6664,-5.6432,-5.5778,-5.5365,-5.5065,-5.4199,-5.3068,-5.2459,-5.2,-5.1555,-5.1133,-5.0605,-5.0008,-4.9479,-4.86,-4.7535,-4.6743,-4.6129,-4.5084,-4.405,-4.3177,-4.247,-4.1832,-4.1016,-4.0529,-4.0059,-3.9745,-3.9272,-3.8956,-3.864,-3.864,-3.864,-3.864,-3.864,-3.864,-3.864,-6.6693,-6.6798,-6.7156,-6.7102,-6.6795,-6.6795,-6.6795,-6.68,-6.6891,-6.6901,-6.6914,-6.6914,-6.6914,-6.6914,-6.6914,-6.6912,-6.6982,-6.7468,-6.8127,-6.9176,-7.0309,-7.1591,-7.2867,-7.4055,-7.5152,-7.5775,-7.6118,-7.6381,-7.6552,-7.6514,-7.6374,-7.6225,-7.6034,-7.5848,-7.566,-7.5354,-7.4979,-7.4691,-7.4476,-7.4289,-7.4056,-7.3815,-7.3476,-7.3087,-7.2742,-7.238,-7.1903,-7.1531,-7.1015,-7.0443,-6.9885,-6.9379,-6.8857,-6.8241,-6.7799,-6.7394,-6.6728,-6.6268,-6.6009,-6.567,-6.5396,-6.5508,-6.5282,-6.5172,-6.562,-6.5375,-6.4857,-6.4412,-6.3849,-6.3364,-6.2351,-6.1494,-6.0652,-6.0043,-5.9329,-5.8451,-5.7688,-5.6758,-5.6611,-5.7116,-5.6503,-5.5765,-5.5346,-5.5189,-5.405,-5.2892,-5.2307,-5.167,-5.1332,-5.088,-5.0352,-4.9847,-4.9319,-4.8611,-4.7445,-4.6913,-4.6596,-4.5384,-4.4201,-4.331,-4.2604,-4.1832,-4.1016,-4.0685,-4.0216,-3.9745,-3.943,-3.8956,-3.864,-3.864,-3.864,-3.864,-3.864,-3.864,-3.864,-6.6702,-6.6712,-6.6736,-6.6811,-6.679,-6.6795,-6.6795,-6.6839,-6.6895,-6.691,-6.6914,-6.6914,-6.6914,-6.6914,-6.6914,-6.6914,-6.7216,-6.798,-6.8947,-7.023,-7.1675,-7.3068,-7.4226,-7.5218,-7.6079,-7.6259,-7.6508,-7.6809,-7.6612,-7.6514,-7.635,-7.6145,-7.5879,-7.5756,-7.5561,-7.5208,-7.4816,-7.4563,-7.4387,-7.4243,-7.3961,-7.3715,-7.3461,-7.3071,-7.263,-7.2263,-7.1842,-7.1404,-7.0883,-7.0305,-6.9742,-6.9231,-6.8705,-6.8083,-6.7638,-6.7229,-6.6694,-6.6095,-6.5922,-6.5614,-6.5417,-6.5546,-6.5048,-6.5092,-6.537,-6.5406,-6.4746,-6.4106,-6.3736,-6.3134,-6.2234,-6.1284,-6.0531,-5.9948,-5.8955,-5.8198,-5.7688,-5.6942,-5.7143,-5.7435,-5.6574,-5.5649,-5.5181,-5.4794,-5.3473,-5.2459,-5.2,-5.1401,-5.1079,-5.0605,-5.0122,-4.9617,-4.9112,-4.8327,-4.7422,-4.7083,-4.6596,-4.5405,-4.4201,-4.3442,-4.2697,-4.1773,-4.1172,-4.0841,-4.0372,-3.9902,-3.943,-3.9114,-3.8798,-3.864,-3.864,-3.864,-3.864,-3.864,-3.864,-6.6691,-6.6712,-6.6702,-6.6736,-6.6805,-6.679,-6.6834,-6.6878,-6.6898,-6.691,-6.6914,-6.6914,-6.6914,-6.6914,-6.6914,-6.707,-6.7646,-6.8757,-6.9996,-7.1363,-7.3197,-7.4708,-7.5592,-7.6388,-7.6702,-7.6882,-7.6922,-7.6777,-7.6575,-7.645,-7.6301,-7.6062,-7.5787,-7.5595,-7.5566,-7.5171,-7.4771,-7.4519,-7.4387,-7.4151,-7.3912,-7.3665,-7.332,-7.3,-7.2459,-7.2084,-7.1718,-7.1304,-7.0781,-7.0202,-6.9598,-6.9157,-6.8705,-6.7959,-6.7475,-6.7195,-6.6525,-6.6009,-6.578,-6.5066,-6.5208,-6.5545,-6.5039,-6.5051,-6.5357,-6.5187,-6.4666,-6.4106,-6.3622,-6.3019,-6.2204,-6.1284,-6.0438,-5.9702,-5.8704,-5.8071,-5.756,-5.7131,-5.7304,-5.7433,-5.6574,-5.5624,-5.506,-5.4397,-5.3044,-5.2154,-5.1716,-5.1179,-5.0788,-5.0352,-4.9916,-4.9434,-4.8951,-4.8236,-4.7524,-4.7355,-4.6743,-4.5405,-4.4352,-4.3594,-4.283,-4.2082,-4.1463,-4.1152,-4.0529,-3.9902,-3.9588,-3.9272,-3.8956,-3.864,-3.864,-3.864,-3.864,-3.864,-3.864,-6.662,-6.673,-6.6712,-6.675,-6.6791,-6.6811,-6.6829,-6.6883,-6.6906,-6.6914,-6.6914,-6.6914,-6.6914,-6.6914,-6.707,-6.7459,-6.8658,-6.9655,-7.1011,-7.3236,-7.472,-7.5677,-7.6474,-7.6769,-7.6955,-7.691,-7.684,-7.676,-7.6594,-7.6405,-7.6289,-7.6044,-7.5666,-7.5427,-7.5246,-7.4975,-7.4649,-7.4476,-7.4252,-7.4009,-7.3815,-7.3476,-7.3215,-7.2982,-7.2401,-7.1927,-7.1656,-7.1175,-7.0714,-7.0096,-6.9525,-6.9157,-6.8628,-6.7959,-6.7475,-6.7112,-6.661,-6.5746,-6.5379,-6.5003,-6.5346,-6.5349,-6.532,-6.5167,-6.5544,-6.5187,-6.4666,-6.4106,-6.3508,-6.2788,-6.185,-6.0894,-6.0165,-5.9454,-5.8704,-5.8071,-5.7642,-5.7243,-5.6983,-5.7051,-5.6617,-5.5408,-5.4598,-5.39,-5.2565,-5.1754,-5.1424,-5.1018,-5.0673,-5.0237,-4.9778,-4.9273,-4.8667,-4.8123,-4.7502,-4.7332,-4.6596,-4.5256,-4.4352,-4.3594,-4.2984,-4.2236,-4.1618,-4.1172,-4.0529,-3.9902,-3.943,-3.9114,-3.8798,-3.864,-3.864,-3.864,-3.864,-3.864,-3.864,-6.6553,-6.662,-6.668,-6.6732,-6.6775,-6.6805,-6.6829,-6.6891,-6.6914,-6.6914,-6.6914,-6.6914,-6.6914,-6.6992,-6.7344,-6.7969,-6.9518,-7.106,-7.226,-7.4564,-7.5768,-7.6411,-7.6817,-7.6985,-7.696,-7.6908,-7.6793,-7.6708,-7.6594,-7.6397,-7.6145,-7.5826,-7.5462,-7.5246,-7.5017,-7.4774,-7.4563,-7.4387,-7.4197,-7.3923,-7.3678,-7.3424,-7.3054,-7.2779,-7.238,-7.1842,-7.1431,-7.1045,-7.0647,-7.0026,-6.9525,-6.9157,-6.8628,-6.8004,-6.7475,-6.7146,-6.6525,-6.557,-6.5016,-6.5531,-6.5642,-6.5443,-6.544,-6.5481,-6.5544,-6.5187,-6.4666,-6.4075,-6.3394,-6.2555,-6.1703,-6.0774,-5.992,-5.9205,-5.8578,-5.8071,-5.7439,-5.6902,-5.6902,-5.6993,-5.6622,-5.5446,-5.4126,-5.3227,-5.2236,-5.1662,-5.111,-5.0788,-5.0444,-5.0008,-4.9548,-4.9043,-4.8552,-4.8054,-4.7648,-4.7332,-4.6299,-4.4955,-4.4352,-4.3898,-4.2984,-4.2216,-4.1773,-4.1172,-4.0529,-3.9902,-3.943,-3.8956,-3.8798,-3.864,-3.864,-3.864,-3.864,-3.864,-3.864,-6.6508,-6.6524,-6.6633,-6.6702,-6.6711,-6.6798,-6.6839,-6.6904,-6.6913,-6.6914,-6.6914,-6.6914,-6.6914,-6.707,-6.7812,-6.8828,-7.0064,-7.2193,-7.3705,-7.4909,-7.6269,-7.6794,-7.6956,-7.6994,-7.6936,-7.6855,-7.6777,-7.6671,-7.6553,-7.6311,-7.5995,-7.5699,-7.5356,-7.5133,-7.4897,-7.4691,-7.4519,-7.438,-7.4151,-7.3912,-7.3678,-7.3283,-7.2963,-7.263,-7.2226,-7.178,-7.1467,-7.1081,-7.0579,-7.0026,-6.9525,-6.9157,-6.8628,-6.7959,-6.7475,-6.6946,-6.6182,-6.557,-6.499,-6.5633,-6.5708,-6.5372,-6.5258,-6.5364,-6.5374,-6.5187,-6.4524,-6.3963,-6.3364,-6.2555,-6.1584,-6.0652,-5.9825,-5.908,-5.8451,-5.7871,-5.705,-5.6797,-5.6847,-5.6798,-5.6419,-5.5351,-5.3977,-5.302,-5.212,-5.1208,-5.0719,-5.0329,-4.9962,-4.9617,-4.9158,-4.8722,-4.8324,-4.8132,-4.7648,-4.7355,-4.6596,-4.5405,-4.4805,-4.4201,-4.3289,-4.237,-4.1927,-4.1308,-4.0529,-3.9745,-3.9114,-3.8798,-3.864,-3.864,-3.864,-3.864,-3.864,-3.864,-3.864,-6.6461,-6.6524,-6.6607,-6.6641,-6.672,-6.6811,-6.6883,-6.6904,-6.6914,-6.6914,-6.6914,-6.6914,-6.6914,-6.7031,-6.8476,-6.9883,-7.1549,-7.3252,-7.4954,-7.608,-7.677,-7.6942,-7.7034,-7.6983,-7.6962,-7.684,-7.6743,-7.6633,-7.651,-7.6262,-7.5967,-7.566,-7.5356,-7.5133,-7.4897,-7.4653,-7.4476,-7.4335,-7.4056,-7.3864,-7.3615,-7.3268,-7.289,-7.2553,-7.2226,-7.178,-7.1404,-7.1146,-7.0647,-6.9956,-6.967,-6.9305,-6.8705,-6.8083,-6.7475,-6.6525,-6.6009,-6.5692,-6.5082,-6.5508,-6.5836,-6.5331,-6.5303,-6.554,-6.5452,-6.5046,-6.4412,-6.3849,-6.3134,-6.2321,-6.1494,-6.0531,-5.955,-5.8829,-5.8198,-5.7715,-5.7131,-5.7064,-5.7003,-5.653,-5.6275,-5.5063,-5.3798,-5.2949,-5.2003,-5.1,-5.0283,-4.987,-4.9525,-4.9181,-4.8928,-4.8515,-4.84,-4.8086,-4.7794,-4.7502,-4.6743,-4.5853,-4.5256,-4.4352,-4.331,-4.2544,-4.1927,-4.1308,-4.0372,-3.9588,-3.8798,-3.864,-3.864,-3.864,-3.864,-3.864,-3.864,-3.864,-3.864,-6.6411,-6.6477,-6.6542,-6.6641,-6.6806,-6.7208,-6.7238,-6.6943,-6.6913,-6.6914,-6.6914,-6.6914,-6.707,-6.7695,-6.9219,-7.0897,-7.2567,-7.4262,-7.5768,-7.6614,-7.7075,-7.7043,-7.7004,-7.696,-7.6936,-7.6809,-7.6708,-7.6614,-7.6488,-7.6212,-7.5879,-7.5666,-7.5356,-7.5133,-7.4937,-7.4649,-7.4432,-7.4243,-7.4009,-7.3765,-7.3461,-7.3199,-7.2779,-7.2438,-7.2108,-7.178,-7.134,-7.1146,-7.0647,-7.0026,-6.9813,-6.9305,-6.8705,-6.8004,-6.7195,-6.6354,-6.6095,-6.557,-6.5049,-6.5216,-6.5222,-6.5065,-6.5198,-6.5263,-6.5282,-6.4826,-6.43,-6.3706,-6.3019,-6.2204,-6.1375,-6.0409,-5.9426,-5.8297,-5.8071,-5.7688,-5.7559,-5.7384,-5.7072,-5.647,-5.5641,-5.4548,-5.3624,-5.2878,-5.1816,-5.0654,-4.9847,-4.9365,-4.9066,-4.8814,-4.8676,-4.8446,-4.84,-4.8255,-4.7941,-4.7502,-4.6743,-4.6002,-4.5256,-4.4352,-4.331,-4.2544,-4.1927,-4.1152,-4.0235,-3.943,-3.8798,-3.864,-3.864,-3.864,-3.864,-3.864,-3.864,-3.864,-3.864,-6.6415,-6.6411,-6.6567,-6.6702,-6.69,-6.7643,-6.759,-6.6982,-6.703,-6.6953,-6.6953,-6.6914,-6.7422,-6.8437,-7.0039,-7.1758,-7.3465,-7.516,-7.6269,-7.7075,-7.702,-7.6985,-7.6972,-7.6936,-7.6894,-7.6777,-7.6671,-7.6553,-7.6466,-7.6186,-7.5848,-7.5599,-7.5392,-7.5171,-7.4897,-7.4649,-7.4387,-7.4151,-7.3912,-7.3665,-7.3372,-7.3054,-7.2723,-7.2285,-7.2048,-7.1842,-7.1404,-7.1081,-7.075,-7.0236,-6.9813,-6.9379,-6.8628,-6.7959,-6.7029,-6.644,-6.6182,-6.557,-6.5049,-6.5053,-6.4932,-6.4779,-6.4717,-6.4813,-6.4754,-6.4574,-6.4075,-6.3478,-6.2788,-6.1969,-6.1015,-6.0165,-5.9177,-5.8451,-5.7944,-5.7431,-5.6897,-5.6768,-5.6643,-5.6132,-5.543,-5.4248,-5.3108,-5.2189,-5.1291,-5.0135,-4.9525,-4.9043,-4.8722,-4.8515,-4.8469,-4.84,-4.84,-4.8255,-4.7941,-4.7502,-4.7038,-4.6299,-4.5405,-4.4525,-4.3462,-4.2544,-4.1753,-4.0841,-4.0059,-3.943,-3.8956,-3.8798,-3.864,-3.864,-3.864,-3.864,-3.864,-3.864,-3.864,-6.6415,-6.6411,-6.662,-6.6732,-6.69,-6.776,-6.7668,-6.6982,-6.7616,-6.7539,-6.6992,-6.7031,-6.7773,-6.9258,-7.0937,-7.2655,-7.4363,-7.5819,-7.6777,-7.7028,-7.7012,-7.7004,-7.6999,-7.6922,-7.6825,-7.676,-7.6652,-7.6488,-7.6326,-7.6079,-7.5879,-7.5699,-7.5427,-7.5133,-7.4937,-7.4691,-7.4387,-7.4104,-7.3864,-7.3578,-7.3215,-7.3,-7.2723,-7.2285,-7.1927,-7.1744,-7.1404,-7.1081,-7.075,-7.0272,-6.9956,-6.9379,-6.8551,-6.7879,-6.7146,-6.6558,-6.6182,-6.557,-6.5016,-6.4699,-6.4545,-6.4266,-6.4142,-6.4271,-6.4289,-6.4168,-6.3819,-6.3219,-6.2555,-6.1613,-6.0802,-5.9948,-5.9205,-5.8578,-5.7971,-5.7044,-5.6158,-5.6144,-5.6124,-5.571,-5.5041,-5.3905,-5.2593,-5.1615,-5.0746,-5.0053,-4.9388,-4.8974,-4.8653,-4.8423,-4.8446,-4.84,-4.84,-4.8232,-4.8086,-4.7648,-4.7038,-4.6448,-4.5704,-4.4654,-4.3615,-4.239,-4.1308,-4.0529,-3.9745,-3.9272,-3.8956,-3.864,-3.864,-3.864,-3.864,-3.864,-3.864,-3.864,-3.864,-6.634,-6.6411,-6.6581,-6.6693,-6.7017,-6.8111,-6.821,-6.7676,-6.8359,-6.8476,-6.7969,-6.7812,-6.8398,-7.0078,-7.1797,-7.3514,-7.5142,-7.6438,-7.6919,-7.702,-7.7024,-7.6972,-7.6962,-7.6894,-7.6832,-7.6708,-7.6573,-7.6397,-7.6198,-7.6024,-7.5848,-7.566,-7.5392,-7.5133,-7.4939,-7.4691,-7.4342,-7.3971,-7.3815,-7.3476,-7.3108,-7.2945,-7.2667,-7.2226,-7.1927,-7.1744,-7.1431,-7.1146,-7.075,-7.0166,-6.967,-6.9157,-6.8397,-6.7879,-6.7229,-6.6643,-6.6095,-6.5603,-6.4925,-6.441,-6.4159,-6.3747,-6.3421,-6.3462,-6.3763,-6.364,-6.3464,-6.2894,-6.2262,-6.1375,-6.056,-5.9702,-5.908,-5.8451,-5.7798,-5.7104,-5.6478,-5.6072,-5.602,-5.5601,-5.4869,-5.3639,-5.2238,-5.0904,-5.0086,-4.9559,-4.9066,-4.8837,-4.8538,-4.8377,-4.8377,-4.8377,-4.8377,-4.84,-4.8232,-4.7794,-4.7186,-4.6596,-4.5853,-4.4504,-4.3136,-4.2082,-4.1016,-4.0372,-3.9745,-3.943,-3.9114,-3.864,-3.864,-3.864,-3.864,-3.864,-3.864,-3.864,-3.864,-6.6303,-6.6428,-6.6569,-6.6683,-6.7056,-6.8652,-6.8864,-6.8327,-6.914,-6.9492,-6.9258,-6.875,-6.957,-7.1133,-7.25,-7.4336,-7.5763,-7.6698,-7.702,-7.7034,-7.6994,-7.6975,-7.6922,-7.6848,-7.6782,-7.6652,-7.651,-7.635,-7.6198,-7.6034,-7.5818,-7.566,-7.5424,-7.5209,-7.4939,-7.4611,-7.4297,-7.3971,-7.3678,-7.3372,-7.3145,-7.2927,-7.2553,-7.2167,-7.1927,-7.1805,-7.1494,-7.1175,-7.0781,-7.0166,-6.9452,-6.8781,-6.8319,-6.7765,-6.7229,-6.6643,-6.6042,-6.5425,-6.4735,-6.4024,-6.3612,-6.3241,-6.2794,-6.2767,-6.3071,-6.3072,-6.2898,-6.2485,-6.188,-6.1226,-6.0287,-5.9454,-5.8829,-5.8198,-5.7595,-5.698,-5.6416,-5.5915,-5.5669,-5.5433,-5.4353,-5.3125,-5.1811,-5.0484,-4.9692,-4.9167,-4.8791,-4.8561,-4.8377,-4.8377,-4.8377,-4.8377,-4.8377,-4.84,-4.84,-4.7794,-4.7186,-4.6743,-4.5853,-4.4331,-4.283,-4.1927,-4.1016,-4.0216,-3.9745,-3.943,-3.9114,-3.864,-3.864,-3.864,-3.864,-3.864,-3.864,-3.864,-3.864,-6.6301,-6.6493,-6.6555,-6.6634,-6.6993,-6.8639,-6.8892,-6.8479,-6.9749,-7.0113,-6.9765,-7.0234,-7.1172,-7.2773,-7.3047,-7.4492,-7.6469,-7.7043,-7.7012,-7.6995,-7.6972,-7.6962,-7.6894,-7.6832,-7.6708,-7.6594,-7.6444,-7.6326,-7.6172,-7.5938,-7.5787,-7.566,-7.5356,-7.5095,-7.4819,-7.4525,-7.4206,-7.3875,-7.3578,-7.3268,-7.3,-7.2723,-7.238,-7.2144,-7.1903,-7.1656,-7.134,-7.111,-7.0714,-7.0096,-6.9305,-6.8628,-6.8162,-6.7719,-6.7146,-6.6558,-6.6042,-6.5336,-6.461,-6.3865,-6.3387,-6.2499,-6.2246,-6.2167,-6.2319,-6.2304,-6.2078,-6.1813,-6.1234,-6.0899,-6.0014,-5.9052,-5.8198,-5.7688,-5.7125,-5.6718,-5.6158,-5.5688,-5.5324,-5.462,-5.3738,-5.2541,-5.1426,-5.0149,-4.9098,-4.8745,-4.8584,-4.8377,-4.8377,-4.8377,-4.8377,-4.8377,-4.8377,-4.8377,-4.8377,-4.7794,-4.7186,-4.6596,-4.5853,-4.4201,-4.283,-4.1773,-4.1016,-4.0216,-3.9745,-3.9588,-3.9114,-3.864,-3.864,-3.864,-3.864,-3.864,-3.864,-3.864,-3.864]}]]